﻿<?xml version="1.0" encoding="utf-8"?><gpx creator="Garmin Desktop App" version="1.1" xsi:schemaLocation="http://www.topografix.com/GPX/1/1 http://www.topografix.com/GPX/1/1/gpx.xsd http://www.garmin.com/xmlschemas/WaypointExtension/v1 http://www8.garmin.com/xmlschemas/WaypointExtensionv1.xsd http://www.garmin.com/xmlschemas/TrackPointExtension/v1 http://www.garmin.com/xmlschemas/TrackPointExtensionv1.xsd http://www.garmin.com/xmlschemas/GpxExtensions/v3 http://www8.garmin.com/xmlschemas/GpxExtensionsv3.xsd http://www.garmin.com/xmlschemas/ActivityExtension/v1 http://www8.garmin.com/xmlschemas/ActivityExtensionv1.xsd http://www.garmin.com/xmlschemas/AdventuresExtensions/v1 http://www8.garmin.com/xmlschemas/AdventuresExtensionv1.xsd http://www.garmin.com/xmlschemas/PressureExtension/v1 http://www.garmin.com/xmlschemas/PressureExtensionv1.xsd http://www.garmin.com/xmlschemas/TripExtensions/v1 http://www.garmin.com/xmlschemas/TripExtensionsv1.xsd http://www.garmin.com/xmlschemas/TripMetaDataExtensions/v1 http://www.garmin.com/xmlschemas/TripMetaDataExtensionsv1.xsd http://www.garmin.com/xmlschemas/ViaPointTransportationModeExtensions/v1 http://www.garmin.com/xmlschemas/ViaPointTransportationModeExtensionsv1.xsd http://www.garmin.com/xmlschemas/CreationTimeExtension/v1 http://www.garmin.com/xmlschemas/CreationTimeExtensionsv1.xsd http://www.garmin.com/xmlschemas/AccelerationExtension/v1 http://www.garmin.com/xmlschemas/AccelerationExtensionv1.xsd http://www.garmin.com/xmlschemas/PowerExtension/v1 http://www.garmin.com/xmlschemas/PowerExtensionv1.xsd http://www.garmin.com/xmlschemas/VideoExtension/v1 http://www.garmin.com/xmlschemas/VideoExtensionv1.xsd" xmlns="http://www.topografix.com/GPX/1/1" xmlns:xsi="http://www.w3.org/2001/XMLSchema-instance" xmlns:wptx1="http://www.garmin.com/xmlschemas/WaypointExtension/v1" xmlns:gpxtrx="http://www.garmin.com/xmlschemas/GpxExtensions/v3" xmlns:gpxtpx="http://www.garmin.com/xmlschemas/TrackPointExtension/v1" xmlns:gpxx="http://www.garmin.com/xmlschemas/GpxExtensions/v3" xmlns:trp="http://www.garmin.com/xmlschemas/TripExtensions/v1" xmlns:adv="http://www.garmin.com/xmlschemas/AdventuresExtensions/v1" xmlns:prs="http://www.garmin.com/xmlschemas/PressureExtension/v1" xmlns:tmd="http://www.garmin.com/xmlschemas/TripMetaDataExtensions/v1" xmlns:vptm="http://www.garmin.com/xmlschemas/ViaPointTransportationModeExtensions/v1" xmlns:ctx="http://www.garmin.com/xmlschemas/CreationTimeExtension/v1" xmlns:gpxacc="http://www.garmin.com/xmlschemas/AccelerationExtension/v1" xmlns:gpxpx="http://www.garmin.com/xmlschemas/PowerExtension/v1" xmlns:vidx1="http://www.garmin.com/xmlschemas/VideoExtension/v1">

  <metadata>
    <link href="http://www.garmin.com">
      <text>Garmin International</text>
    </link>
    <time>2021-02-03T14:51:18Z</time>
    <bounds maxlat="51.172564337030053" maxlon="6.175779383629561" minlat="51.134381918236613" minlon="6.118651935830712" />
  </metadata>

  <trk>
    <name>meinweg 24 km west</name>
    <extensions>
      <gpxx:TrackExtension>
        <gpxx:DisplayColor>Red</gpxx:DisplayColor>
      </gpxx:TrackExtension>
    </extensions>
    <trkseg>
      <trkpt lat="51.151185622438788" lon="6.155669605359435">
        <ele>-37.829999999999998</ele>
        <time>2015-11-08T09:07:30Z</time>
      </trkpt>
      <trkpt lat="51.15118470042944" lon="6.155678322538734">
        <ele>-37.829999999999998</ele>
        <time>2015-11-08T09:07:31Z</time>
      </trkpt>
      <trkpt lat="51.151212528347969" lon="6.155838500708342">
        <ele>-37.829999999999998</ele>
        <time>2015-11-08T09:07:47Z</time>
      </trkpt>
      <trkpt lat="51.15127220749855" lon="6.155922822654247">
        <ele>-37.829999999999998</ele>
        <time>2015-11-08T09:08:03Z</time>
      </trkpt>
      <trkpt lat="51.151277404278517" lon="6.15584084764123">
        <ele>-37.829999999999998</ele>
        <time>2015-11-08T09:08:15Z</time>
      </trkpt>
      <trkpt lat="51.151247397065163" lon="6.155922235921025">
        <ele>-37.350000000000001</ele>
        <time>2015-11-08T09:08:27Z</time>
      </trkpt>
      <trkpt lat="51.15127120167017" lon="6.155929695814848">
        <ele>-36.869999999999997</ele>
        <time>2015-11-08T09:08:40Z</time>
      </trkpt>
      <trkpt lat="51.151247564703226" lon="6.155893234536052">
        <ele>-36.869999999999997</ele>
        <time>2015-11-08T09:08:45Z</time>
      </trkpt>
      <trkpt lat="51.151176067069173" lon="6.155889378860593">
        <ele>-33.509999999999998</ele>
        <time>2015-11-08T09:08:55Z</time>
      </trkpt>
      <trkpt lat="51.151172881945968" lon="6.15587848238647">
        <ele>-29.66</ele>
        <time>2015-11-08T09:08:56Z</time>
      </trkpt>
      <trkpt lat="51.151166595518589" lon="6.155854510143399">
        <ele>-23.41</ele>
        <time>2015-11-08T09:08:58Z</time>
      </trkpt>
      <trkpt lat="51.151164080947638" lon="6.155848391354084">
        <ele>-20.530000000000001</ele>
        <time>2015-11-08T09:08:59Z</time>
      </trkpt>
      <trkpt lat="51.151163494214416" lon="6.155846128240228">
        <ele>-14.76</ele>
        <time>2015-11-08T09:09:01Z</time>
      </trkpt>
      <trkpt lat="51.151164080947638" lon="6.155846212059259">
        <ele>-9.48</ele>
        <time>2015-11-08T09:09:03Z</time>
      </trkpt>
      <trkpt lat="51.151164248585701" lon="6.155845709145069">
        <ele>-4.67</ele>
        <time>2015-11-08T09:09:05Z</time>
      </trkpt>
      <trkpt lat="51.151162656024098" lon="6.155848056077957">
        <ele>0.14</ele>
        <time>2015-11-08T09:09:07Z</time>
      </trkpt>
      <trkpt lat="51.151160225272179" lon="6.155847050249577">
        <ele>4.46</ele>
        <time>2015-11-08T09:09:09Z</time>
      </trkpt>
      <trkpt lat="51.151158129796386" lon="6.155841685831547">
        <ele>8.310000000000001</ele>
        <time>2015-11-08T09:09:11Z</time>
      </trkpt>
      <trkpt lat="51.151154860854149" lon="6.155826514586806">
        <ele>12.15</ele>
        <time>2015-11-08T09:09:13Z</time>
      </trkpt>
      <trkpt lat="51.151154777035117" lon="6.155821233987808">
        <ele>16.48</ele>
        <time>2015-11-08T09:09:16Z</time>
      </trkpt>
      <trkpt lat="51.151156453415751" lon="6.155820060521364">
        <ele>20.32</ele>
        <time>2015-11-08T09:09:18Z</time>
      </trkpt>
      <trkpt lat="51.151157291606069" lon="6.155819809064269">
        <ele>23.690000000000001</ele>
        <time>2015-11-08T09:09:21Z</time>
      </trkpt>
      <trkpt lat="51.151154106482863" lon="6.155819389969111">
        <ele>27.530000000000001</ele>
        <time>2015-11-08T09:09:24Z</time>
      </trkpt>
      <trkpt lat="51.151162991300225" lon="6.155814863741398">
        <ele>30.899999999999999</ele>
        <time>2015-11-08T09:09:27Z</time>
      </trkpt>
      <trkpt lat="51.151176318526268" lon="6.155805643647909">
        <ele>34.740000000000002</ele>
        <time>2015-11-08T09:09:31Z</time>
      </trkpt>
      <trkpt lat="51.151171373203397" lon="6.155799441039562">
        <ele>37.630000000000003</ele>
        <time>2015-11-08T09:09:35Z</time>
      </trkpt>
      <trkpt lat="51.151163075119257" lon="6.155785610899329">
        <ele>40.990000000000002</ele>
        <time>2015-11-08T09:09:40Z</time>
      </trkpt>
      <trkpt lat="51.151167266070843" lon="6.155793825164437">
        <ele>44.359999999999999</ele>
        <time>2015-11-08T09:09:46Z</time>
      </trkpt>
      <trkpt lat="51.151176067069173" lon="6.15579541772604">
        <ele>47.719999999999999</ele>
        <time>2015-11-08T09:09:53Z</time>
      </trkpt>
      <trkpt lat="51.15118034183979" lon="6.155799273401499">
        <ele>48.68</ele>
        <time>2015-11-08T09:09:56Z</time>
      </trkpt>
      <trkpt lat="51.151121417060494" lon="6.155813774093986">
        <ele>52.049999999999997</ele>
        <time>2015-11-08T09:10:09Z</time>
      </trkpt>
      <trkpt lat="51.151152346283197" lon="6.155748562887311">
        <ele>53.009999999999998</ele>
        <time>2015-11-08T09:10:18Z</time>
      </trkpt>
      <trkpt lat="51.151193669065833" lon="6.155764069408178">
        <ele>52.530000000000001</ele>
        <time>2015-11-08T09:10:21Z</time>
      </trkpt>
      <trkpt lat="51.151267681270838" lon="6.1558354832232">
        <ele>53.009999999999998</ele>
        <time>2015-11-08T09:10:28Z</time>
      </trkpt>
      <trkpt lat="51.151317888870835" lon="6.155809415504336">
        <ele>52.530000000000001</ele>
        <time>2015-11-08T09:10:42Z</time>
      </trkpt>
      <trkpt lat="51.151309171691537" lon="6.15579348988831">
        <ele>52.530000000000001</ele>
        <time>2015-11-08T09:11:04Z</time>
      </trkpt>
      <trkpt lat="51.15127120167017" lon="6.155733643099666">
        <ele>52.530000000000001</ele>
        <time>2015-11-08T09:11:17Z</time>
      </trkpt>
      <trkpt lat="51.1512057390064" lon="6.155736744403839">
        <ele>52.049999999999997</ele>
        <time>2015-11-08T09:11:24Z</time>
      </trkpt>
      <trkpt lat="51.151043884456158" lon="6.155765494331718">
        <ele>51.57</ele>
        <time>2015-11-08T09:11:39Z</time>
      </trkpt>
      <trkpt lat="51.150974482297897" lon="6.155830789357424">
        <ele>51.090000000000003</ele>
        <time>2015-11-08T09:11:52Z</time>
      </trkpt>
      <trkpt lat="51.150996945798397" lon="6.155966995283961">
        <ele>50.609999999999999</ele>
        <time>2015-11-08T09:12:01Z</time>
      </trkpt>
      <trkpt lat="51.150994766503572" lon="6.156090293079615">
        <ele>51.090000000000003</ele>
        <time>2015-11-08T09:12:07Z</time>
      </trkpt>
      <trkpt lat="51.150994598865509" lon="6.156413834542036">
        <ele>50.609999999999999</ele>
        <time>2015-11-08T09:12:24Z</time>
      </trkpt>
      <trkpt lat="51.151027791202068" lon="6.156640565022826">
        <ele>50.130000000000003</ele>
        <time>2015-11-08T09:12:38Z</time>
      </trkpt>
      <trkpt lat="51.151031143963337" lon="6.156653724610806">
        <ele>50.609999999999999</ele>
        <time>2015-11-08T09:12:39Z</time>
      </trkpt>
      <trkpt lat="51.151022259145975" lon="6.156746931374073">
        <ele>50.609999999999999</ele>
        <time>2015-11-08T09:12:43Z</time>
      </trkpt>
      <trkpt lat="51.151019828394055" lon="6.157073741778731">
        <ele>51.090000000000003</ele>
        <time>2015-11-08T09:12:56Z</time>
      </trkpt>
      <trkpt lat="51.151041956618428" lon="6.157410191372037">
        <ele>51.090000000000003</ele>
        <time>2015-11-08T09:13:10Z</time>
      </trkpt>
      <trkpt lat="51.151095852255821" lon="6.157774217426777">
        <ele>51.090000000000003</ele>
        <time>2015-11-08T09:13:26Z</time>
      </trkpt>
      <trkpt lat="51.151155279949307" lon="6.157941520214081">
        <ele>51.090000000000003</ele>
        <time>2015-11-08T09:13:38Z</time>
      </trkpt>
      <trkpt lat="51.151240020990372" lon="6.158111253753305">
        <ele>52.049999999999997</ele>
        <time>2015-11-08T09:13:47Z</time>
      </trkpt>
      <trkpt lat="51.151410844177008" lon="6.158368326723576">
        <ele>52.530000000000001</ele>
        <time>2015-11-08T09:14:03Z</time>
      </trkpt>
      <trkpt lat="51.151544284075499" lon="6.158518362790346">
        <ele>52.530000000000001</ele>
        <time>2015-11-08T09:14:11Z</time>
      </trkpt>
      <trkpt lat="51.151714855805039" lon="6.158845592290163">
        <ele>52.530000000000001</ele>
        <time>2015-11-08T09:14:27Z</time>
      </trkpt>
      <trkpt lat="51.151797333732247" lon="6.159095875918865">
        <ele>53.490000000000002</ele>
        <time>2015-11-08T09:14:41Z</time>
      </trkpt>
      <trkpt lat="51.151832537725568" lon="6.159194866195321">
        <ele>53.969999999999999</ele>
        <time>2015-11-08T09:14:45Z</time>
      </trkpt>
      <trkpt lat="51.151876542717218" lon="6.159453699365258">
        <ele>53.490000000000002</ele>
        <time>2015-11-08T09:14:59Z</time>
      </trkpt>
      <trkpt lat="51.151888193562627" lon="6.159571884199977">
        <ele>52.049999999999997</ele>
        <time>2015-11-08T09:15:04Z</time>
      </trkpt>
      <trkpt lat="51.15189322270453" lon="6.15964530967176">
        <ele>51.090000000000003</ele>
        <time>2015-11-08T09:15:07Z</time>
      </trkpt>
      <trkpt lat="51.151956170797348" lon="6.159897688776255">
        <ele>52.049999999999997</ele>
        <time>2015-11-08T09:15:18Z</time>
      </trkpt>
      <trkpt lat="51.152038732543588" lon="6.160228690132499">
        <ele>51.57</ele>
        <time>2015-11-08T09:15:35Z</time>
      </trkpt>
      <trkpt lat="51.152218105271459" lon="6.160535551607609">
        <ele>51.57</ele>
        <time>2015-11-08T09:15:53Z</time>
      </trkpt>
      <trkpt lat="51.152278957888484" lon="6.160583579912782">
        <ele>51.57</ele>
        <time>2015-11-08T09:15:57Z</time>
      </trkpt>
      <trkpt lat="51.152472663670778" lon="6.160751972347498">
        <ele>51.090000000000003</ele>
        <time>2015-11-08T09:16:13Z</time>
      </trkpt>
      <trkpt lat="51.152504347264767" lon="6.1606948915869">
        <ele>52.530000000000001</ele>
        <time>2015-11-08T09:16:25Z</time>
      </trkpt>
      <trkpt lat="51.152599565684795" lon="6.16049163043499">
        <ele>53.009999999999998</ele>
        <time>2015-11-08T09:16:39Z</time>
      </trkpt>
      <trkpt lat="51.152674332261086" lon="6.160210333764553">
        <ele>53.009999999999998</ele>
        <time>2015-11-08T09:16:54Z</time>
      </trkpt>
      <trkpt lat="51.152764689177275" lon="6.159887043759227">
        <ele>52.530000000000001</ele>
        <time>2015-11-08T09:17:09Z</time>
      </trkpt>
      <trkpt lat="51.152783548459411" lon="6.159799871966243">
        <ele>52.049999999999997</ele>
        <time>2015-11-08T09:17:13Z</time>
      </trkpt>
      <trkpt lat="51.152792433276772" lon="6.159478509798646">
        <ele>52.049999999999997</ele>
        <time>2015-11-08T09:17:26Z</time>
      </trkpt>
      <trkpt lat="51.152808694168925" lon="6.159390332177281">
        <ele>52.530000000000001</ele>
        <time>2015-11-08T09:17:31Z</time>
      </trkpt>
      <trkpt lat="51.152813639491796" lon="6.159103503450751">
        <ele>52.530000000000001</ele>
        <time>2015-11-08T09:17:46Z</time>
      </trkpt>
      <trkpt lat="51.152816489338875" lon="6.159080872312188">
        <ele>51.57</ele>
        <time>2015-11-08T09:17:47Z</time>
      </trkpt>
      <trkpt lat="51.152849430218339" lon="6.158734951168299">
        <ele>53.969999999999999</ele>
        <time>2015-11-08T09:18:03Z</time>
      </trkpt>
      <trkpt lat="51.152833253145218" lon="6.158541748300195">
        <ele>54.450000000000003</ele>
        <time>2015-11-08T09:18:11Z</time>
      </trkpt>
      <trkpt lat="51.152824871242046" lon="6.158444350585342">
        <ele>54.450000000000003</ele>
        <time>2015-11-08T09:18:15Z</time>
      </trkpt>
      <trkpt lat="51.152864685282111" lon="6.158252321183682">
        <ele>53.969999999999999</ele>
        <time>2015-11-08T09:18:23Z</time>
      </trkpt>
      <trkpt lat="51.152876419946551" lon="6.158085269853473">
        <ele>54.450000000000003</ele>
        <time>2015-11-08T09:18:31Z</time>
      </trkpt>
      <trkpt lat="51.152914557605982" lon="6.158099351450801">
        <ele>53.969999999999999</ele>
        <time>2015-11-08T09:18:37Z</time>
      </trkpt>
      <trkpt lat="51.153038442134857" lon="6.15816037170589">
        <ele>53.969999999999999</ele>
        <time>2015-11-08T09:18:51Z</time>
      </trkpt>
      <trkpt lat="51.153055960312486" lon="6.158158360049129">
        <ele>53.490000000000002</ele>
        <time>2015-11-08T09:18:53Z</time>
      </trkpt>
      <trkpt lat="51.153076747432351" lon="6.158162299543619">
        <ele>53.969999999999999</ele>
        <time>2015-11-08T09:18:55Z</time>
      </trkpt>
      <trkpt lat="51.153153190389276" lon="6.158199431374669">
        <ele>57.82</ele>
        <time>2015-11-08T09:19:00Z</time>
      </trkpt>
      <trkpt lat="51.153184035792947" lon="6.158203957602382">
        <ele>59.259999999999998</ele>
        <time>2015-11-08T09:19:03Z</time>
      </trkpt>
      <trkpt lat="51.153308758512139" lon="6.158146625384688">
        <ele>61.18</ele>
        <time>2015-11-08T09:19:18Z</time>
      </trkpt>
      <trkpt lat="51.153372460976243" lon="6.158069260418415">
        <ele>62.140000000000001</ele>
        <time>2015-11-08T09:19:33Z</time>
      </trkpt>
      <trkpt lat="51.153426021337509" lon="6.157870776951313">
        <ele>63.579999999999998</ele>
        <time>2015-11-08T09:19:46Z</time>
      </trkpt>
      <trkpt lat="51.153413280844688" lon="6.157655362039805">
        <ele>65.510000000000005</ele>
        <time>2015-11-08T09:19:58Z</time>
      </trkpt>
      <trkpt lat="51.153419818729162" lon="6.157543463632464">
        <ele>65.510000000000005</ele>
        <time>2015-11-08T09:20:12Z</time>
      </trkpt>
      <trkpt lat="51.153439432382584" lon="6.157391080632806">
        <ele>65.030000000000001</ele>
        <time>2015-11-08T09:20:20Z</time>
      </trkpt>
      <trkpt lat="51.153445886448026" lon="6.157039375975728">
        <ele>62.619999999999997</ele>
        <time>2015-11-08T09:20:34Z</time>
      </trkpt>
      <trkpt lat="51.153462482616305" lon="6.156863272190094">
        <ele>61.18</ele>
        <time>2015-11-08T09:20:43Z</time>
      </trkpt>
      <trkpt lat="51.153475306928158" lon="6.15679370239377">
        <ele>60.700000000000003</ele>
        <time>2015-11-08T09:20:46Z</time>
      </trkpt>
      <trkpt lat="51.153503553941846" lon="6.156451134011149">
        <ele>58.780000000000001</ele>
        <time>2015-11-08T09:21:01Z</time>
      </trkpt>
      <trkpt lat="51.153523586690426" lon="6.156162125989795">
        <ele>58.299999999999997</ele>
        <time>2015-11-08T09:21:15Z</time>
      </trkpt>
      <trkpt lat="51.153564909473062" lon="6.155930953100324">
        <ele>59.740000000000002</ele>
        <time>2015-11-08T09:21:31Z</time>
      </trkpt>
      <trkpt lat="51.153632802888751" lon="6.15551738999784">
        <ele>61.659999999999997</ele>
        <time>2015-11-08T09:21:49Z</time>
      </trkpt>
      <trkpt lat="51.153682256117463" lon="6.155271548777819">
        <ele>62.140000000000001</ele>
        <time>2015-11-08T09:22:05Z</time>
      </trkpt>
      <trkpt lat="51.153699355199933" lon="6.155054960399866">
        <ele>60.219999999999999</ele>
        <time>2015-11-08T09:22:19Z</time>
      </trkpt>
      <trkpt lat="51.153712682425976" lon="6.154939625412226">
        <ele>60.700000000000003</ele>
        <time>2015-11-08T09:22:25Z</time>
      </trkpt>
      <trkpt lat="51.15371435880661" lon="6.154626728966832">
        <ele>61.659999999999997</ele>
        <time>2015-11-08T09:22:40Z</time>
      </trkpt>
      <trkpt lat="51.153780911117792" lon="6.154299164190888">
        <ele>64.549999999999997</ele>
        <time>2015-11-08T09:22:52Z</time>
      </trkpt>
      <trkpt lat="51.153854336589575" lon="6.154138231649995">
        <ele>64.549999999999997</ele>
        <time>2015-11-08T09:22:58Z</time>
      </trkpt>
      <trkpt lat="51.153928600251675" lon="6.153951985761523">
        <ele>65.510000000000005</ele>
        <time>2015-11-08T09:23:08Z</time>
      </trkpt>
      <trkpt lat="51.153974700719118" lon="6.153810331597924">
        <ele>65.510000000000005</ele>
        <time>2015-11-08T09:23:15Z</time>
      </trkpt>
      <trkpt lat="51.154015436768532" lon="6.153725422918797">
        <ele>66.469999999999999</ele>
        <time>2015-11-08T09:23:20Z</time>
      </trkpt>
      <trkpt lat="51.154104536399245" lon="6.153459800407291">
        <ele>66.950000000000003</ele>
        <time>2015-11-08T09:23:36Z</time>
      </trkpt>
      <trkpt lat="51.154191624373198" lon="6.153183449059725">
        <ele>67.909999999999997</ele>
        <time>2015-11-08T09:23:52Z</time>
      </trkpt>
      <trkpt lat="51.154280137270689" lon="6.152952359989286">
        <ele>68.870000000000005</ele>
        <time>2015-11-08T09:24:05Z</time>
      </trkpt>
      <trkpt lat="51.154285920783877" lon="6.152936182916164">
        <ele>68.870000000000005</ele>
        <time>2015-11-08T09:24:06Z</time>
      </trkpt>
      <trkpt lat="51.154380720108747" lon="6.152757480740547">
        <ele>69.829999999999998</ele>
        <time>2015-11-08T09:24:17Z</time>
      </trkpt>
      <trkpt lat="51.154427910223603" lon="6.152615323662758">
        <ele>70.310000000000002</ele>
        <time>2015-11-08T09:24:24Z</time>
      </trkpt>
      <trkpt lat="51.154569229111075" lon="6.152330255135894">
        <ele>69.349999999999994</ele>
        <time>2015-11-08T09:24:38Z</time>
      </trkpt>
      <trkpt lat="51.154690682888031" lon="6.152097405865789">
        <ele>69.829999999999998</ele>
        <time>2015-11-08T09:24:50Z</time>
      </trkpt>
      <trkpt lat="51.154727814719081" lon="6.151889199391007">
        <ele>69.829999999999998</ele>
        <time>2015-11-08T09:25:00Z</time>
      </trkpt>
      <trkpt lat="51.154688335955143" lon="6.151674790307879">
        <ele>69.829999999999998</ele>
        <time>2015-11-08T09:25:15Z</time>
      </trkpt>
      <trkpt lat="51.154721528291702" lon="6.151538416743279">
        <ele>69.829999999999998</ele>
        <time>2015-11-08T09:25:26Z</time>
      </trkpt>
      <trkpt lat="51.15474340505898" lon="6.151482257992029">
        <ele>69.829999999999998</ele>
        <time>2015-11-08T09:25:30Z</time>
      </trkpt>
      <trkpt lat="51.154818506911397" lon="6.151240607723594">
        <ele>69.829999999999998</ele>
        <time>2015-11-08T09:25:45Z</time>
      </trkpt>
      <trkpt lat="51.154946582391858" lon="6.150994431227446">
        <ele>69.349999999999994</ele>
        <time>2015-11-08T09:25:59Z</time>
      </trkpt>
      <trkpt lat="51.155095864087343" lon="6.150659238919616">
        <ele>69.829999999999998</ele>
        <time>2015-11-08T09:26:15Z</time>
      </trkpt>
      <trkpt lat="51.155153950676322" lon="6.150484811514616">
        <ele>69.829999999999998</ele>
        <time>2015-11-08T09:26:26Z</time>
      </trkpt>
      <trkpt lat="51.155197117477655" lon="6.150375260040164">
        <ele>69.349999999999994</ele>
        <time>2015-11-08T09:26:31Z</time>
      </trkpt>
      <trkpt lat="51.155351595953107" lon="6.150101590901613">
        <ele>68.870000000000005</ele>
        <time>2015-11-08T09:26:47Z</time>
      </trkpt>
      <trkpt lat="51.155431056395173" lon="6.150067979469895">
        <ele>69.349999999999994</ele>
        <time>2015-11-08T09:26:52Z</time>
      </trkpt>
      <trkpt lat="51.155529459938407" lon="6.150208627805114">
        <ele>69.349999999999994</ele>
        <time>2015-11-08T09:27:06Z</time>
      </trkpt>
      <trkpt lat="51.155631132423878" lon="6.150347935035825">
        <ele>69.349999999999994</ele>
        <time>2015-11-08T09:27:21Z</time>
      </trkpt>
      <trkpt lat="51.155767170712352" lon="6.150408452376723">
        <ele>69.349999999999994</ele>
        <time>2015-11-08T09:27:30Z</time>
      </trkpt>
      <trkpt lat="51.155945705249906" lon="6.150506436824799">
        <ele>68.870000000000005</ele>
        <time>2015-11-08T09:27:43Z</time>
      </trkpt>
      <trkpt lat="51.155966408550739" lon="6.150501742959023">
        <ele>68.870000000000005</ele>
        <time>2015-11-08T09:27:49Z</time>
      </trkpt>
      <trkpt lat="51.156136225908995" lon="6.150331925600767">
        <ele>68.390000000000001</ele>
        <time>2015-11-08T09:28:04Z</time>
      </trkpt>
      <trkpt lat="51.156164053827524" lon="6.150284735485911">
        <ele>68.390000000000001</ele>
        <time>2015-11-08T09:28:07Z</time>
      </trkpt>
      <trkpt lat="51.156274862587452" lon="6.15000955760479">
        <ele>67.909999999999997</ele>
        <time>2015-11-08T09:28:24Z</time>
      </trkpt>
      <trkpt lat="51.156304953619838" lon="6.149940323084593">
        <ele>67.430000000000007</ele>
        <time>2015-11-08T09:28:28Z</time>
      </trkpt>
      <trkpt lat="51.156352981925011" lon="6.149725830182433">
        <ele>67.909999999999997</ele>
        <time>2015-11-08T09:28:38Z</time>
      </trkpt>
      <trkpt lat="51.156350802630186" lon="6.149565819650888">
        <ele>68.390000000000001</ele>
        <time>2015-11-08T09:28:48Z</time>
      </trkpt>
      <trkpt lat="51.156378798186779" lon="6.149453418329358">
        <ele>68.870000000000005</ele>
        <time>2015-11-08T09:28:52Z</time>
      </trkpt>
      <trkpt lat="51.156457839533687" lon="6.149163655936718">
        <ele>67.909999999999997</ele>
        <time>2015-11-08T09:29:07Z</time>
      </trkpt>
      <trkpt lat="51.156536461785436" lon="6.14888571202755">
        <ele>66.469999999999999</ele>
        <time>2015-11-08T09:29:22Z</time>
      </trkpt>
      <trkpt lat="51.156659089028835" lon="6.148456642404199">
        <ele>67.430000000000007</ele>
        <time>2015-11-08T09:29:39Z</time>
      </trkpt>
      <trkpt lat="51.156709380447865" lon="6.148297805339098">
        <ele>67.909999999999997</ele>
        <time>2015-11-08T09:29:47Z</time>
      </trkpt>
      <trkpt lat="51.156823290511966" lon="6.148048359900713">
        <ele>68.870000000000005</ele>
        <time>2015-11-08T09:30:01Z</time>
      </trkpt>
      <trkpt lat="51.156884478405118" lon="6.147805452346802">
        <ele>68.870000000000005</ele>
        <time>2015-11-08T09:30:15Z</time>
      </trkpt>
      <trkpt lat="51.156917922198772" lon="6.147720795124769">
        <ele>69.349999999999994</ele>
        <time>2015-11-08T09:30:20Z</time>
      </trkpt>
      <trkpt lat="51.15694809705019" lon="6.147671593353152">
        <ele>69.349999999999994</ele>
        <time>2015-11-08T09:30:22Z</time>
      </trkpt>
      <trkpt lat="51.157073825597763" lon="6.147392224520445">
        <ele>69.829999999999998</ele>
        <time>2015-11-08T09:30:36Z</time>
      </trkpt>
      <trkpt lat="51.157170971855521" lon="6.147130038589239">
        <ele>69.349999999999994</ele>
        <time>2015-11-08T09:30:49Z</time>
      </trkpt>
      <trkpt lat="51.157272309064865" lon="6.146862907335162">
        <ele>69.349999999999994</ele>
        <time>2015-11-08T09:31:04Z</time>
      </trkpt>
      <trkpt lat="51.157292257994413" lon="6.14680808968842">
        <ele>68.870000000000005</ele>
        <time>2015-11-08T09:31:07Z</time>
      </trkpt>
      <trkpt lat="51.157450675964355" lon="6.146456636488438">
        <ele>69.349999999999994</ele>
        <time>2015-11-08T09:31:22Z</time>
      </trkpt>
      <trkpt lat="51.157557126134634" lon="6.146243317052722">
        <ele>69.349999999999994</ele>
        <time>2015-11-08T09:31:34Z</time>
      </trkpt>
      <trkpt lat="51.157645136117935" lon="6.14599353633821">
        <ele>69.349999999999994</ele>
        <time>2015-11-08T09:31:50Z</time>
      </trkpt>
      <trkpt lat="51.157759632915258" lon="6.14567544311285">
        <ele>67.909999999999997</ele>
        <time>2015-11-08T09:32:05Z</time>
      </trkpt>
      <trkpt lat="51.157773295417428" lon="6.145655494183302">
        <ele>67.909999999999997</ele>
        <time>2015-11-08T09:32:06Z</time>
      </trkpt>
      <trkpt lat="51.157910255715251" lon="6.145411999896169">
        <ele>67.430000000000007</ele>
        <time>2015-11-08T09:32:17Z</time>
      </trkpt>
      <trkpt lat="51.157961888238788" lon="6.145163392648101">
        <ele>66.950000000000003</ele>
        <time>2015-11-08T09:32:31Z</time>
      </trkpt>
      <trkpt lat="51.157970773056149" lon="6.145122237503529">
        <ele>67.430000000000007</ele>
        <time>2015-11-08T09:32:34Z</time>
      </trkpt>
      <trkpt lat="51.158016538247466" lon="6.145042609423399">
        <ele>65.989999999999995</ele>
        <time>2015-11-08T09:32:37Z</time>
      </trkpt>
      <trkpt lat="51.158162886276841" lon="6.144702471792698">
        <ele>65.510000000000005</ele>
        <time>2015-11-08T09:32:52Z</time>
      </trkpt>
      <trkpt lat="51.15820043720305" lon="6.144641283899546">
        <ele>65.030000000000001</ele>
        <time>2015-11-08T09:32:56Z</time>
      </trkpt>
      <trkpt lat="51.158281993120909" lon="6.1443932633847">
        <ele>64.069999999999993</ele>
        <time>2015-11-08T09:33:08Z</time>
      </trkpt>
      <trkpt lat="51.158332033082843" lon="6.144184470176697">
        <ele>61.659999999999997</ele>
        <time>2015-11-08T09:33:23Z</time>
      </trkpt>
      <trkpt lat="51.158410487696528" lon="6.143975928425789">
        <ele>60.219999999999999</ele>
        <time>2015-11-08T09:33:34Z</time>
      </trkpt>
      <trkpt lat="51.158394142985344" lon="6.143710389733315">
        <ele>59.740000000000002</ele>
        <time>2015-11-08T09:33:48Z</time>
      </trkpt>
      <trkpt lat="51.158382659777999" lon="6.143643585965037">
        <ele>59.740000000000002</ele>
        <time>2015-11-08T09:33:53Z</time>
      </trkpt>
      <trkpt lat="51.158301355317235" lon="6.143438732251525">
        <ele>59.259999999999998</ele>
        <time>2015-11-08T09:34:07Z</time>
      </trkpt>
      <trkpt lat="51.158258859068155" lon="6.143280817195773">
        <ele>58.780000000000001</ele>
        <time>2015-11-08T09:34:22Z</time>
      </trkpt>
      <trkpt lat="51.158157521858811" lon="6.143041765317321">
        <ele>57.82</ele>
        <time>2015-11-08T09:34:37Z</time>
      </trkpt>
      <trkpt lat="51.158013185486197" lon="6.142690144479275">
        <ele>56.859999999999999</ele>
        <time>2015-11-08T09:34:51Z</time>
      </trkpt>
      <trkpt lat="51.157915284857154" lon="6.142473304644227">
        <ele>55.890000000000001</ele>
        <time>2015-11-08T09:35:05Z</time>
      </trkpt>
      <trkpt lat="51.157769020646811" lon="6.14217683672905">
        <ele>54.93</ele>
        <time>2015-11-08T09:35:21Z</time>
      </trkpt>
      <trkpt lat="51.157665839418769" lon="6.141982208937407">
        <ele>53.969999999999999</ele>
        <time>2015-11-08T09:35:31Z</time>
      </trkpt>
      <trkpt lat="51.157543379813433" lon="6.141710048541427">
        <ele>53.490000000000002</ele>
        <time>2015-11-08T09:35:44Z</time>
      </trkpt>
      <trkpt lat="51.157508846372366" lon="6.141612818464637">
        <ele>53.490000000000002</ele>
        <time>2015-11-08T09:35:48Z</time>
      </trkpt>
      <trkpt lat="51.157393679022789" lon="6.141392709687352">
        <ele>53.490000000000002</ele>
        <time>2015-11-08T09:35:59Z</time>
      </trkpt>
      <trkpt lat="51.157351769506931" lon="6.141314087435603">
        <ele>53.490000000000002</ele>
        <time>2015-11-08T09:36:03Z</time>
      </trkpt>
      <trkpt lat="51.157233668491244" lon="6.141062714159489">
        <ele>53.490000000000002</ele>
        <time>2015-11-08T09:36:17Z</time>
      </trkpt>
      <trkpt lat="51.157110705971718" lon="6.140805473551154">
        <ele>54.450000000000003</ele>
        <time>2015-11-08T09:36:32Z</time>
      </trkpt>
      <trkpt lat="51.157055217772722" lon="6.140694413334131">
        <ele>54.450000000000003</ele>
        <time>2015-11-08T09:36:38Z</time>
      </trkpt>
      <trkpt lat="51.15683376789093" lon="6.140286969020963">
        <ele>56.369999999999997</ele>
        <time>2015-11-08T09:36:55Z</time>
      </trkpt>
      <trkpt lat="51.156700579449534" lon="6.140025286003947">
        <ele>56.369999999999997</ele>
        <time>2015-11-08T09:37:09Z</time>
      </trkpt>
      <trkpt lat="51.156584238633513" lon="6.139809871092439">
        <ele>57.340000000000003</ele>
        <time>2015-11-08T09:37:23Z</time>
      </trkpt>
      <trkpt lat="51.156431352719665" lon="6.139429165050387">
        <ele>57.82</ele>
        <time>2015-11-08T09:37:40Z</time>
      </trkpt>
      <trkpt lat="51.156425988301635" lon="6.1394077911973">
        <ele>57.82</ele>
        <time>2015-11-08T09:37:41Z</time>
      </trkpt>
      <trkpt lat="51.156319789588451" lon="6.139217857271433">
        <ele>57.340000000000003</ele>
        <time>2015-11-08T09:37:51Z</time>
      </trkpt>
      <trkpt lat="51.156170004978776" lon="6.138968579471111">
        <ele>57.340000000000003</ele>
        <time>2015-11-08T09:38:04Z</time>
      </trkpt>
      <trkpt lat="51.156094316393137" lon="6.138817789033055">
        <ele>56.859999999999999</ele>
        <time>2015-11-08T09:38:12Z</time>
      </trkpt>
      <trkpt lat="51.155980322510004" lon="6.138659371063113">
        <ele>56.859999999999999</ele>
        <time>2015-11-08T09:38:19Z</time>
      </trkpt>
      <trkpt lat="51.155867921188474" lon="6.138306660577655">
        <ele>56.859999999999999</ele>
        <time>2015-11-08T09:38:36Z</time>
      </trkpt>
      <trkpt lat="51.15579642355442" lon="6.138101471588016">
        <ele>56.859999999999999</ele>
        <time>2015-11-08T09:38:51Z</time>
      </trkpt>
      <trkpt lat="51.155684608966112" lon="6.137877171859145">
        <ele>55.890000000000001</ele>
        <time>2015-11-08T09:39:07Z</time>
      </trkpt>
      <trkpt lat="51.155564244836569" lon="6.137786144390702">
        <ele>55.890000000000001</ele>
        <time>2015-11-08T09:40:17Z</time>
      </trkpt>
      <trkpt lat="51.155774965882301" lon="6.137720597907901">
        <ele>56.369999999999997</ele>
        <time>2015-11-08T09:40:29Z</time>
      </trkpt>
      <trkpt lat="51.155990967527032" lon="6.137723783031106">
        <ele>56.859999999999999</ele>
        <time>2015-11-08T09:40:45Z</time>
      </trkpt>
      <trkpt lat="51.156170507892966" lon="6.137733589857817">
        <ele>56.369999999999997</ele>
        <time>2015-11-08T09:40:59Z</time>
      </trkpt>
      <trkpt lat="51.156328758224845" lon="6.137688411399722">
        <ele>55.890000000000001</ele>
        <time>2015-11-08T09:41:09Z</time>
      </trkpt>
      <trkpt lat="51.15648441016674" lon="6.137652117758989">
        <ele>55.409999999999997</ele>
        <time>2015-11-08T09:41:19Z</time>
      </trkpt>
      <trkpt lat="51.15668767131865" lon="6.137504177168012">
        <ele>53.969999999999999</ele>
        <time>2015-11-08T09:41:32Z</time>
      </trkpt>
      <trkpt lat="51.1568508669734" lon="6.137307705357671">
        <ele>47.719999999999999</ele>
        <time>2015-11-08T09:41:44Z</time>
      </trkpt>
      <trkpt lat="51.156864864751697" lon="6.137292366474867">
        <ele>56.369999999999997</ele>
        <time>2015-11-08T09:41:45Z</time>
      </trkpt>
      <trkpt lat="51.156878359615803" lon="6.137277530506253">
        <ele>52.530000000000001</ele>
        <time>2015-11-08T09:41:46Z</time>
      </trkpt>
      <trkpt lat="51.157030826434493" lon="6.137008890509605">
        <ele>51.57</ele>
        <time>2015-11-08T09:42:00Z</time>
      </trkpt>
      <trkpt lat="51.157138617709279" lon="6.136767407879233">
        <ele>50.609999999999999</ele>
        <time>2015-11-08T09:42:14Z</time>
      </trkpt>
      <trkpt lat="51.157274655997753" lon="6.136575378477573">
        <ele>50.130000000000003</ele>
        <time>2015-11-08T09:42:27Z</time>
      </trkpt>
      <trkpt lat="51.157488981261849" lon="6.136359209194779">
        <ele>49.159999999999997</ele>
        <time>2015-11-08T09:42:43Z</time>
      </trkpt>
      <trkpt lat="51.157578080892563" lon="6.136284610256553">
        <ele>48.68</ele>
        <time>2015-11-08T09:42:49Z</time>
      </trkpt>
      <trkpt lat="51.157757621258497" lon="6.136110769584775">
        <ele>47.240000000000002</ele>
        <time>2015-11-08T09:43:02Z</time>
      </trkpt>
      <trkpt lat="51.157916709780693" lon="6.135917147621512">
        <ele>46.759999999999998</ele>
        <time>2015-11-08T09:43:16Z</time>
      </trkpt>
      <trkpt lat="51.157943280413747" lon="6.135793849825859">
        <ele>46.759999999999998</ele>
        <time>2015-11-08T09:43:21Z</time>
      </trkpt>
      <trkpt lat="51.157943615689874" lon="6.135730063542724">
        <ele>46.759999999999998</ele>
        <time>2015-11-08T09:43:44Z</time>
      </trkpt>
      <trkpt lat="51.158137824386358" lon="6.135875070467591">
        <ele>47.240000000000002</ele>
        <time>2015-11-08T09:44:01Z</time>
      </trkpt>
      <trkpt lat="51.158351479098201" lon="6.135884206742048">
        <ele>46.759999999999998</ele>
        <time>2015-11-08T09:44:18Z</time>
      </trkpt>
      <trkpt lat="51.158592291176319" lon="6.135870041325688">
        <ele>49.159999999999997</ele>
        <time>2015-11-08T09:44:36Z</time>
      </trkpt>
      <trkpt lat="51.158713661134243" lon="6.135914046317339">
        <ele>49.649999999999999</ele>
        <time>2015-11-08T09:44:51Z</time>
      </trkpt>
      <trkpt lat="51.158736543729901" lon="6.135885296389461">
        <ele>50.130000000000003</ele>
        <time>2015-11-08T09:45:02Z</time>
      </trkpt>
      <trkpt lat="51.15874819457531" lon="6.13587548956275">
        <ele>50.130000000000003</ele>
        <time>2015-11-08T09:45:17Z</time>
      </trkpt>
      <trkpt lat="51.158787924796343" lon="6.135864593088627">
        <ele>50.130000000000003</ele>
        <time>2015-11-08T09:45:39Z</time>
      </trkpt>
      <trkpt lat="51.158864116296172" lon="6.135903988033533">
        <ele>50.609999999999999</ele>
        <time>2015-11-08T09:45:52Z</time>
      </trkpt>
      <trkpt lat="51.159140300005674" lon="6.136037763208151">
        <ele>51.090000000000003</ele>
        <time>2015-11-08T09:46:11Z</time>
      </trkpt>
      <trkpt lat="51.159354960545897" lon="6.136149242520332">
        <ele>51.090000000000003</ele>
        <time>2015-11-08T09:46:26Z</time>
      </trkpt>
      <trkpt lat="51.159575404599309" lon="6.136313108727336">
        <ele>51.090000000000003</ele>
        <time>2015-11-08T09:46:41Z</time>
      </trkpt>
      <trkpt lat="51.159692667424679" lon="6.136419139802456">
        <ele>50.609999999999999</ele>
        <time>2015-11-08T09:46:50Z</time>
      </trkpt>
      <trkpt lat="51.159721249714494" lon="6.136449566110969">
        <ele>51.57</ele>
        <time>2015-11-08T09:46:52Z</time>
      </trkpt>
      <trkpt lat="51.159763997420669" lon="6.136494996026158">
        <ele>51.090000000000003</ele>
        <time>2015-11-08T09:46:55Z</time>
      </trkpt>
      <trkpt lat="51.160004893317819" lon="6.136742178350687">
        <ele>52.530000000000001</ele>
        <time>2015-11-08T09:47:11Z</time>
      </trkpt>
      <trkpt lat="51.160192480310798" lon="6.136962035670877">
        <ele>53.490000000000002</ele>
        <time>2015-11-08T09:47:25Z</time>
      </trkpt>
      <trkpt lat="51.160326087847352" lon="6.137166637927294">
        <ele>54.450000000000003</ele>
        <time>2015-11-08T09:47:37Z</time>
      </trkpt>
      <trkpt lat="51.160337990149856" lon="6.137182731181383">
        <ele>54.450000000000003</ele>
        <time>2015-11-08T09:47:38Z</time>
      </trkpt>
      <trkpt lat="51.160518368706107" lon="6.13740342669189">
        <ele>54.93</ele>
        <time>2015-11-08T09:47:47Z</time>
      </trkpt>
      <trkpt lat="51.160563379526138" lon="6.137482384219766">
        <ele>54.93</ele>
        <time>2015-11-08T09:47:50Z</time>
      </trkpt>
      <trkpt lat="51.160629848018289" lon="6.137720346450806">
        <ele>55.409999999999997</ele>
        <time>2015-11-08T09:47:57Z</time>
      </trkpt>
      <trkpt lat="51.160806035622954" lon="6.138210855424404">
        <ele>56.369999999999997</ele>
        <time>2015-11-08T09:48:10Z</time>
      </trkpt>
      <trkpt lat="51.160830929875374" lon="6.138416966423392">
        <ele>56.369999999999997</ele>
        <time>2015-11-08T09:48:13Z</time>
      </trkpt>
      <trkpt lat="51.160880215466022" lon="6.138627519831061">
        <ele>57.340000000000003</ele>
        <time>2015-11-08T09:48:17Z</time>
      </trkpt>
      <trkpt lat="51.161017427220941" lon="6.139015015214682">
        <ele>58.780000000000001</ele>
        <time>2015-11-08T09:48:26Z</time>
      </trkpt>
      <trkpt lat="51.161063695326447" lon="6.1391263268888">
        <ele>58.780000000000001</ele>
        <time>2015-11-08T09:48:29Z</time>
      </trkpt>
      <trkpt lat="51.161218760535121" lon="6.1396115552634">
        <ele>60.219999999999999</ele>
        <time>2015-11-08T09:48:40Z</time>
      </trkpt>
      <trkpt lat="51.161363935098052" lon="6.139979772269726">
        <ele>60.700000000000003</ele>
        <time>2015-11-08T09:48:49Z</time>
      </trkpt>
      <trkpt lat="51.161396792158484" lon="6.140064178034663">
        <ele>60.700000000000003</ele>
        <time>2015-11-08T09:48:51Z</time>
      </trkpt>
      <trkpt lat="51.161477426066995" lon="6.140245059505105">
        <ele>60.700000000000003</ele>
        <time>2015-11-08T09:48:56Z</time>
      </trkpt>
      <trkpt lat="51.161610530689359" lon="6.14077840000391">
        <ele>62.140000000000001</ele>
        <time>2015-11-08T09:49:09Z</time>
      </trkpt>
      <trkpt lat="51.161609189584851" lon="6.140888119116426">
        <ele>62.619999999999997</ele>
        <time>2015-11-08T09:49:12Z</time>
      </trkpt>
      <trkpt lat="51.161771044135094" lon="6.141324397176504">
        <ele>63.100000000000001</ele>
        <time>2015-11-08T09:49:24Z</time>
      </trkpt>
      <trkpt lat="51.162080084905028" lon="6.141649531200528">
        <ele>65.989999999999995</ele>
        <time>2015-11-08T09:49:38Z</time>
      </trkpt>
      <trkpt lat="51.162310922518373" lon="6.141893360763788">
        <ele>67.430000000000007</ele>
        <time>2015-11-08T09:49:49Z</time>
      </trkpt>
      <trkpt lat="51.16240899078548" lon="6.142089664936066">
        <ele>66.469999999999999</ele>
        <time>2015-11-08T09:49:55Z</time>
      </trkpt>
      <trkpt lat="51.162585765123367" lon="6.14228923805058">
        <ele>66.950000000000003</ele>
        <time>2015-11-08T09:50:03Z</time>
      </trkpt>
      <trkpt lat="51.162840658798814" lon="6.142124952748418">
        <ele>65.510000000000005</ele>
        <time>2015-11-08T09:50:16Z</time>
      </trkpt>
      <trkpt lat="51.162909055128694" lon="6.142041636630893">
        <ele>65.989999999999995</ele>
        <time>2015-11-08T09:50:20Z</time>
      </trkpt>
      <trkpt lat="51.162935541942716" lon="6.141942562535405">
        <ele>65.510000000000005</ele>
        <time>2015-11-08T09:50:26Z</time>
      </trkpt>
      <trkpt lat="51.163096642121673" lon="6.141571076586843">
        <ele>65.030000000000001</ele>
        <time>2015-11-08T09:50:38Z</time>
      </trkpt>
      <trkpt lat="51.163111394271255" lon="6.141445348039269">
        <ele>65.030000000000001</ele>
        <time>2015-11-08T09:50:42Z</time>
      </trkpt>
      <trkpt lat="51.163162188604474" lon="6.141310650855303">
        <ele>65.510000000000005</ele>
        <time>2015-11-08T09:50:46Z</time>
      </trkpt>
      <trkpt lat="51.16328707896173" lon="6.141198500990868">
        <ele>65.510000000000005</ele>
        <time>2015-11-08T09:50:51Z</time>
      </trkpt>
      <trkpt lat="51.163339214399457" lon="6.141130272299051">
        <ele>65.510000000000005</ele>
        <time>2015-11-08T09:50:54Z</time>
      </trkpt>
      <trkpt lat="51.163479946553707" lon="6.141061456874013">
        <ele>65.510000000000005</ele>
        <time>2015-11-08T09:50:59Z</time>
      </trkpt>
      <trkpt lat="51.163724195212126" lon="6.140986271202564">
        <ele>65.030000000000001</ele>
        <time>2015-11-08T09:51:05Z</time>
      </trkpt>
      <trkpt lat="51.163875153288245" lon="6.14077739417553">
        <ele>65.030000000000001</ele>
        <time>2015-11-08T09:51:14Z</time>
      </trkpt>
      <trkpt lat="51.163932904601097" lon="6.140690809115768">
        <ele>64.549999999999997</ele>
        <time>2015-11-08T09:51:18Z</time>
      </trkpt>
      <trkpt lat="51.164005994796753" lon="6.140560638159514">
        <ele>65.030000000000001</ele>
        <time>2015-11-08T09:51:23Z</time>
      </trkpt>
      <trkpt lat="51.164464736357331" lon="6.140257799997926">
        <ele>64.069999999999993</ele>
        <time>2015-11-08T09:51:36Z</time>
      </trkpt>
      <trkpt lat="51.164863044396043" lon="6.14017691463232">
        <ele>63.579999999999998</ele>
        <time>2015-11-08T09:51:48Z</time>
      </trkpt>
      <trkpt lat="51.165141155943274" lon="6.140210358425975">
        <ele>63.100000000000001</ele>
        <time>2015-11-08T09:51:57Z</time>
      </trkpt>
      <trkpt lat="51.165424631908536" lon="6.140158558264375">
        <ele>62.619999999999997</ele>
        <time>2015-11-08T09:52:05Z</time>
      </trkpt>
      <trkpt lat="51.165687907487154" lon="6.140015898272395">
        <ele>61.659999999999997</ele>
        <time>2015-11-08T09:52:15Z</time>
      </trkpt>
      <trkpt lat="51.165877338498831" lon="6.139937276020646">
        <ele>62.619999999999997</ele>
        <time>2015-11-08T09:52:21Z</time>
      </trkpt>
      <trkpt lat="51.165914889425039" lon="6.139925373718143">
        <ele>62.619999999999997</ele>
        <time>2015-11-08T09:52:22Z</time>
      </trkpt>
      <trkpt lat="51.165946321561933" lon="6.139912465587258">
        <ele>62.619999999999997</ele>
        <time>2015-11-08T09:52:23Z</time>
      </trkpt>
      <trkpt lat="51.165974233299494" lon="6.139900563284755">
        <ele>63.100000000000001</ele>
        <time>2015-11-08T09:52:24Z</time>
      </trkpt>
      <trkpt lat="51.166001474484801" lon="6.1398861464113">
        <ele>63.100000000000001</ele>
        <time>2015-11-08T09:52:25Z</time>
      </trkpt>
      <trkpt lat="51.166028464213014" lon="6.139870807528496">
        <ele>63.100000000000001</ele>
        <time>2015-11-08T09:52:26Z</time>
      </trkpt>
      <trkpt lat="51.166054112836719" lon="6.13985437899828">
        <ele>63.579999999999998</ele>
        <time>2015-11-08T09:52:27Z</time>
      </trkpt>
      <trkpt lat="51.166075821965933" lon="6.139843314886093">
        <ele>63.579999999999998</ele>
        <time>2015-11-08T09:52:28Z</time>
      </trkpt>
      <trkpt lat="51.166267516091466" lon="6.139781372621656">
        <ele>64.069999999999993</ele>
        <time>2015-11-08T09:52:40Z</time>
      </trkpt>
      <trkpt lat="51.166462646797299" lon="6.139808529987931">
        <ele>65.510000000000005</ele>
        <time>2015-11-08T09:52:53Z</time>
      </trkpt>
      <trkpt lat="51.166820637881756" lon="6.139773409813643">
        <ele>64.069999999999993</ele>
        <time>2015-11-08T09:53:10Z</time>
      </trkpt>
      <trkpt lat="51.166983582079411" lon="6.139718927443028">
        <ele>64.069999999999993</ele>
        <time>2015-11-08T09:53:21Z</time>
      </trkpt>
      <trkpt lat="51.167028844356537" lon="6.139704929664731">
        <ele>64.069999999999993</ele>
        <time>2015-11-08T09:53:25Z</time>
      </trkpt>
      <trkpt lat="51.167173516005278" lon="6.139638628810644">
        <ele>65.030000000000001</ele>
        <time>2015-11-08T09:53:39Z</time>
      </trkpt>
      <trkpt lat="51.167224645614624" lon="6.139633012935519">
        <ele>64.549999999999997</ele>
        <time>2015-11-08T09:53:43Z</time>
      </trkpt>
      <trkpt lat="51.167246690019965" lon="6.13962815143168">
        <ele>64.069999999999993</ele>
        <time>2015-11-08T09:53:44Z</time>
      </trkpt>
      <trkpt lat="51.167555395513773" lon="6.139440732076764">
        <ele>64.549999999999997</ele>
        <time>2015-11-08T09:54:00Z</time>
      </trkpt>
      <trkpt lat="51.167789753526449" lon="6.139394966885448">
        <ele>65.030000000000001</ele>
        <time>2015-11-08T09:54:14Z</time>
      </trkpt>
      <trkpt lat="51.167905759066343" lon="6.139336796477437">
        <ele>65.989999999999995</ele>
        <time>2015-11-08T09:54:25Z</time>
      </trkpt>
      <trkpt lat="51.168149840086699" lon="6.13920453004539">
        <ele>65.510000000000005</ele>
        <time>2015-11-08T09:54:38Z</time>
      </trkpt>
      <trkpt lat="51.168315298855305" lon="6.13914200104773">
        <ele>64.069999999999993</ele>
        <time>2015-11-08T09:54:52Z</time>
      </trkpt>
      <trkpt lat="51.168365674093366" lon="6.139106964692473">
        <ele>64.069999999999993</ele>
        <time>2015-11-08T09:54:57Z</time>
      </trkpt>
      <trkpt lat="51.16837564855814" lon="6.139094978570938">
        <ele>64.069999999999993</ele>
        <time>2015-11-08T09:54:58Z</time>
      </trkpt>
      <trkpt lat="51.168387802317739" lon="6.13908726722002">
        <ele>64.069999999999993</ele>
        <time>2015-11-08T09:54:59Z</time>
      </trkpt>
      <trkpt lat="51.168635739013553" lon="6.138921892270446">
        <ele>64.069999999999993</ele>
        <time>2015-11-08T09:55:16Z</time>
      </trkpt>
      <trkpt lat="51.168865319341421" lon="6.138838995248079">
        <ele>64.549999999999997</ele>
        <time>2015-11-08T09:55:29Z</time>
      </trkpt>
      <trkpt lat="51.168883759528399" lon="6.138835977762938">
        <ele>64.069999999999993</ele>
        <time>2015-11-08T09:55:30Z</time>
      </trkpt>
      <trkpt lat="51.168902786448598" lon="6.138829858973622">
        <ele>64.069999999999993</ele>
        <time>2015-11-08T09:55:31Z</time>
      </trkpt>
      <trkpt lat="51.168920388445258" lon="6.138820722699165">
        <ele>64.069999999999993</ele>
        <time>2015-11-08T09:55:32Z</time>
      </trkpt>
      <trkpt lat="51.168933464214206" lon="6.138811586424708">
        <ele>64.549999999999997</ele>
        <time>2015-11-08T09:55:33Z</time>
      </trkpt>
      <trkpt lat="51.168946707621217" lon="6.138799851760268">
        <ele>64.549999999999997</ele>
        <time>2015-11-08T09:55:34Z</time>
      </trkpt>
      <trkpt lat="51.169046619907022" lon="6.138691725209355">
        <ele>64.549999999999997</ele>
        <time>2015-11-08T09:55:41Z</time>
      </trkpt>
      <trkpt lat="51.169059947133064" lon="6.138679571449757">
        <ele>64.549999999999997</ele>
        <time>2015-11-08T09:55:42Z</time>
      </trkpt>
      <trkpt lat="51.169312745332718" lon="6.138462899252772">
        <ele>64.549999999999997</ele>
        <time>2015-11-08T09:55:58Z</time>
      </trkpt>
      <trkpt lat="51.169536374509335" lon="6.138488883152604">
        <ele>63.579999999999998</ele>
        <time>2015-11-08T09:56:12Z</time>
      </trkpt>
      <trkpt lat="51.169732762500644" lon="6.138487122952938">
        <ele>62.619999999999997</ele>
        <time>2015-11-08T09:56:25Z</time>
      </trkpt>
      <trkpt lat="51.169877266511321" lon="6.138452086597681">
        <ele>62.619999999999997</ele>
        <time>2015-11-08T09:56:40Z</time>
      </trkpt>
      <trkpt lat="51.170063093304634" lon="6.13838410936296">
        <ele>63.579999999999998</ele>
        <time>2015-11-08T09:56:54Z</time>
      </trkpt>
      <trkpt lat="51.170185217633843" lon="6.138343205675483">
        <ele>63.100000000000001</ele>
        <time>2015-11-08T09:57:01Z</time>
      </trkpt>
      <trkpt lat="51.170206088572741" lon="6.138327950611711">
        <ele>63.100000000000001</ele>
        <time>2015-11-08T09:57:02Z</time>
      </trkpt>
      <trkpt lat="51.170227294787765" lon="6.138313366100192">
        <ele>63.100000000000001</ele>
        <time>2015-11-08T09:57:03Z</time>
      </trkpt>
      <trkpt lat="51.170473555102944" lon="6.138168359175324">
        <ele>62.619999999999997</ele>
        <time>2015-11-08T09:57:20Z</time>
      </trkpt>
      <trkpt lat="51.170609258115292" lon="6.138140028342605">
        <ele>61.659999999999997</ele>
        <time>2015-11-08T09:57:32Z</time>
      </trkpt>
      <trkpt lat="51.170635242015123" lon="6.138133825734258">
        <ele>62.140000000000001</ele>
        <time>2015-11-08T09:57:33Z</time>
      </trkpt>
      <trkpt lat="51.170942019671202" lon="6.137994015589356">
        <ele>60.700000000000003</ele>
        <time>2015-11-08T09:57:49Z</time>
      </trkpt>
      <trkpt lat="51.171142179518938" lon="6.137879267334938">
        <ele>59.740000000000002</ele>
        <time>2015-11-08T09:58:02Z</time>
      </trkpt>
      <trkpt lat="51.171351727098227" lon="6.137683549895883">
        <ele>59.259999999999998</ele>
        <time>2015-11-08T09:58:16Z</time>
      </trkpt>
      <trkpt lat="51.171400006860495" lon="6.137671982869506">
        <ele>59.259999999999998</ele>
        <time>2015-11-08T09:58:19Z</time>
      </trkpt>
      <trkpt lat="51.171414591372013" lon="6.13767265342176">
        <ele>59.259999999999998</ele>
        <time>2015-11-08T09:58:20Z</time>
      </trkpt>
      <trkpt lat="51.171430600807071" lon="6.137667708098888">
        <ele>59.259999999999998</ele>
        <time>2015-11-08T09:58:21Z</time>
      </trkpt>
      <trkpt lat="51.171702677384019" lon="6.137539967894554">
        <ele>59.740000000000002</ele>
        <time>2015-11-08T09:58:41Z</time>
      </trkpt>
      <trkpt lat="51.171763949096203" lon="6.13750166259706">
        <ele>59.740000000000002</ele>
        <time>2015-11-08T09:58:46Z</time>
      </trkpt>
      <trkpt lat="51.171780293807387" lon="6.137491688132286">
        <ele>58.299999999999997</ele>
        <time>2015-11-08T09:58:47Z</time>
      </trkpt>
      <trkpt lat="51.171868303790689" lon="6.13737266510725">
        <ele>60.219999999999999</ele>
        <time>2015-11-08T09:58:54Z</time>
      </trkpt>
      <trkpt lat="51.171882469207048" lon="6.137324720621109">
        <ele>60.219999999999999</ele>
        <time>2015-11-08T09:58:55Z</time>
      </trkpt>
      <trkpt lat="51.171894790604711" lon="6.137282894924283">
        <ele>60.219999999999999</ele>
        <time>2015-11-08T09:58:56Z</time>
      </trkpt>
      <trkpt lat="51.171907782554626" lon="6.137186335399747">
        <ele>60.700000000000003</ele>
        <time>2015-11-08T09:59:00Z</time>
      </trkpt>
      <trkpt lat="51.17191331461072" lon="6.137159848585725">
        <ele>60.219999999999999</ele>
        <time>2015-11-08T09:59:01Z</time>
      </trkpt>
      <trkpt lat="51.171917421743274" lon="6.137137971818447">
        <ele>60.219999999999999</ele>
        <time>2015-11-08T09:59:02Z</time>
      </trkpt>
      <trkpt lat="51.17192018777132" lon="6.137117017060518">
        <ele>60.219999999999999</ele>
        <time>2015-11-08T09:59:03Z</time>
      </trkpt>
      <trkpt lat="51.171925971284509" lon="6.137096649035811">
        <ele>60.219999999999999</ele>
        <time>2015-11-08T09:59:04Z</time>
      </trkpt>
      <trkpt lat="51.171982800588012" lon="6.136787440627813">
        <ele>61.18</ele>
        <time>2015-11-08T09:59:19Z</time>
      </trkpt>
      <trkpt lat="51.172019261866808" lon="6.136532127857208">
        <ele>60.700000000000003</ele>
        <time>2015-11-08T09:59:33Z</time>
      </trkpt>
      <trkpt lat="51.172017334029078" lon="6.136509077623487">
        <ele>61.18</ele>
        <time>2015-11-08T09:59:34Z</time>
      </trkpt>
      <trkpt lat="51.172018339857459" lon="6.13648627884686">
        <ele>61.18</ele>
        <time>2015-11-08T09:59:35Z</time>
      </trkpt>
      <trkpt lat="51.172050694003701" lon="6.136229541152716">
        <ele>61.659999999999997</ele>
        <time>2015-11-08T09:59:48Z</time>
      </trkpt>
      <trkpt lat="51.17202035151422" lon="6.136022424325347">
        <ele>61.659999999999997</ele>
        <time>2015-11-08T09:59:56Z</time>
      </trkpt>
      <trkpt lat="51.17202035151422" lon="6.13599811680615">
        <ele>61.659999999999997</ele>
        <time>2015-11-08T09:59:57Z</time>
      </trkpt>
      <trkpt lat="51.17201498709619" lon="6.135882195085287">
        <ele>62.140000000000001</ele>
        <time>2015-11-08T10:00:02Z</time>
      </trkpt>
      <trkpt lat="51.172010125592351" lon="6.135853361338377">
        <ele>62.140000000000001</ele>
        <time>2015-11-08T10:00:03Z</time>
      </trkpt>
      <trkpt lat="51.172005096450448" lon="6.135827209800482">
        <ele>62.140000000000001</ele>
        <time>2015-11-08T10:00:04Z</time>
      </trkpt>
      <trkpt lat="51.172002833336592" lon="6.135803908109665">
        <ele>62.140000000000001</ele>
        <time>2015-11-08T10:00:05Z</time>
      </trkpt>
      <trkpt lat="51.171997133642435" lon="6.1357675306499">
        <ele>62.140000000000001</ele>
        <time>2015-11-08T10:00:07Z</time>
      </trkpt>
      <trkpt lat="51.171993529424071" lon="6.135745318606496">
        <ele>62.140000000000001</ele>
        <time>2015-11-08T10:00:08Z</time>
      </trkpt>
      <trkpt lat="51.171993110328913" lon="6.135726543143392">
        <ele>62.619999999999997</ele>
        <time>2015-11-08T10:00:09Z</time>
      </trkpt>
      <trkpt lat="51.171992775052786" lon="6.135704917833209">
        <ele>62.619999999999997</ele>
        <time>2015-11-08T10:00:10Z</time>
      </trkpt>
      <trkpt lat="51.171993110328913" lon="6.135682119056583">
        <ele>62.619999999999997</ele>
        <time>2015-11-08T10:00:11Z</time>
      </trkpt>
      <trkpt lat="51.171991936862469" lon="6.135657727718353">
        <ele>62.619999999999997</ele>
        <time>2015-11-08T10:00:12Z</time>
      </trkpt>
      <trkpt lat="51.171987075358629" lon="6.135634174570441">
        <ele>62.619999999999997</ele>
        <time>2015-11-08T10:00:13Z</time>
      </trkpt>
      <trkpt lat="51.171980956569314" lon="6.135612549260259">
        <ele>62.619999999999997</ele>
        <time>2015-11-08T10:00:14Z</time>
      </trkpt>
      <trkpt lat="51.171836955472827" lon="6.135223209857941">
        <ele>63.100000000000001</ele>
        <time>2015-11-08T10:00:30Z</time>
      </trkpt>
      <trkpt lat="51.171715166419744" lon="6.135026402771473">
        <ele>63.100000000000001</ele>
        <time>2015-11-08T10:00:43Z</time>
      </trkpt>
      <trkpt lat="51.171613829210401" lon="6.134815597906709">
        <ele>63.579999999999998</ele>
        <time>2015-11-08T10:00:56Z</time>
      </trkpt>
      <trkpt lat="51.171502936631441" lon="6.134511586278677">
        <ele>59.259999999999998</ele>
        <time>2015-11-08T10:01:11Z</time>
      </trkpt>
      <trkpt lat="51.171491872519255" lon="6.13448828458786">
        <ele>63.579999999999998</ele>
        <time>2015-11-08T10:01:12Z</time>
      </trkpt>
      <trkpt lat="51.171453651040792" lon="6.134300110861659">
        <ele>63.579999999999998</ele>
        <time>2015-11-08T10:01:20Z</time>
      </trkpt>
      <trkpt lat="51.171443592756987" lon="6.134284855797887">
        <ele>63.579999999999998</ele>
        <time>2015-11-08T10:01:21Z</time>
      </trkpt>
      <trkpt lat="51.171433618292212" lon="6.134269181638956">
        <ele>63.579999999999998</ele>
        <time>2015-11-08T10:01:22Z</time>
      </trkpt>
      <trkpt lat="51.171397157013416" lon="6.13425032235682">
        <ele>63.579999999999998</ele>
        <time>2015-11-08T10:01:25Z</time>
      </trkpt>
      <trkpt lat="51.171493381261826" lon="6.134176980704069">
        <ele>66.469999999999999</ele>
        <time>2015-11-08T10:08:43Z</time>
      </trkpt>
      <trkpt lat="51.171742575243115" lon="6.13407539203763">
        <ele>65.989999999999995</ele>
        <time>2015-11-08T10:08:58Z</time>
      </trkpt>
      <trkpt lat="51.171957571059465" lon="6.133998027071357">
        <ele>66.469999999999999</ele>
        <time>2015-11-08T10:09:12Z</time>
      </trkpt>
      <trkpt lat="51.17223291657865" lon="6.133904317393899">
        <ele>65.510000000000005</ele>
        <time>2015-11-08T10:09:28Z</time>
      </trkpt>
      <trkpt lat="51.17248747497797" lon="6.133792586624622">
        <ele>66.469999999999999</ele>
        <time>2015-11-08T10:09:46Z</time>
      </trkpt>
      <trkpt lat="51.172564337030053" lon="6.133726788684726">
        <ele>65.510000000000005</ele>
        <time>2015-11-08T10:09:51Z</time>
      </trkpt>
      <trkpt lat="51.1725221760571" lon="6.133379777893424">
        <ele>64.069999999999993</ele>
        <time>2015-11-08T10:10:06Z</time>
      </trkpt>
      <trkpt lat="51.172507759183645" lon="6.133241476491094">
        <ele>63.579999999999998</ele>
        <time>2015-11-08T10:10:12Z</time>
      </trkpt>
      <trkpt lat="51.172510022297502" lon="6.133215995505452">
        <ele>63.100000000000001</ele>
        <time>2015-11-08T10:10:13Z</time>
      </trkpt>
      <trkpt lat="51.172514716163278" lon="6.13314064219594">
        <ele>63.100000000000001</ele>
        <time>2015-11-08T10:10:16Z</time>
      </trkpt>
      <trkpt lat="51.172512955963612" lon="6.133117340505123">
        <ele>63.100000000000001</ele>
        <time>2015-11-08T10:10:17Z</time>
      </trkpt>
      <trkpt lat="51.172476746141911" lon="6.132931932806969">
        <ele>62.619999999999997</ele>
        <time>2015-11-08T10:10:22Z</time>
      </trkpt>
      <trkpt lat="51.172465682029724" lon="6.132857417687774">
        <ele>62.140000000000001</ele>
        <time>2015-11-08T10:10:23Z</time>
      </trkpt>
      <trkpt lat="51.172433411702514" lon="6.132625909522176">
        <ele>62.619999999999997</ele>
        <time>2015-11-08T10:10:26Z</time>
      </trkpt>
      <trkpt lat="51.172316484153271" lon="6.131892409175634">
        <ele>64.069999999999993</ele>
        <time>2015-11-08T10:10:35Z</time>
      </trkpt>
      <trkpt lat="51.172173824161291" lon="6.131131500005722">
        <ele>65.030000000000001</ele>
        <time>2015-11-08T10:10:44Z</time>
      </trkpt>
      <trkpt lat="51.172164939343929" lon="6.13104441203177">
        <ele>65.510000000000005</ele>
        <time>2015-11-08T10:10:45Z</time>
      </trkpt>
      <trkpt lat="51.172158736735582" lon="6.130954390391707">
        <ele>65.030000000000001</ele>
        <time>2015-11-08T10:10:46Z</time>
      </trkpt>
      <trkpt lat="51.172139625996351" lon="6.130773006007075">
        <ele>65.030000000000001</ele>
        <time>2015-11-08T10:10:48Z</time>
      </trkpt>
      <trkpt lat="51.172124119475484" lon="6.130688600242138">
        <ele>65.510000000000005</ele>
        <time>2015-11-08T10:10:49Z</time>
      </trkpt>
      <trkpt lat="51.172110959887505" lon="6.130605032667518">
        <ele>65.510000000000005</ele>
        <time>2015-11-08T10:10:50Z</time>
      </trkpt>
      <trkpt lat="51.172042479738593" lon="6.130098681896925">
        <ele>65.030000000000001</ele>
        <time>2015-11-08T10:10:56Z</time>
      </trkpt>
      <trkpt lat="51.171944495290518" lon="6.12933567725122">
        <ele>66.950000000000003</ele>
        <time>2015-11-08T10:11:05Z</time>
      </trkpt>
      <trkpt lat="51.171875596046448" lon="6.128961592912674">
        <ele>66.950000000000003</ele>
        <time>2015-11-08T10:11:10Z</time>
      </trkpt>
      <trkpt lat="51.171828154474497" lon="6.128740143030882">
        <ele>66.950000000000003</ele>
        <time>2015-11-08T10:11:13Z</time>
      </trkpt>
      <trkpt lat="51.171792279928923" lon="6.128516178578138">
        <ele>67.430000000000007</ele>
        <time>2015-11-08T10:11:16Z</time>
      </trkpt>
      <trkpt lat="51.17177945561707" lon="6.128438394516707">
        <ele>67.430000000000007</ele>
        <time>2015-11-08T10:11:17Z</time>
      </trkpt>
      <trkpt lat="51.171767553314567" lon="6.128264302387834">
        <ele>67.430000000000007</ele>
        <time>2015-11-08T10:11:19Z</time>
      </trkpt>
      <trkpt lat="51.171760596334934" lon="6.128182159736753">
        <ele>66.950000000000003</ele>
        <time>2015-11-08T10:11:20Z</time>
      </trkpt>
      <trkpt lat="51.171678202226758" lon="6.12756097689271">
        <ele>66.469999999999999</ele>
        <time>2015-11-08T10:11:28Z</time>
      </trkpt>
      <trkpt lat="51.17162162438035" lon="6.127203153446317">
        <ele>66.950000000000003</ele>
        <time>2015-11-08T10:11:32Z</time>
      </trkpt>
      <trkpt lat="51.171603854745626" lon="6.127118412405253">
        <ele>66.950000000000003</ele>
        <time>2015-11-08T10:11:33Z</time>
      </trkpt>
      <trkpt lat="51.171591868624091" lon="6.127028474584222">
        <ele>66.469999999999999</ele>
        <time>2015-11-08T10:11:34Z</time>
      </trkpt>
      <trkpt lat="51.1715776193887" lon="6.126935938373208">
        <ele>65.989999999999995</ele>
        <time>2015-11-08T10:11:35Z</time>
      </trkpt>
      <trkpt lat="51.171560268849134" lon="6.126841474324465">
        <ele>66.469999999999999</ele>
        <time>2015-11-08T10:11:36Z</time>
      </trkpt>
      <trkpt lat="51.171546606346965" lon="6.126751285046339">
        <ele>66.469999999999999</ele>
        <time>2015-11-08T10:11:37Z</time>
      </trkpt>
      <trkpt lat="51.171497739851475" lon="6.126399412751198">
        <ele>66.469999999999999</ele>
        <time>2015-11-08T10:11:41Z</time>
      </trkpt>
      <trkpt lat="51.171487346291542" lon="6.12631157040596">
        <ele>65.989999999999995</ele>
        <time>2015-11-08T10:11:42Z</time>
      </trkpt>
      <trkpt lat="51.171471839770675" lon="6.126222973689437">
        <ele>66.469999999999999</ele>
        <time>2015-11-08T10:11:43Z</time>
      </trkpt>
      <trkpt lat="51.171456165611744" lon="6.126132197678089">
        <ele>66.950000000000003</ele>
        <time>2015-11-08T10:11:44Z</time>
      </trkpt>
      <trkpt lat="51.171441664919257" lon="6.126043517142534">
        <ele>65.989999999999995</ele>
        <time>2015-11-08T10:11:45Z</time>
      </trkpt>
      <trkpt lat="51.17134359665215" lon="6.125370031222701">
        <ele>65.989999999999995</ele>
        <time>2015-11-08T10:11:52Z</time>
      </trkpt>
      <trkpt lat="51.171313757076859" lon="6.125103738158941">
        <ele>67.430000000000007</ele>
        <time>2015-11-08T10:11:55Z</time>
      </trkpt>
      <trkpt lat="51.171307303011417" lon="6.125017823651433">
        <ele>66.469999999999999</ele>
        <time>2015-11-08T10:11:56Z</time>
      </trkpt>
      <trkpt lat="51.171298669651151" lon="6.124934507533908">
        <ele>65.510000000000005</ele>
        <time>2015-11-08T10:11:57Z</time>
      </trkpt>
      <trkpt lat="51.171273607760668" lon="6.124764606356621">
        <ele>64.549999999999997</ele>
        <time>2015-11-08T10:11:59Z</time>
      </trkpt>
      <trkpt lat="51.171239241957664" lon="6.124590262770653">
        <ele>65.030000000000001</ele>
        <time>2015-11-08T10:12:01Z</time>
      </trkpt>
      <trkpt lat="51.171154165640473" lon="6.123966062441468">
        <ele>65.030000000000001</ele>
        <time>2015-11-08T10:12:08Z</time>
      </trkpt>
      <trkpt lat="51.17106313817203" lon="6.123370360583067">
        <ele>65.510000000000005</ele>
        <time>2015-11-08T10:12:19Z</time>
      </trkpt>
      <trkpt lat="51.171031203120947" lon="6.123245805501938">
        <ele>65.510000000000005</ele>
        <time>2015-11-08T10:12:24Z</time>
      </trkpt>
      <trkpt lat="51.170849902555346" lon="6.12316383048892">
        <ele>64.549999999999997</ele>
        <time>2015-11-08T10:12:38Z</time>
      </trkpt>
      <trkpt lat="51.170642115175724" lon="6.123103648424149">
        <ele>62.140000000000001</ele>
        <time>2015-11-08T10:12:52Z</time>
      </trkpt>
      <trkpt lat="51.170422341674566" lon="6.122975824400783">
        <ele>62.140000000000001</ele>
        <time>2015-11-08T10:13:06Z</time>
      </trkpt>
      <trkpt lat="51.170241041108966" lon="6.122853448614478">
        <ele>62.619999999999997</ele>
        <time>2015-11-08T10:13:17Z</time>
      </trkpt>
      <trkpt lat="51.169991595670581" lon="6.122784046456218">
        <ele>63.579999999999998</ele>
        <time>2015-11-08T10:13:34Z</time>
      </trkpt>
      <trkpt lat="51.169757489115" lon="6.122642224654555">
        <ele>63.579999999999998</ele>
        <time>2015-11-08T10:13:49Z</time>
      </trkpt>
      <trkpt lat="51.169742904603481" lon="6.12262143753469">
        <ele>63.579999999999998</ele>
        <time>2015-11-08T10:13:51Z</time>
      </trkpt>
      <trkpt lat="51.169719435274601" lon="6.12258187495172">
        <ele>63.100000000000001</ele>
        <time>2015-11-08T10:13:54Z</time>
      </trkpt>
      <trkpt lat="51.16968129761517" lon="6.122544324025512">
        <ele>63.579999999999998</ele>
        <time>2015-11-08T10:13:57Z</time>
      </trkpt>
      <trkpt lat="51.169627653434873" lon="6.122514652088285">
        <ele>63.579999999999998</ele>
        <time>2015-11-08T10:14:02Z</time>
      </trkpt>
      <trkpt lat="51.169530255720019" lon="6.122406357899308">
        <ele>63.579999999999998</ele>
        <time>2015-11-08T10:14:09Z</time>
      </trkpt>
      <trkpt lat="51.169388182461262" lon="6.122241318225861">
        <ele>63.579999999999998</ele>
        <time>2015-11-08T10:14:18Z</time>
      </trkpt>
      <trkpt lat="51.169208306819201" lon="6.122043337672949">
        <ele>63.100000000000001</ele>
        <time>2015-11-08T10:14:32Z</time>
      </trkpt>
      <trkpt lat="51.169006051495671" lon="6.121737649664283">
        <ele>62.140000000000001</ele>
        <time>2015-11-08T10:14:52Z</time>
      </trkpt>
      <trkpt lat="51.168846292421222" lon="6.121488623321056">
        <ele>60.219999999999999</ele>
        <time>2015-11-08T10:15:07Z</time>
      </trkpt>
      <trkpt lat="51.168718803673983" lon="6.121205063536763">
        <ele>58.780000000000001</ele>
        <time>2015-11-08T10:15:21Z</time>
      </trkpt>
      <trkpt lat="51.168673122301698" lon="6.121099451556802">
        <ele>58.299999999999997</ele>
        <time>2015-11-08T10:15:26Z</time>
      </trkpt>
      <trkpt lat="51.168586704879999" lon="6.120826536789537">
        <ele>56.369999999999997</ele>
        <time>2015-11-08T10:15:40Z</time>
      </trkpt>
      <trkpt lat="51.168519062921405" lon="6.120672142133117">
        <ele>55.409999999999997</ele>
        <time>2015-11-08T10:15:49Z</time>
      </trkpt>
      <trkpt lat="51.168380258604884" lon="6.12036301754415">
        <ele>52.530000000000001</ele>
        <time>2015-11-08T10:16:04Z</time>
      </trkpt>
      <trkpt lat="51.168308174237609" lon="6.119993459433317">
        <ele>51.57</ele>
        <time>2015-11-08T10:16:19Z</time>
      </trkpt>
      <trkpt lat="51.168209686875343" lon="6.11985431984067">
        <ele>51.090000000000003</ele>
        <time>2015-11-08T10:16:34Z</time>
      </trkpt>
      <trkpt lat="51.16818169131875" lon="6.119806710630655">
        <ele>51.090000000000003</ele>
        <time>2015-11-08T10:16:38Z</time>
      </trkpt>
      <trkpt lat="51.168068284168839" lon="6.119715347886086">
        <ele>50.130000000000003</ele>
        <time>2015-11-08T10:16:46Z</time>
      </trkpt>
      <trkpt lat="51.168016819283366" lon="6.11968919634819">
        <ele>50.609999999999999</ele>
        <time>2015-11-08T10:16:50Z</time>
      </trkpt>
      <trkpt lat="51.167959738522768" lon="6.119657177478075">
        <ele>50.609999999999999</ele>
        <time>2015-11-08T10:16:55Z</time>
      </trkpt>
      <trkpt lat="51.167909530922771" lon="6.119641084223986">
        <ele>47.240000000000002</ele>
        <time>2015-11-08T10:16:59Z</time>
      </trkpt>
      <trkpt lat="51.167895700782537" lon="6.119635133072734">
        <ele>53.009999999999998</ele>
        <time>2015-11-08T10:17:00Z</time>
      </trkpt>
      <trkpt lat="51.167872147634625" lon="6.119626080617309">
        <ele>48.68</ele>
        <time>2015-11-08T10:17:02Z</time>
      </trkpt>
      <trkpt lat="51.167862676084042" lon="6.119623146951199">
        <ele>54.93</ele>
        <time>2015-11-08T10:17:03Z</time>
      </trkpt>
      <trkpt lat="51.167851276695728" lon="6.119618955999613">
        <ele>51.57</ele>
        <time>2015-11-08T10:17:04Z</time>
      </trkpt>
      <trkpt lat="51.167599903419614" lon="6.119637480005622">
        <ele>50.130000000000003</ele>
        <time>2015-11-08T10:17:18Z</time>
      </trkpt>
      <trkpt lat="51.167351715266705" lon="6.119724987074733">
        <ele>50.130000000000003</ele>
        <time>2015-11-08T10:17:31Z</time>
      </trkpt>
      <trkpt lat="51.167169995605946" lon="6.119824228808284">
        <ele>48.68</ele>
        <time>2015-11-08T10:17:43Z</time>
      </trkpt>
      <trkpt lat="51.167077040299773" lon="6.119887679815292">
        <ele>48.68</ele>
        <time>2015-11-08T10:17:49Z</time>
      </trkpt>
      <trkpt lat="51.166937062516809" lon="6.119972337037325">
        <ele>48.68</ele>
        <time>2015-11-08T10:18:00Z</time>
      </trkpt>
      <trkpt lat="51.166899595409632" lon="6.120041823014617">
        <ele>48.68</ele>
        <time>2015-11-08T10:18:04Z</time>
      </trkpt>
      <trkpt lat="51.166780237108469" lon="6.120183728635311">
        <ele>49.159999999999997</ele>
        <time>2015-11-08T10:18:14Z</time>
      </trkpt>
      <trkpt lat="51.166703291237354" lon="6.120344242081046">
        <ele>49.159999999999997</ele>
        <time>2015-11-08T10:18:20Z</time>
      </trkpt>
      <trkpt lat="51.16665274836123" lon="6.120444908738136">
        <ele>49.649999999999999</ele>
        <time>2015-11-08T10:18:25Z</time>
      </trkpt>
      <trkpt lat="51.16662735119462" lon="6.120544066652656">
        <ele>49.649999999999999</ele>
        <time>2015-11-08T10:18:30Z</time>
      </trkpt>
      <trkpt lat="51.166592985391617" lon="6.120834164321423">
        <ele>49.649999999999999</ele>
        <time>2015-11-08T10:18:43Z</time>
      </trkpt>
      <trkpt lat="51.166596170514822" lon="6.120958970859647">
        <ele>50.130000000000003</ele>
        <time>2015-11-08T10:18:48Z</time>
      </trkpt>
      <trkpt lat="51.166547639295459" lon="6.121088722720742">
        <ele>50.609999999999999</ele>
        <time>2015-11-08T10:18:53Z</time>
      </trkpt>
      <trkpt lat="51.166428700089455" lon="6.12140815705061">
        <ele>50.609999999999999</ele>
        <time>2015-11-08T10:19:05Z</time>
      </trkpt>
      <trkpt lat="51.166245304048061" lon="6.1215865239501">
        <ele>50.609999999999999</ele>
        <time>2015-11-08T10:19:18Z</time>
      </trkpt>
      <trkpt lat="51.166160730645061" lon="6.121644359081984">
        <ele>50.609999999999999</ele>
        <time>2015-11-08T10:19:23Z</time>
      </trkpt>
      <trkpt lat="51.166063584387302" lon="6.121823145076633">
        <ele>51.090000000000003</ele>
        <time>2015-11-08T10:19:31Z</time>
      </trkpt>
      <trkpt lat="51.165912039577961" lon="6.12214894965291">
        <ele>51.57</ele>
        <time>2015-11-08T10:19:46Z</time>
      </trkpt>
      <trkpt lat="51.165693858638406" lon="6.122269732877612">
        <ele>51.57</ele>
        <time>2015-11-08T10:19:58Z</time>
      </trkpt>
      <trkpt lat="51.165463188663125" lon="6.122318431735039">
        <ele>52.049999999999997</ele>
        <time>2015-11-08T10:20:11Z</time>
      </trkpt>
      <trkpt lat="51.165257664397359" lon="6.1223947070539">
        <ele>51.090000000000003</ele>
        <time>2015-11-08T10:20:24Z</time>
      </trkpt>
      <trkpt lat="51.164938230067492" lon="6.122502498328686">
        <ele>51.090000000000003</ele>
        <time>2015-11-08T10:20:42Z</time>
      </trkpt>
      <trkpt lat="51.164819458499551" lon="6.122514484450221">
        <ele>51.090000000000003</ele>
        <time>2015-11-08T10:20:49Z</time>
      </trkpt>
      <trkpt lat="51.16476564668119" lon="6.122539127245545">
        <ele>51.090000000000003</ele>
        <time>2015-11-08T10:20:53Z</time>
      </trkpt>
      <trkpt lat="51.164500107988715" lon="6.122515825554729">
        <ele>50.609999999999999</ele>
        <time>2015-11-08T10:21:09Z</time>
      </trkpt>
      <trkpt lat="51.164235156029463" lon="6.122361095622182">
        <ele>50.130000000000003</ele>
        <time>2015-11-08T10:21:25Z</time>
      </trkpt>
      <trkpt lat="51.163944387808442" lon="6.122222878038883">
        <ele>50.130000000000003</ele>
        <time>2015-11-08T10:21:43Z</time>
      </trkpt>
      <trkpt lat="51.163679268211126" lon="6.122074099257588">
        <ele>50.130000000000003</ele>
        <time>2015-11-08T10:22:01Z</time>
      </trkpt>
      <trkpt lat="51.163440216332674" lon="6.1219940520823">
        <ele>50.130000000000003</ele>
        <time>2015-11-08T10:22:17Z</time>
      </trkpt>
      <trkpt lat="51.163257574662566" lon="6.121971756219864">
        <ele>50.130000000000003</ele>
        <time>2015-11-08T10:22:30Z</time>
      </trkpt>
      <trkpt lat="51.163225807249546" lon="6.12195298075676">
        <ele>50.130000000000003</ele>
        <time>2015-11-08T10:22:33Z</time>
      </trkpt>
      <trkpt lat="51.163089852780104" lon="6.12186212092638">
        <ele>49.159999999999997</ele>
        <time>2015-11-08T10:22:40Z</time>
      </trkpt>
      <trkpt lat="51.163024893030524" lon="6.121885422617197">
        <ele>49.649999999999999</ele>
        <time>2015-11-08T10:22:44Z</time>
      </trkpt>
      <trkpt lat="51.162817273288965" lon="6.121955243870616">
        <ele>49.159999999999997</ele>
        <time>2015-11-08T10:22:58Z</time>
      </trkpt>
      <trkpt lat="51.162645863369107" lon="6.122023975476623">
        <ele>49.649999999999999</ele>
        <time>2015-11-08T10:23:10Z</time>
      </trkpt>
      <trkpt lat="51.162402033805847" lon="6.122124390676618">
        <ele>49.649999999999999</ele>
        <time>2015-11-08T10:23:25Z</time>
      </trkpt>
      <trkpt lat="51.162124089896679" lon="6.122119193896651">
        <ele>48.68</ele>
        <time>2015-11-08T10:23:39Z</time>
      </trkpt>
      <trkpt lat="51.162085868418217" lon="6.122132604941726">
        <ele>48.68</ele>
        <time>2015-11-08T10:23:42Z</time>
      </trkpt>
      <trkpt lat="51.162019483745098" lon="6.122153056785464">
        <ele>48.68</ele>
        <time>2015-11-08T10:23:46Z</time>
      </trkpt>
      <trkpt lat="51.161787891760468" lon="6.122233774513006">
        <ele>50.609999999999999</ele>
        <time>2015-11-08T10:24:02Z</time>
      </trkpt>
      <trkpt lat="51.161768445745111" lon="6.12222807481885">
        <ele>50.609999999999999</ele>
        <time>2015-11-08T10:24:04Z</time>
      </trkpt>
      <trkpt lat="51.161707425490022" lon="6.122263027355075">
        <ele>50.130000000000003</ele>
        <time>2015-11-08T10:24:09Z</time>
      </trkpt>
      <trkpt lat="51.161539116874337" lon="6.122331088408828">
        <ele>50.609999999999999</ele>
        <time>2015-11-08T10:24:20Z</time>
      </trkpt>
      <trkpt lat="51.161333173513412" lon="6.122407699003816">
        <ele>51.090000000000003</ele>
        <time>2015-11-08T10:24:32Z</time>
      </trkpt>
      <trkpt lat="51.161209540441632" lon="6.122395880520344">
        <ele>50.609999999999999</ele>
        <time>2015-11-08T10:24:40Z</time>
      </trkpt>
      <trkpt lat="51.161152627319098" lon="6.12243477255106">
        <ele>49.649999999999999</ele>
        <time>2015-11-08T10:24:45Z</time>
      </trkpt>
      <trkpt lat="51.161105772480369" lon="6.122454721480608">
        <ele>49.159999999999997</ele>
        <time>2015-11-08T10:24:48Z</time>
      </trkpt>
      <trkpt lat="51.16084392182529" lon="6.122514568269253">
        <ele>47.719999999999999</ele>
        <time>2015-11-08T10:25:03Z</time>
      </trkpt>
      <trkpt lat="51.160747949033976" lon="6.122510712593794">
        <ele>48.200000000000003</ele>
        <time>2015-11-08T10:25:08Z</time>
      </trkpt>
      <trkpt lat="51.160722216591239" lon="6.122748423367739">
        <ele>47.719999999999999</ele>
        <time>2015-11-08T10:25:19Z</time>
      </trkpt>
      <trkpt lat="51.160748787224293" lon="6.122874319553375">
        <ele>47.240000000000002</ele>
        <time>2015-11-08T10:25:26Z</time>
      </trkpt>
      <trkpt lat="51.160781560465693" lon="6.123031480237842">
        <ele>46.759999999999998</ele>
        <time>2015-11-08T10:25:33Z</time>
      </trkpt>
      <trkpt lat="51.160823469981551" lon="6.123376730829477">
        <ele>47.240000000000002</ele>
        <time>2015-11-08T10:25:47Z</time>
      </trkpt>
      <trkpt lat="51.160843251273036" lon="6.123727094382048">
        <ele>46.759999999999998</ele>
        <time>2015-11-08T10:25:57Z</time>
      </trkpt>
      <trkpt lat="51.160853477194905" lon="6.123823067173362">
        <ele>46.759999999999998</ele>
        <time>2015-11-08T10:26:00Z</time>
      </trkpt>
      <trkpt lat="51.160873174667358" lon="6.124037895351648">
        <ele>47.240000000000002</ele>
        <time>2015-11-08T10:26:08Z</time>
      </trkpt>
      <trkpt lat="51.160886501893401" lon="6.124246269464493">
        <ele>47.719999999999999</ele>
        <time>2015-11-08T10:26:16Z</time>
      </trkpt>
      <trkpt lat="51.160879377275705" lon="6.124597303569317">
        <ele>48.200000000000003</ele>
        <time>2015-11-08T10:26:30Z</time>
      </trkpt>
      <trkpt lat="51.160868229344487" lon="6.1249487567693">
        <ele>48.200000000000003</ele>
        <time>2015-11-08T10:26:44Z</time>
      </trkpt>
      <trkpt lat="51.160611156374216" lon="6.125022517517209">
        <ele>47.719999999999999</ele>
        <time>2015-11-08T10:27:00Z</time>
      </trkpt>
      <trkpt lat="51.160388868302107" lon="6.12509585916996">
        <ele>46.759999999999998</ele>
        <time>2015-11-08T10:27:13Z</time>
      </trkpt>
      <trkpt lat="51.160116959363222" lon="6.125189485028386">
        <ele>45.799999999999997</ele>
        <time>2015-11-08T10:27:22Z</time>
      </trkpt>
      <trkpt lat="51.159738264977932" lon="6.125262659043074">
        <ele>45.799999999999997</ele>
        <time>2015-11-08T10:27:34Z</time>
      </trkpt>
      <trkpt lat="51.159324701875448" lon="6.125289732590318">
        <ele>45.799999999999997</ele>
        <time>2015-11-08T10:27:47Z</time>
      </trkpt>
      <trkpt lat="51.159017505124211" lon="6.125205913558602">
        <ele>45.799999999999997</ele>
        <time>2015-11-08T10:27:56Z</time>
      </trkpt>
      <trkpt lat="51.158818351104856" lon="6.125069707632065">
        <ele>44.840000000000003</ele>
        <time>2015-11-08T10:28:02Z</time>
      </trkpt>
      <trkpt lat="51.158781638368964" lon="6.125027211382985">
        <ele>44.840000000000003</ele>
        <time>2015-11-08T10:28:03Z</time>
      </trkpt>
      <trkpt lat="51.158677702769637" lon="6.124909529462457">
        <ele>44.840000000000003</ele>
        <time>2015-11-08T10:28:06Z</time>
      </trkpt>
      <trkpt lat="51.158642582595348" lon="6.124874660745263">
        <ele>45.32</ele>
        <time>2015-11-08T10:28:07Z</time>
      </trkpt>
      <trkpt lat="51.158396741375327" lon="6.124639548361301">
        <ele>44.359999999999999</ele>
        <time>2015-11-08T10:28:15Z</time>
      </trkpt>
      <trkpt lat="51.158095076680183" lon="6.124324388802052">
        <ele>44.359999999999999</ele>
        <time>2015-11-08T10:28:25Z</time>
      </trkpt>
      <trkpt lat="51.15789944306016" lon="6.124087600037456">
        <ele>44.359999999999999</ele>
        <time>2015-11-08T10:28:32Z</time>
      </trkpt>
      <trkpt lat="51.157875051721931" lon="6.124080726876855">
        <ele>44.359999999999999</ele>
        <time>2015-11-08T10:28:33Z</time>
      </trkpt>
      <trkpt lat="51.157848984003067" lon="6.124089695513248">
        <ele>44.359999999999999</ele>
        <time>2015-11-08T10:28:34Z</time>
      </trkpt>
      <trkpt lat="51.157823503017426" lon="6.124108303338289">
        <ele>44.359999999999999</ele>
        <time>2015-11-08T10:28:35Z</time>
      </trkpt>
      <trkpt lat="51.157795591279864" lon="6.124120121821761">
        <ele>44.359999999999999</ele>
        <time>2015-11-08T10:28:36Z</time>
      </trkpt>
      <trkpt lat="51.157769523561001" lon="6.12413763999939">
        <ele>44.359999999999999</ele>
        <time>2015-11-08T10:28:37Z</time>
      </trkpt>
      <trkpt lat="51.157443886622787" lon="6.124409213662148">
        <ele>44.359999999999999</ele>
        <time>2015-11-08T10:28:48Z</time>
      </trkpt>
      <trkpt lat="51.157143730670214" lon="6.124655138701201">
        <ele>45.32</ele>
        <time>2015-11-08T10:28:58Z</time>
      </trkpt>
      <trkpt lat="51.157039543613791" lon="6.124753374606371">
        <ele>46.759999999999998</ele>
        <time>2015-11-08T10:29:02Z</time>
      </trkpt>
      <trkpt lat="51.156847681850195" lon="6.124941045418382">
        <ele>47.719999999999999</ele>
        <time>2015-11-08T10:29:10Z</time>
      </trkpt>
      <trkpt lat="51.156821278855205" lon="6.124962000176311">
        <ele>48.200000000000003</ele>
        <time>2015-11-08T10:29:11Z</time>
      </trkpt>
      <trkpt lat="51.156799653545022" lon="6.124987564980984">
        <ele>48.68</ele>
        <time>2015-11-08T10:29:12Z</time>
      </trkpt>
      <trkpt lat="51.156775681301951" lon="6.125016985461116">
        <ele>48.68</ele>
        <time>2015-11-08T10:29:13Z</time>
      </trkpt>
      <trkpt lat="51.156747685745358" lon="6.125041879713535">
        <ele>48.68</ele>
        <time>2015-11-08T10:29:14Z</time>
      </trkpt>
      <trkpt lat="51.156436381861567" lon="6.125307753682137">
        <ele>48.68</ele>
        <time>2015-11-08T10:29:24Z</time>
      </trkpt>
      <trkpt lat="51.156231947243214" lon="6.125247990712524">
        <ele>48.200000000000003</ele>
        <time>2015-11-08T10:29:34Z</time>
      </trkpt>
      <trkpt lat="51.156215183436871" lon="6.125238016247749">
        <ele>48.200000000000003</ele>
        <time>2015-11-08T10:29:35Z</time>
      </trkpt>
      <trkpt lat="51.156203197315335" lon="6.125229801982641">
        <ele>47.719999999999999</ele>
        <time>2015-11-08T10:29:36Z</time>
      </trkpt>
      <trkpt lat="51.155979735776782" lon="6.125096194446087">
        <ele>47.719999999999999</ele>
        <time>2015-11-08T10:29:51Z</time>
      </trkpt>
      <trkpt lat="51.155938496813178" lon="6.125076580792666">
        <ele>48.200000000000003</ele>
        <time>2015-11-08T10:29:54Z</time>
      </trkpt>
      <trkpt lat="51.155821233987808" lon="6.124989576637745">
        <ele>47.719999999999999</ele>
        <time>2015-11-08T10:30:03Z</time>
      </trkpt>
      <trkpt lat="51.155804302543402" lon="6.124981949105859">
        <ele>47.719999999999999</ele>
        <time>2015-11-08T10:30:04Z</time>
      </trkpt>
      <trkpt lat="51.155654015019536" lon="6.12499519251287">
        <ele>48.200000000000003</ele>
        <time>2015-11-08T10:30:14Z</time>
      </trkpt>
      <trkpt lat="51.155637335032225" lon="6.124995108693838">
        <ele>47.719999999999999</ele>
        <time>2015-11-08T10:30:15Z</time>
      </trkpt>
      <trkpt lat="51.155511941760778" lon="6.124943811446428">
        <ele>47.240000000000002</ele>
        <time>2015-11-08T10:30:22Z</time>
      </trkpt>
      <trkpt lat="51.155490651726723" lon="6.124937944114208">
        <ele>47.719999999999999</ele>
        <time>2015-11-08T10:30:23Z</time>
      </trkpt>
      <trkpt lat="51.15547246299684" lon="6.124938866123557">
        <ele>47.719999999999999</ele>
        <time>2015-11-08T10:30:24Z</time>
      </trkpt>
      <trkpt lat="51.155455866828561" lon="6.124941883608699">
        <ele>47.719999999999999</ele>
        <time>2015-11-08T10:30:25Z</time>
      </trkpt>
      <trkpt lat="51.155438935384154" lon="6.124938447028399">
        <ele>47.719999999999999</ele>
        <time>2015-11-08T10:30:26Z</time>
      </trkpt>
      <trkpt lat="51.155422925949097" lon="6.124934926629067">
        <ele>47.719999999999999</ele>
        <time>2015-11-08T10:30:27Z</time>
      </trkpt>
      <trkpt lat="51.155406078323722" lon="6.124932998791337">
        <ele>47.719999999999999</ele>
        <time>2015-11-08T10:30:28Z</time>
      </trkpt>
      <trkpt lat="51.155387135222554" lon="6.124930987134576">
        <ele>47.719999999999999</ele>
        <time>2015-11-08T10:30:29Z</time>
      </trkpt>
      <trkpt lat="51.15536835975945" lon="6.124931992962956">
        <ele>47.719999999999999</ele>
        <time>2015-11-08T10:30:30Z</time>
      </trkpt>
      <trkpt lat="51.155349668115377" lon="6.124928891658783">
        <ele>47.240000000000002</ele>
        <time>2015-11-08T10:30:31Z</time>
      </trkpt>
      <trkpt lat="51.155334496870637" lon="6.124930987134576">
        <ele>47.719999999999999</ele>
        <time>2015-11-08T10:30:32Z</time>
      </trkpt>
      <trkpt lat="51.15531949326396" lon="6.124930148944259">
        <ele>47.240000000000002</ele>
        <time>2015-11-08T10:30:33Z</time>
      </trkpt>
      <trkpt lat="51.155223939567804" lon="6.124964011833072">
        <ele>47.240000000000002</ele>
        <time>2015-11-08T10:30:39Z</time>
      </trkpt>
      <trkpt lat="51.155204074457288" lon="6.124966107308865">
        <ele>47.240000000000002</ele>
        <time>2015-11-08T10:30:40Z</time>
      </trkpt>
      <trkpt lat="51.155002657324076" lon="6.124948086217046">
        <ele>47.240000000000002</ele>
        <time>2015-11-08T10:30:52Z</time>
      </trkpt>
      <trkpt lat="51.154870139434934" lon="6.12488865852356">
        <ele>47.719999999999999</ele>
        <time>2015-11-08T10:31:00Z</time>
      </trkpt>
      <trkpt lat="51.154854046180844" lon="6.124885138124228">
        <ele>47.719999999999999</ele>
        <time>2015-11-08T10:31:01Z</time>
      </trkpt>
      <trkpt lat="51.154836444184184" lon="6.124880276620388">
        <ele>47.719999999999999</ele>
        <time>2015-11-08T10:31:02Z</time>
      </trkpt>
      <trkpt lat="51.15471507422626" lon="6.124801067635417">
        <ele>47.719999999999999</ele>
        <time>2015-11-08T10:31:09Z</time>
      </trkpt>
      <trkpt lat="51.15469990298152" lon="6.124796038493514">
        <ele>48.200000000000003</ele>
        <time>2015-11-08T10:31:10Z</time>
      </trkpt>
      <trkpt lat="51.154472669586539" lon="6.124704843387008">
        <ele>47.240000000000002</ele>
        <time>2015-11-08T10:31:23Z</time>
      </trkpt>
      <trkpt lat="51.154235126450658" lon="6.1246776022017">
        <ele>45.799999999999997</ele>
        <time>2015-11-08T10:31:37Z</time>
      </trkpt>
      <trkpt lat="51.15402465686202" lon="6.124573834240437">
        <ele>45.799999999999997</ele>
        <time>2015-11-08T10:31:51Z</time>
      </trkpt>
      <trkpt lat="51.15376565605402" lon="6.124538043513894">
        <ele>45.32</ele>
        <time>2015-11-08T10:32:07Z</time>
      </trkpt>
      <trkpt lat="51.153688542544842" lon="6.124858316034079">
        <ele>45.799999999999997</ele>
        <time>2015-11-08T10:32:20Z</time>
      </trkpt>
      <trkpt lat="51.153626097366214" lon="6.125224689021707">
        <ele>44.840000000000003</ele>
        <time>2015-11-08T10:32:34Z</time>
      </trkpt>
      <trkpt lat="51.153595503419638" lon="6.125532053411007">
        <ele>43.880000000000003</ele>
        <time>2015-11-08T10:32:47Z</time>
      </trkpt>
      <trkpt lat="51.153593407943845" lon="6.125576812773943">
        <ele>43.880000000000003</ele>
        <time>2015-11-08T10:32:49Z</time>
      </trkpt>
      <trkpt lat="51.153588546440005" lon="6.125597264617682">
        <ele>43.880000000000003</ele>
        <time>2015-11-08T10:32:50Z</time>
      </trkpt>
      <trkpt lat="51.153582679107785" lon="6.12562308087945">
        <ele>43.880000000000003</ele>
        <time>2015-11-08T10:32:51Z</time>
      </trkpt>
      <trkpt lat="51.153576225042343" lon="6.125647639855743">
        <ele>43.880000000000003</ele>
        <time>2015-11-08T10:32:52Z</time>
      </trkpt>
      <trkpt lat="51.153512606397271" lon="6.12590454518795">
        <ele>43.399999999999999</ele>
        <time>2015-11-08T10:33:03Z</time>
      </trkpt>
      <trkpt lat="51.153445634990931" lon="6.126182489097118">
        <ele>43.399999999999999</ele>
        <time>2015-11-08T10:33:14Z</time>
      </trkpt>
      <trkpt lat="51.153438510373235" lon="6.126201516017318">
        <ele>42.439999999999998</ele>
        <time>2015-11-08T10:33:15Z</time>
      </trkpt>
      <trkpt lat="51.153432726860046" lon="6.126226158812642">
        <ele>43.399999999999999</ele>
        <time>2015-11-08T10:33:16Z</time>
      </trkpt>
      <trkpt lat="51.153377657756209" lon="6.126605104655027">
        <ele>43.880000000000003</ele>
        <time>2015-11-08T10:33:31Z</time>
      </trkpt>
      <trkpt lat="51.153370700776577" lon="6.126630082726479">
        <ele>43.880000000000003</ele>
        <time>2015-11-08T10:33:32Z</time>
      </trkpt>
      <trkpt lat="51.153366090729833" lon="6.126656653359532">
        <ele>43.880000000000003</ele>
        <time>2015-11-08T10:33:33Z</time>
      </trkpt>
      <trkpt lat="51.153359888121486" lon="6.126683810725808">
        <ele>43.399999999999999</ele>
        <time>2015-11-08T10:33:34Z</time>
      </trkpt>
      <trkpt lat="51.153288641944528" lon="6.127076921984553">
        <ele>44.359999999999999</ele>
        <time>2015-11-08T10:33:49Z</time>
      </trkpt>
      <trkpt lat="51.15317590534687" lon="6.127463830634952">
        <ele>42.920000000000002</ele>
        <time>2015-11-08T10:34:04Z</time>
      </trkpt>
      <trkpt lat="51.153101222589612" lon="6.127846464514732">
        <ele>43.880000000000003</ele>
        <time>2015-11-08T10:34:19Z</time>
      </trkpt>
      <trkpt lat="51.153025282546878" lon="6.128256339579821">
        <ele>43.880000000000003</ele>
        <time>2015-11-08T10:34:35Z</time>
      </trkpt>
      <trkpt lat="51.152951857075095" lon="6.128596225753427">
        <ele>44.359999999999999</ele>
        <time>2015-11-08T10:34:48Z</time>
      </trkpt>
      <trkpt lat="51.152882454916835" lon="6.128984140232205">
        <ele>45.32</ele>
        <time>2015-11-08T10:35:03Z</time>
      </trkpt>
      <trkpt lat="51.152886478230357" lon="6.12937381491065">
        <ele>44.840000000000003</ele>
        <time>2015-11-08T10:35:18Z</time>
      </trkpt>
      <trkpt lat="51.152808610349894" lon="6.129468949511647">
        <ele>45.799999999999997</ele>
        <time>2015-11-08T10:35:24Z</time>
      </trkpt>
      <trkpt lat="51.152791595086455" lon="6.129471966996789">
        <ele>45.799999999999997</ele>
        <time>2015-11-08T10:35:25Z</time>
      </trkpt>
      <trkpt lat="51.1527478415519" lon="6.129477582871914">
        <ele>46.280000000000001</ele>
        <time>2015-11-08T10:35:28Z</time>
      </trkpt>
      <trkpt lat="51.152593279257417" lon="6.129303658381105">
        <ele>45.32</ele>
        <time>2015-11-08T10:35:41Z</time>
      </trkpt>
      <trkpt lat="51.152560338377953" lon="6.129274824634194">
        <ele>45.32</ele>
        <time>2015-11-08T10:35:43Z</time>
      </trkpt>
      <trkpt lat="51.152545670047402" lon="6.129264095798135">
        <ele>45.799999999999997</ele>
        <time>2015-11-08T10:35:44Z</time>
      </trkpt>
      <trkpt lat="51.152356071397662" lon="6.12913241609931">
        <ele>45.799999999999997</ele>
        <time>2015-11-08T10:35:59Z</time>
      </trkpt>
      <trkpt lat="51.152184912934899" lon="6.128998138010502">
        <ele>44.840000000000003</ele>
        <time>2015-11-08T10:36:10Z</time>
      </trkpt>
      <trkpt lat="51.152179129421711" lon="6.12897265702486">
        <ele>45.32</ele>
        <time>2015-11-08T10:36:11Z</time>
      </trkpt>
      <trkpt lat="51.152158761397004" lon="6.128864362835884">
        <ele>44.840000000000003</ele>
        <time>2015-11-08T10:36:15Z</time>
      </trkpt>
      <trkpt lat="51.152158929035068" lon="6.128838378936052">
        <ele>44.840000000000003</ele>
        <time>2015-11-08T10:36:16Z</time>
      </trkpt>
      <trkpt lat="51.152155492454767" lon="6.128811556845903">
        <ele>44.359999999999999</ele>
        <time>2015-11-08T10:36:17Z</time>
      </trkpt>
      <trkpt lat="51.152128921821713" lon="6.128438226878643">
        <ele>44.840000000000003</ele>
        <time>2015-11-08T10:36:31Z</time>
      </trkpt>
      <trkpt lat="51.152127915993333" lon="6.128203449770808">
        <ele>44.359999999999999</ele>
        <time>2015-11-08T10:36:40Z</time>
      </trkpt>
      <trkpt lat="51.152176363393664" lon="6.128074117004871">
        <ele>43.880000000000003</ele>
        <time>2015-11-08T10:36:46Z</time>
      </trkpt>
      <trkpt lat="51.15218935534358" lon="6.128041762858629">
        <ele>43.880000000000003</ele>
        <time>2015-11-08T10:36:48Z</time>
      </trkpt>
      <trkpt lat="51.152195390313864" lon="6.128025753423572">
        <ele>44.359999999999999</ele>
        <time>2015-11-08T10:36:49Z</time>
      </trkpt>
      <trkpt lat="51.152230175212026" lon="6.127694081515074">
        <ele>44.359999999999999</ele>
        <time>2015-11-08T10:37:03Z</time>
      </trkpt>
      <trkpt lat="51.152293710038066" lon="6.127410689368844">
        <ele>43.880000000000003</ele>
        <time>2015-11-08T10:37:14Z</time>
      </trkpt>
      <trkpt lat="51.152294129133224" lon="6.127390069887042">
        <ele>43.880000000000003</ele>
        <time>2015-11-08T10:37:15Z</time>
      </trkpt>
      <trkpt lat="51.15230075083673" lon="6.127369534224272">
        <ele>44.359999999999999</ele>
        <time>2015-11-08T10:37:16Z</time>
      </trkpt>
      <trkpt lat="51.152310809120536" lon="6.127345645800233">
        <ele>43.880000000000003</ele>
        <time>2015-11-08T10:37:17Z</time>
      </trkpt>
      <trkpt lat="51.152320615947247" lon="6.127322930842638">
        <ele>43.880000000000003</ele>
        <time>2015-11-08T10:37:18Z</time>
      </trkpt>
      <trkpt lat="51.152348192408681" lon="6.127221928909421">
        <ele>44.359999999999999</ele>
        <time>2015-11-08T10:37:23Z</time>
      </trkpt>
      <trkpt lat="51.152347521856427" lon="6.127195525914431">
        <ele>44.359999999999999</ele>
        <time>2015-11-08T10:37:24Z</time>
      </trkpt>
      <trkpt lat="51.1523471865803" lon="6.12716811709106">
        <ele>44.359999999999999</ele>
        <time>2015-11-08T10:37:25Z</time>
      </trkpt>
      <trkpt lat="51.152348276227713" lon="6.127145821228623">
        <ele>44.359999999999999</ele>
        <time>2015-11-08T10:37:26Z</time>
      </trkpt>
      <trkpt lat="51.152350623160601" lon="6.127124279737473">
        <ele>44.359999999999999</ele>
        <time>2015-11-08T10:37:27Z</time>
      </trkpt>
      <trkpt lat="51.152434609830379" lon="6.126822028309107">
        <ele>43.880000000000003</ele>
        <time>2015-11-08T10:37:40Z</time>
      </trkpt>
      <trkpt lat="51.152495797723532" lon="6.126438975334168">
        <ele>44.359999999999999</ele>
        <time>2015-11-08T10:37:55Z</time>
      </trkpt>
      <trkpt lat="51.152501245960593" lon="6.12639220431447">
        <ele>44.359999999999999</ele>
        <time>2015-11-08T10:37:57Z</time>
      </trkpt>
      <trkpt lat="51.152504095807672" lon="6.12636923789978">
        <ele>44.359999999999999</ele>
        <time>2015-11-08T10:37:58Z</time>
      </trkpt>
      <trkpt lat="51.152509041130543" lon="6.126346020027995">
        <ele>44.359999999999999</ele>
        <time>2015-11-08T10:37:59Z</time>
      </trkpt>
      <trkpt lat="51.152511807158589" lon="6.126321628689766">
        <ele>43.880000000000003</ele>
        <time>2015-11-08T10:38:00Z</time>
      </trkpt>
      <trkpt lat="51.152515076100826" lon="6.126290531829">
        <ele>44.840000000000003</ele>
        <time>2015-11-08T10:38:01Z</time>
      </trkpt>
      <trkpt lat="51.15251574665308" lon="6.126266056671739">
        <ele>44.359999999999999</ele>
        <time>2015-11-08T10:38:02Z</time>
      </trkpt>
      <trkpt lat="51.152512645348907" lon="6.126237222924829">
        <ele>43.880000000000003</ele>
        <time>2015-11-08T10:38:03Z</time>
      </trkpt>
      <trkpt lat="51.15250795148313" lon="6.12621383741498">
        <ele>45.32</ele>
        <time>2015-11-08T10:38:04Z</time>
      </trkpt>
      <trkpt lat="51.152500826865435" lon="6.126194810494781">
        <ele>41.950000000000003</ele>
        <time>2015-11-08T10:38:05Z</time>
      </trkpt>
      <trkpt lat="51.152492528781295" lon="6.126174777746201">
        <ele>46.759999999999998</ele>
        <time>2015-11-08T10:38:06Z</time>
      </trkpt>
      <trkpt lat="51.152481967583299" lon="6.126147201284766">
        <ele>44.359999999999999</ele>
        <time>2015-11-08T10:38:07Z</time>
      </trkpt>
      <trkpt lat="51.152418265119195" lon="6.125697260722518">
        <ele>43.880000000000003</ele>
        <time>2015-11-08T10:38:23Z</time>
      </trkpt>
      <trkpt lat="51.152419103309512" lon="6.125670941546559">
        <ele>43.880000000000003</ele>
        <time>2015-11-08T10:38:24Z</time>
      </trkpt>
      <trkpt lat="51.152418432757258" lon="6.125648226588965">
        <ele>43.880000000000003</ele>
        <time>2015-11-08T10:38:25Z</time>
      </trkpt>
      <trkpt lat="51.152416672557592" lon="6.125619811937213">
        <ele>43.880000000000003</ele>
        <time>2015-11-08T10:38:26Z</time>
      </trkpt>
      <trkpt lat="51.152414409443736" lon="6.125591564923525">
        <ele>43.880000000000003</ele>
        <time>2015-11-08T10:38:27Z</time>
      </trkpt>
      <trkpt lat="51.152412397786975" lon="6.125567844137549">
        <ele>43.880000000000003</ele>
        <time>2015-11-08T10:38:28Z</time>
      </trkpt>
      <trkpt lat="51.152359172701836" lon="6.125217983499169">
        <ele>43.880000000000003</ele>
        <time>2015-11-08T10:38:43Z</time>
      </trkpt>
      <trkpt lat="51.152248196303844" lon="6.124862590804696">
        <ele>43.880000000000003</ele>
        <time>2015-11-08T10:38:58Z</time>
      </trkpt>
      <trkpt lat="51.152144512161613" lon="6.124586826190352">
        <ele>43.880000000000003</ele>
        <time>2015-11-08T10:39:12Z</time>
      </trkpt>
      <trkpt lat="51.152131771668792" lon="6.124568721279502">
        <ele>43.880000000000003</ele>
        <time>2015-11-08T10:39:13Z</time>
      </trkpt>
      <trkpt lat="51.152116600424051" lon="6.1245481017977">
        <ele>43.880000000000003</ele>
        <time>2015-11-08T10:39:14Z</time>
      </trkpt>
      <trkpt lat="51.152101764455438" lon="6.124522872269154">
        <ele>43.880000000000003</ele>
        <time>2015-11-08T10:39:15Z</time>
      </trkpt>
      <trkpt lat="51.152088269591331" lon="6.124500827863812">
        <ele>43.880000000000003</ele>
        <time>2015-11-08T10:39:16Z</time>
      </trkpt>
      <trkpt lat="51.15193085744977" lon="6.124193966388702">
        <ele>44.359999999999999</ele>
        <time>2015-11-08T10:39:30Z</time>
      </trkpt>
      <trkpt lat="51.151905376464128" lon="6.124105704948306">
        <ele>44.840000000000003</ele>
        <time>2015-11-08T10:39:34Z</time>
      </trkpt>
      <trkpt lat="51.151897916570306" lon="6.124073183164001">
        <ele>44.840000000000003</ele>
        <time>2015-11-08T10:39:35Z</time>
      </trkpt>
      <trkpt lat="51.151851899921894" lon="6.123906383290887">
        <ele>44.840000000000003</ele>
        <time>2015-11-08T10:39:42Z</time>
      </trkpt>
      <trkpt lat="51.151846367865801" lon="6.123885260894895">
        <ele>44.840000000000003</ele>
        <time>2015-11-08T10:39:43Z</time>
      </trkpt>
      <trkpt lat="51.15175886079669" lon="6.123637659475207">
        <ele>44.840000000000003</ele>
        <time>2015-11-08T10:39:55Z</time>
      </trkpt>
      <trkpt lat="51.151610501110554" lon="6.123469434678555">
        <ele>44.840000000000003</ele>
        <time>2015-11-08T10:40:08Z</time>
      </trkpt>
      <trkpt lat="51.151501201093197" lon="6.123353848233819">
        <ele>45.32</ele>
        <time>2015-11-08T10:40:18Z</time>
      </trkpt>
      <trkpt lat="51.151467422023416" lon="6.123286038637161">
        <ele>45.32</ele>
        <time>2015-11-08T10:40:21Z</time>
      </trkpt>
      <trkpt lat="51.151447053998709" lon="6.123247146606445">
        <ele>45.32</ele>
        <time>2015-11-08T10:40:22Z</time>
      </trkpt>
      <trkpt lat="51.151431379839778" lon="6.123228957876563">
        <ele>45.32</ele>
        <time>2015-11-08T10:40:23Z</time>
      </trkpt>
      <trkpt lat="51.151415705680847" lon="6.123207835480571">
        <ele>45.32</ele>
        <time>2015-11-08T10:40:24Z</time>
      </trkpt>
      <trkpt lat="51.151395253837109" lon="6.123152347281575">
        <ele>45.799999999999997</ele>
        <time>2015-11-08T10:40:25Z</time>
      </trkpt>
      <trkpt lat="51.151385866105556" lon="6.123126614838839">
        <ele>45.799999999999997</ele>
        <time>2015-11-08T10:40:26Z</time>
      </trkpt>
      <trkpt lat="51.15137429907918" lon="6.123104570433497">
        <ele>45.799999999999997</ele>
        <time>2015-11-08T10:40:27Z</time>
      </trkpt>
      <trkpt lat="51.151364827528596" lon="6.1230802629143">
        <ele>45.32</ele>
        <time>2015-11-08T10:40:28Z</time>
      </trkpt>
      <trkpt lat="51.151297856122255" lon="6.122895358130336">
        <ele>45.799999999999997</ele>
        <time>2015-11-08T10:40:38Z</time>
      </trkpt>
      <trkpt lat="51.151290228590369" lon="6.12287599593401">
        <ele>45.32</ele>
        <time>2015-11-08T10:40:39Z</time>
      </trkpt>
      <trkpt lat="51.151177659630775" lon="6.122585060074925">
        <ele>44.840000000000003</ele>
        <time>2015-11-08T10:40:49Z</time>
      </trkpt>
      <trkpt lat="51.151160644367337" lon="6.122556142508984">
        <ele>44.840000000000003</ele>
        <time>2015-11-08T10:40:50Z</time>
      </trkpt>
      <trkpt lat="51.15114270709455" lon="6.12251884303987">
        <ele>44.840000000000003</ele>
        <time>2015-11-08T10:40:51Z</time>
      </trkpt>
      <trkpt lat="51.151127284392715" lon="6.122481040656567">
        <ele>44.840000000000003</ele>
        <time>2015-11-08T10:40:52Z</time>
      </trkpt>
      <trkpt lat="51.151112699881196" lon="6.122440975159407">
        <ele>44.840000000000003</ele>
        <time>2015-11-08T10:40:53Z</time>
      </trkpt>
      <trkpt lat="51.151097612455487" lon="6.122410632669926">
        <ele>44.840000000000003</ele>
        <time>2015-11-08T10:40:54Z</time>
      </trkpt>
      <trkpt lat="51.151080764830112" lon="6.122383140027523">
        <ele>44.840000000000003</ele>
        <time>2015-11-08T10:40:55Z</time>
      </trkpt>
      <trkpt lat="51.150930980220437" lon="6.121970750391483">
        <ele>44.840000000000003</ele>
        <time>2015-11-08T10:41:04Z</time>
      </trkpt>
      <trkpt lat="51.150841796770692" lon="6.121687609702349">
        <ele>44.840000000000003</ele>
        <time>2015-11-08T10:41:13Z</time>
      </trkpt>
      <trkpt lat="51.150836013257504" lon="6.12166908569634">
        <ele>44.840000000000003</ele>
        <time>2015-11-08T10:41:14Z</time>
      </trkpt>
      <trkpt lat="51.150831654667854" lon="6.121648047119379">
        <ele>44.840000000000003</ele>
        <time>2015-11-08T10:41:15Z</time>
      </trkpt>
      <trkpt lat="51.150823859497905" lon="6.121622985228896">
        <ele>45.32</ele>
        <time>2015-11-08T10:41:16Z</time>
      </trkpt>
      <trkpt lat="51.150811538100243" lon="6.12158895470202">
        <ele>44.840000000000003</ele>
        <time>2015-11-08T10:41:17Z</time>
      </trkpt>
      <trkpt lat="51.150798294693232" lon="6.121554588899016">
        <ele>44.840000000000003</ele>
        <time>2015-11-08T10:41:18Z</time>
      </trkpt>
      <trkpt lat="51.150786057114601" lon="6.121521731838584">
        <ele>45.32</ele>
        <time>2015-11-08T10:41:19Z</time>
      </trkpt>
      <trkpt lat="51.150775998830795" lon="6.121482085436583">
        <ele>45.32</ele>
        <time>2015-11-08T10:41:20Z</time>
      </trkpt>
      <trkpt lat="51.150764850899577" lon="6.121444199234247">
        <ele>45.32</ele>
        <time>2015-11-08T10:41:21Z</time>
      </trkpt>
      <trkpt lat="51.15066971629858" lon="6.121170111000538">
        <ele>45.32</ele>
        <time>2015-11-08T10:41:32Z</time>
      </trkpt>
      <trkpt lat="51.150655634701252" lon="6.121125435456634">
        <ele>45.32</ele>
        <time>2015-11-08T10:41:34Z</time>
      </trkpt>
      <trkpt lat="51.150638703256845" lon="6.121089225634933">
        <ele>45.32</ele>
        <time>2015-11-08T10:41:35Z</time>
      </trkpt>
      <trkpt lat="51.150614395737648" lon="6.121028373017907">
        <ele>45.32</ele>
        <time>2015-11-08T10:41:36Z</time>
      </trkpt>
      <trkpt lat="51.150590758770704" lon="6.120974812656641">
        <ele>45.32</ele>
        <time>2015-11-08T10:41:37Z</time>
      </trkpt>
      <trkpt lat="51.150573072955012" lon="6.12094153650105">
        <ele>45.32</ele>
        <time>2015-11-08T10:41:38Z</time>
      </trkpt>
      <trkpt lat="51.150539964437485" lon="6.120900632813573">
        <ele>45.32</ele>
        <time>2015-11-08T10:41:39Z</time>
      </trkpt>
      <trkpt lat="51.150511214509606" lon="6.120888562873006">
        <ele>45.32</ele>
        <time>2015-11-08T10:41:40Z</time>
      </trkpt>
      <trkpt lat="51.150483218953013" lon="6.120883533731103">
        <ele>45.32</ele>
        <time>2015-11-08T10:41:41Z</time>
      </trkpt>
      <trkpt lat="51.150454385206103" lon="6.120885377749801">
        <ele>45.32</ele>
        <time>2015-11-08T10:41:42Z</time>
      </trkpt>
      <trkpt lat="51.150323124602437" lon="6.120928963646293">
        <ele>44.840000000000003</ele>
        <time>2015-11-08T10:41:46Z</time>
      </trkpt>
      <trkpt lat="51.150292363017797" lon="6.120939524844289">
        <ele>44.840000000000003</ele>
        <time>2015-11-08T10:41:47Z</time>
      </trkpt>
      <trkpt lat="51.150219943374395" lon="6.120949164032936">
        <ele>44.840000000000003</ele>
        <time>2015-11-08T10:41:49Z</time>
      </trkpt>
      <trkpt lat="51.150185326114297" lon="6.12096450291574">
        <ele>45.32</ele>
        <time>2015-11-08T10:41:50Z</time>
      </trkpt>
      <trkpt lat="51.150013161823153" lon="6.121083609759808">
        <ele>44.840000000000003</ele>
        <time>2015-11-08T10:41:56Z</time>
      </trkpt>
      <trkpt lat="51.149988686665893" lon="6.121098026633263">
        <ele>44.840000000000003</ele>
        <time>2015-11-08T10:41:57Z</time>
      </trkpt>
      <trkpt lat="51.149965887889266" lon="6.121108671650291">
        <ele>44.359999999999999</ele>
        <time>2015-11-08T10:41:58Z</time>
      </trkpt>
      <trkpt lat="51.149717280641198" lon="6.12119416706264">
        <ele>44.359999999999999</ele>
        <time>2015-11-08T10:42:11Z</time>
      </trkpt>
      <trkpt lat="51.149604376405478" lon="6.121234651654959">
        <ele>44.359999999999999</ele>
        <time>2015-11-08T10:42:17Z</time>
      </trkpt>
      <trkpt lat="51.1495893727988" lon="6.121249655261636">
        <ele>44.359999999999999</ele>
        <time>2015-11-08T10:42:18Z</time>
      </trkpt>
      <trkpt lat="51.14957420155406" lon="6.121265077963471">
        <ele>44.359999999999999</ele>
        <time>2015-11-08T10:42:19Z</time>
      </trkpt>
      <trkpt lat="51.149561377242208" lon="6.1212791595608">
        <ele>44.359999999999999</ele>
        <time>2015-11-08T10:42:20Z</time>
      </trkpt>
      <trkpt lat="51.149434139952064" lon="6.121547296643257">
        <ele>43.880000000000003</ele>
        <time>2015-11-08T10:42:34Z</time>
      </trkpt>
      <trkpt lat="51.149296844378114" lon="6.121906712651253">
        <ele>43.399999999999999</ele>
        <time>2015-11-08T10:42:50Z</time>
      </trkpt>
      <trkpt lat="51.149201206862926" lon="6.122285407036543">
        <ele>42.920000000000002</ele>
        <time>2015-11-08T10:42:58Z</time>
      </trkpt>
      <trkpt lat="51.14918771199882" lon="6.122342403978109">
        <ele>43.399999999999999</ele>
        <time>2015-11-08T10:42:59Z</time>
      </trkpt>
      <trkpt lat="51.149166254326701" lon="6.122412644326687">
        <ele>43.399999999999999</ele>
        <time>2015-11-08T10:43:00Z</time>
      </trkpt>
      <trkpt lat="51.149098109453917" lon="6.122585562989116">
        <ele>42.920000000000002</ele>
        <time>2015-11-08T10:43:03Z</time>
      </trkpt>
      <trkpt lat="51.149070952087641" lon="6.122647002339363">
        <ele>42.439999999999998</ele>
        <time>2015-11-08T10:43:04Z</time>
      </trkpt>
      <trkpt lat="51.148931225761771" lon="6.12304212525487">
        <ele>41.469999999999999</ele>
        <time>2015-11-08T10:43:10Z</time>
      </trkpt>
      <trkpt lat="51.148696281015873" lon="6.12370278686285">
        <ele>42.439999999999998</ele>
        <time>2015-11-08T10:43:21Z</time>
      </trkpt>
      <trkpt lat="51.148595614358783" lon="6.12397251650691">
        <ele>41.950000000000003</ele>
        <time>2015-11-08T10:43:25Z</time>
      </trkpt>
      <trkpt lat="51.148533672094345" lon="6.124122217297554">
        <ele>40.509999999999998</ele>
        <time>2015-11-08T10:43:27Z</time>
      </trkpt>
      <trkpt lat="51.148452283814549" lon="6.124357245862484">
        <ele>41.469999999999999</ele>
        <time>2015-11-08T10:43:30Z</time>
      </trkpt>
      <trkpt lat="51.148395957425237" lon="6.124520022422075">
        <ele>42.439999999999998</ele>
        <time>2015-11-08T10:43:32Z</time>
      </trkpt>
      <trkpt lat="51.148342397063971" lon="6.124662766233087">
        <ele>42.439999999999998</ele>
        <time>2015-11-08T10:43:34Z</time>
      </trkpt>
      <trkpt lat="51.148298643529415" lon="6.12482906319201">
        <ele>42.439999999999998</ele>
        <time>2015-11-08T10:43:36Z</time>
      </trkpt>
      <trkpt lat="51.14826763048768" lon="6.124899890273809">
        <ele>42.439999999999998</ele>
        <time>2015-11-08T10:43:37Z</time>
      </trkpt>
      <trkpt lat="51.148150786757469" lon="6.125173727050424">
        <ele>41.950000000000003</ele>
        <time>2015-11-08T10:43:41Z</time>
      </trkpt>
      <trkpt lat="51.148093119263649" lon="6.125310771167278">
        <ele>42.439999999999998</ele>
        <time>2015-11-08T10:43:43Z</time>
      </trkpt>
      <trkpt lat="51.148017011582851" lon="6.125529035925865">
        <ele>41.469999999999999</ele>
        <time>2015-11-08T10:43:46Z</time>
      </trkpt>
      <trkpt lat="51.147989686578512" lon="6.125594079494476">
        <ele>40.990000000000002</ele>
        <time>2015-11-08T10:43:47Z</time>
      </trkpt>
      <trkpt lat="51.147964708507061" lon="6.125660380348563">
        <ele>41.469999999999999</ele>
        <time>2015-11-08T10:43:48Z</time>
      </trkpt>
      <trkpt lat="51.147943921387196" lon="6.125731794163585">
        <ele>41.469999999999999</ele>
        <time>2015-11-08T10:43:49Z</time>
      </trkpt>
      <trkpt lat="51.147922966629267" lon="6.125798933207989">
        <ele>41.469999999999999</ele>
        <time>2015-11-08T10:43:50Z</time>
      </trkpt>
      <trkpt lat="51.147901928052306" lon="6.125859031453729">
        <ele>41.469999999999999</ele>
        <time>2015-11-08T10:43:51Z</time>
      </trkpt>
      <trkpt lat="51.14774770103395" lon="6.126338811591268">
        <ele>41.469999999999999</ele>
        <time>2015-11-08T10:44:00Z</time>
      </trkpt>
      <trkpt lat="51.147556258365512" lon="6.126860165968537">
        <ele>42.439999999999998</ele>
        <time>2015-11-08T10:44:10Z</time>
      </trkpt>
      <trkpt lat="51.147443437948823" lon="6.1271764151752">
        <ele>42.439999999999998</ele>
        <time>2015-11-08T10:44:15Z</time>
      </trkpt>
      <trkpt lat="51.147209163755178" lon="6.127709755674005">
        <ele>41.950000000000003</ele>
        <time>2015-11-08T10:44:26Z</time>
      </trkpt>
      <trkpt lat="51.147138169035316" lon="6.127860881388187">
        <ele>41.950000000000003</ele>
        <time>2015-11-08T10:44:31Z</time>
      </trkpt>
      <trkpt lat="51.147131128236651" lon="6.127882422879338">
        <ele>41.469999999999999</ele>
        <time>2015-11-08T10:44:32Z</time>
      </trkpt>
      <trkpt lat="51.147120902314782" lon="6.127909328788519">
        <ele>41.469999999999999</ele>
        <time>2015-11-08T10:44:33Z</time>
      </trkpt>
      <trkpt lat="51.14705728366971" lon="6.128148715943098">
        <ele>41.950000000000003</ele>
        <time>2015-11-08T10:44:43Z</time>
      </trkpt>
      <trkpt lat="51.147054433822632" lon="6.128174951300025">
        <ele>41.469999999999999</ele>
        <time>2015-11-08T10:44:44Z</time>
      </trkpt>
      <trkpt lat="51.147047560662031" lon="6.128196911886334">
        <ele>41.469999999999999</ele>
        <time>2015-11-08T10:44:45Z</time>
      </trkpt>
      <trkpt lat="51.147041944786906" lon="6.128221806138754">
        <ele>41.469999999999999</ele>
        <time>2015-11-08T10:44:46Z</time>
      </trkpt>
      <trkpt lat="51.147034065797925" lon="6.128246365115047">
        <ele>41.469999999999999</ele>
        <time>2015-11-08T10:44:47Z</time>
      </trkpt>
      <trkpt lat="51.147017888724804" lon="6.128273354843259">
        <ele>41.469999999999999</ele>
        <time>2015-11-08T10:44:48Z</time>
      </trkpt>
      <trkpt lat="51.147001795470715" lon="6.128296656534076">
        <ele>41.469999999999999</ele>
        <time>2015-11-08T10:44:49Z</time>
      </trkpt>
      <trkpt lat="51.14698494784534" lon="6.128316856920719">
        <ele>41.469999999999999</ele>
        <time>2015-11-08T10:44:50Z</time>
      </trkpt>
      <trkpt lat="51.146968938410282" lon="6.128327585756779">
        <ele>41.469999999999999</ele>
        <time>2015-11-08T10:44:51Z</time>
      </trkpt>
      <trkpt lat="51.146952761337161" lon="6.128331776708365">
        <ele>41.950000000000003</ele>
        <time>2015-11-08T10:44:52Z</time>
      </trkpt>
      <trkpt lat="51.146934488788247" lon="6.128329681232572">
        <ele>41.950000000000003</ele>
        <time>2015-11-08T10:44:53Z</time>
      </trkpt>
      <trkpt lat="51.146915210410953" lon="6.128324568271637">
        <ele>41.950000000000003</ele>
        <time>2015-11-08T10:44:54Z</time>
      </trkpt>
      <trkpt lat="51.146900458261371" lon="6.128315599635243">
        <ele>41.950000000000003</ele>
        <time>2015-11-08T10:44:55Z</time>
      </trkpt>
      <trkpt lat="51.146888723596931" lon="6.128302775323391">
        <ele>41.950000000000003</ele>
        <time>2015-11-08T10:44:56Z</time>
      </trkpt>
      <trkpt lat="51.146880844607949" lon="6.128286011517048">
        <ele>41.950000000000003</ele>
        <time>2015-11-08T10:44:57Z</time>
      </trkpt>
      <trkpt lat="51.146866260096431" lon="6.12825776450336">
        <ele>41.469999999999999</ele>
        <time>2015-11-08T10:44:59Z</time>
      </trkpt>
      <trkpt lat="51.146849663928151" lon="6.128226416185498">
        <ele>41.469999999999999</ele>
        <time>2015-11-08T10:45:01Z</time>
      </trkpt>
      <trkpt lat="51.146766431629658" lon="6.127939755097032">
        <ele>40.509999999999998</ele>
        <time>2015-11-08T10:45:14Z</time>
      </trkpt>
      <trkpt lat="51.146759893745184" lon="6.127919889986515">
        <ele>40.990000000000002</ele>
        <time>2015-11-08T10:45:15Z</time>
      </trkpt>
      <trkpt lat="51.14666978828609" lon="6.127599282190204">
        <ele>39.549999999999997</ele>
        <time>2015-11-08T10:45:31Z</time>
      </trkpt>
      <trkpt lat="51.146556632593274" lon="6.127175660803914">
        <ele>40.030000000000001</ele>
        <time>2015-11-08T10:45:48Z</time>
      </trkpt>
      <trkpt lat="51.146485051140189" lon="6.126817334443331">
        <ele>39.549999999999997</ele>
        <time>2015-11-08T10:46:02Z</time>
      </trkpt>
      <trkpt lat="51.146462420001626" lon="6.126764612272382">
        <ele>40.030000000000001</ele>
        <time>2015-11-08T10:46:05Z</time>
      </trkpt>
      <trkpt lat="51.146452026441693" lon="6.126737706363201">
        <ele>40.030000000000001</ele>
        <time>2015-11-08T10:46:06Z</time>
      </trkpt>
      <trkpt lat="51.146441549062729" lon="6.126707112416625">
        <ele>39.549999999999997</ele>
        <time>2015-11-08T10:46:07Z</time>
      </trkpt>
      <trkpt lat="51.146359154954553" lon="6.126434616744518">
        <ele>39.549999999999997</ele>
        <time>2015-11-08T10:46:21Z</time>
      </trkpt>
      <trkpt lat="51.146260919049382" lon="6.126134376972914">
        <ele>39.07</ele>
        <time>2015-11-08T10:46:34Z</time>
      </trkpt>
      <trkpt lat="51.146107781678438" lon="6.125698098912835">
        <ele>39.07</ele>
        <time>2015-11-08T10:46:51Z</time>
      </trkpt>
      <trkpt lat="51.146091101691127" lon="6.125662894919515">
        <ele>39.549999999999997</ele>
        <time>2015-11-08T10:46:53Z</time>
      </trkpt>
      <trkpt lat="51.146089090034366" lon="6.125643029808998">
        <ele>39.549999999999997</ele>
        <time>2015-11-08T10:46:54Z</time>
      </trkpt>
      <trkpt lat="51.146089341491461" lon="6.125621320679784">
        <ele>39.07</ele>
        <time>2015-11-08T10:46:55Z</time>
      </trkpt>
      <trkpt lat="51.146079702302814" lon="6.125575555488467">
        <ele>39.07</ele>
        <time>2015-11-08T10:46:58Z</time>
      </trkpt>
      <trkpt lat="51.146072661504149" lon="6.125556780025363">
        <ele>39.07</ele>
        <time>2015-11-08T10:46:59Z</time>
      </trkpt>
      <trkpt lat="51.146068051457405" lon="6.125537417829037">
        <ele>39.07</ele>
        <time>2015-11-08T10:47:00Z</time>
      </trkpt>
      <trkpt lat="51.14606193266809" lon="6.125513361766934">
        <ele>39.07</ele>
        <time>2015-11-08T10:47:01Z</time>
      </trkpt>
      <trkpt lat="51.146056232973933" lon="6.125492239370942">
        <ele>39.07</ele>
        <time>2015-11-08T10:47:02Z</time>
      </trkpt>
      <trkpt lat="51.146043911576271" lon="6.125416802242398">
        <ele>39.07</ele>
        <time>2015-11-08T10:47:05Z</time>
      </trkpt>
      <trkpt lat="51.14604189991951" lon="6.125395176932216">
        <ele>39.07</ele>
        <time>2015-11-08T10:47:06Z</time>
      </trkpt>
      <trkpt lat="51.146042570471764" lon="6.125369360670447">
        <ele>39.07</ele>
        <time>2015-11-08T10:47:07Z</time>
      </trkpt>
      <trkpt lat="51.146040223538876" lon="6.12534161657095">
        <ele>39.07</ele>
        <time>2015-11-08T10:47:08Z</time>
      </trkpt>
      <trkpt lat="51.146035110577941" lon="6.125318063423038">
        <ele>39.549999999999997</ele>
        <time>2015-11-08T10:47:09Z</time>
      </trkpt>
      <trkpt lat="51.146024884656072" lon="6.125269951298833">
        <ele>39.549999999999997</ele>
        <time>2015-11-08T10:47:11Z</time>
      </trkpt>
      <trkpt lat="51.146019687876105" lon="6.125244554132223">
        <ele>39.549999999999997</ele>
        <time>2015-11-08T10:47:12Z</time>
      </trkpt>
      <trkpt lat="51.145943831652403" lon="6.12492092885077">
        <ele>39.07</ele>
        <time>2015-11-08T10:47:25Z</time>
      </trkpt>
      <trkpt lat="51.145939556881785" lon="6.124894944950938">
        <ele>39.549999999999997</ele>
        <time>2015-11-08T10:47:26Z</time>
      </trkpt>
      <trkpt lat="51.14593637175858" lon="6.12487256526947">
        <ele>39.549999999999997</ele>
        <time>2015-11-08T10:47:27Z</time>
      </trkpt>
      <trkpt lat="51.145813409239054" lon="6.124510802328587">
        <ele>39.549999999999997</ele>
        <time>2015-11-08T10:47:44Z</time>
      </trkpt>
      <trkpt lat="51.145802428945899" lon="6.124442489817739">
        <ele>39.549999999999997</ele>
        <time>2015-11-08T10:47:48Z</time>
      </trkpt>
      <trkpt lat="51.145794214680791" lon="6.124414997175336">
        <ele>39.549999999999997</ele>
        <time>2015-11-08T10:47:49Z</time>
      </trkpt>
      <trkpt lat="51.145668737590313" lon="6.124087180942297">
        <ele>39.549999999999997</ele>
        <time>2015-11-08T10:48:02Z</time>
      </trkpt>
      <trkpt lat="51.145576369017363" lon="6.123762549832463">
        <ele>39.07</ele>
        <time>2015-11-08T10:48:16Z</time>
      </trkpt>
      <trkpt lat="51.145499674603343" lon="6.123619470745325">
        <ele>39.07</ele>
        <time>2015-11-08T10:48:24Z</time>
      </trkpt>
      <trkpt lat="51.145495399832726" lon="6.123599605634809">
        <ele>39.07</ele>
        <time>2015-11-08T10:48:25Z</time>
      </trkpt>
      <trkpt lat="51.145435804501176" lon="6.123340772464871">
        <ele>39.07</ele>
        <time>2015-11-08T10:48:37Z</time>
      </trkpt>
      <trkpt lat="51.145350560545921" lon="6.123081436380744">
        <ele>39.07</ele>
        <time>2015-11-08T10:48:50Z</time>
      </trkpt>
      <trkpt lat="51.145300520583987" lon="6.122883707284927">
        <ele>39.07</ele>
        <time>2015-11-08T10:48:59Z</time>
      </trkpt>
      <trkpt lat="51.145295239984989" lon="6.12284523434937">
        <ele>39.07</ele>
        <time>2015-11-08T10:49:00Z</time>
      </trkpt>
      <trkpt lat="51.145205888897181" lon="6.122505851089954">
        <ele>39.07</ele>
        <time>2015-11-08T10:49:13Z</time>
      </trkpt>
      <trkpt lat="51.145121734589338" lon="6.122201671823859">
        <ele>39.07</ele>
        <time>2015-11-08T10:49:24Z</time>
      </trkpt>
      <trkpt lat="51.145028611645103" lon="6.121911155059934">
        <ele>39.07</ele>
        <time>2015-11-08T10:49:37Z</time>
      </trkpt>
      <trkpt lat="51.144907074049115" lon="6.121590714901686">
        <ele>39.07</ele>
        <time>2015-11-08T10:49:53Z</time>
      </trkpt>
      <trkpt lat="51.144815124571323" lon="6.121253343299031">
        <ele>39.07</ele>
        <time>2015-11-08T10:50:09Z</time>
      </trkpt>
      <trkpt lat="51.144780423492193" lon="6.121075982227922">
        <ele>38.590000000000003</ele>
        <time>2015-11-08T10:50:19Z</time>
      </trkpt>
      <trkpt lat="51.144765252247453" lon="6.121026612818241">
        <ele>38.590000000000003</ele>
        <time>2015-11-08T10:50:22Z</time>
      </trkpt>
      <trkpt lat="51.144756451249123" lon="6.121001048013568">
        <ele>38.590000000000003</ele>
        <time>2015-11-08T10:50:23Z</time>
      </trkpt>
      <trkpt lat="51.144749326631427" lon="6.120975902304053">
        <ele>38.590000000000003</ele>
        <time>2015-11-08T10:50:24Z</time>
      </trkpt>
      <trkpt lat="51.144738933071494" lon="6.120945978909731">
        <ele>38.590000000000003</ele>
        <time>2015-11-08T10:50:25Z</time>
      </trkpt>
      <trkpt lat="51.144726360216737" lon="6.120918905362487">
        <ele>38.590000000000003</ele>
        <time>2015-11-08T10:50:26Z</time>
      </trkpt>
      <trkpt lat="51.144719319418073" lon="6.120888395234942">
        <ele>39.07</ele>
        <time>2015-11-08T10:50:27Z</time>
      </trkpt>
      <trkpt lat="51.14471236243844" lon="6.120852017775178">
        <ele>38.590000000000003</ele>
        <time>2015-11-08T10:50:28Z</time>
      </trkpt>
      <trkpt lat="51.144617227837443" lon="6.120551526546478">
        <ele>39.07</ele>
        <time>2015-11-08T10:50:39Z</time>
      </trkpt>
      <trkpt lat="51.14453449845314" lon="6.120206946507096">
        <ele>39.07</ele>
        <time>2015-11-08T10:50:52Z</time>
      </trkpt>
      <trkpt lat="51.14445730112493" lon="6.119953813031316">
        <ele>39.07</ele>
        <time>2015-11-08T10:51:03Z</time>
      </trkpt>
      <trkpt lat="51.144412625581026" lon="6.119775865226984">
        <ele>39.07</ele>
        <time>2015-11-08T10:51:10Z</time>
      </trkpt>
      <trkpt lat="51.144389826804399" lon="6.119720544666052">
        <ele>39.07</ele>
        <time>2015-11-08T10:51:12Z</time>
      </trkpt>
      <trkpt lat="51.144381361082196" lon="6.119697578251362">
        <ele>39.07</ele>
        <time>2015-11-08T10:51:13Z</time>
      </trkpt>
      <trkpt lat="51.144374152645469" lon="6.119675198569894">
        <ele>39.07</ele>
        <time>2015-11-08T10:51:14Z</time>
      </trkpt>
      <trkpt lat="51.144282789900899" lon="6.119370516389608">
        <ele>39.07</ele>
        <time>2015-11-08T10:51:26Z</time>
      </trkpt>
      <trkpt lat="51.144175501540303" lon="6.119040017947555">
        <ele>39.07</ele>
        <time>2015-11-08T10:51:39Z</time>
      </trkpt>
      <trkpt lat="51.14416753873229" lon="6.118998359888792">
        <ele>39.07</ele>
        <time>2015-11-08T10:51:41Z</time>
      </trkpt>
      <trkpt lat="51.144160497933626" lon="6.118949828669429">
        <ele>39.549999999999997</ele>
        <time>2015-11-08T10:51:43Z</time>
      </trkpt>
      <trkpt lat="51.144141387194395" lon="6.118895681574941">
        <ele>39.07</ele>
        <time>2015-11-08T10:51:46Z</time>
      </trkpt>
      <trkpt lat="51.144135100767016" lon="6.118876822292805">
        <ele>39.07</ele>
        <time>2015-11-08T10:51:47Z</time>
      </trkpt>
      <trkpt lat="51.144126886501908" lon="6.118854358792305">
        <ele>39.549999999999997</ele>
        <time>2015-11-08T10:51:48Z</time>
      </trkpt>
      <trkpt lat="51.144118085503578" lon="6.118834326043725">
        <ele>39.549999999999997</ele>
        <time>2015-11-08T10:51:49Z</time>
      </trkpt>
      <trkpt lat="51.144056143239141" lon="6.118829799816012">
        <ele>39.07</ele>
        <time>2015-11-08T10:51:53Z</time>
      </trkpt>
      <trkpt lat="51.144037032499909" lon="6.1188252735883">
        <ele>39.07</ele>
        <time>2015-11-08T10:51:54Z</time>
      </trkpt>
      <trkpt lat="51.144021693617105" lon="6.118828374892473">
        <ele>39.07</ele>
        <time>2015-11-08T10:51:55Z</time>
      </trkpt>
      <trkpt lat="51.14400283433497" lon="6.118831057101488">
        <ele>39.07</ele>
        <time>2015-11-08T10:51:56Z</time>
      </trkpt>
      <trkpt lat="51.143983975052834" lon="6.118831811472774">
        <ele>39.07</ele>
        <time>2015-11-08T10:51:57Z</time>
      </trkpt>
      <trkpt lat="51.143820779398084" lon="6.119085615500808">
        <ele>39.549999999999997</ele>
        <time>2015-11-08T10:52:10Z</time>
      </trkpt>
      <trkpt lat="51.14374341443181" lon="6.119149066507816">
        <ele>39.07</ele>
        <time>2015-11-08T10:52:15Z</time>
      </trkpt>
      <trkpt lat="51.143724471330643" lon="6.119152586907148">
        <ele>39.07</ele>
        <time>2015-11-08T10:52:16Z</time>
      </trkpt>
      <trkpt lat="51.14352447912097" lon="6.119091985747218">
        <ele>39.07</ele>
        <time>2015-11-08T10:52:29Z</time>
      </trkpt>
      <trkpt lat="51.14338961429894" lon="6.118991151452065">
        <ele>39.07</ele>
        <time>2015-11-08T10:52:38Z</time>
      </trkpt>
      <trkpt lat="51.143373604863882" lon="6.11898360773921">
        <ele>39.07</ele>
        <time>2015-11-08T10:52:39Z</time>
      </trkpt>
      <trkpt lat="51.143350889906287" lon="6.118972711265087">
        <ele>39.07</ele>
        <time>2015-11-08T10:52:41Z</time>
      </trkpt>
      <trkpt lat="51.143339574337006" lon="6.118959300220013">
        <ele>39.07</ele>
        <time>2015-11-08T10:52:42Z</time>
      </trkpt>
      <trkpt lat="51.143147293478251" lon="6.118801888078451">
        <ele>38.590000000000003</ele>
        <time>2015-11-08T10:52:54Z</time>
      </trkpt>
      <trkpt lat="51.142920311540365" lon="6.118798954412341">
        <ele>38.590000000000003</ele>
        <time>2015-11-08T10:53:07Z</time>
      </trkpt>
      <trkpt lat="51.142906816676259" lon="6.118801720440388">
        <ele>38.109999999999999</ele>
        <time>2015-11-08T10:53:08Z</time>
      </trkpt>
      <trkpt lat="51.142893740907311" lon="6.118800882250071">
        <ele>38.590000000000003</ele>
        <time>2015-11-08T10:53:09Z</time>
      </trkpt>
      <trkpt lat="51.142878485843539" lon="6.118796188384295">
        <ele>38.590000000000003</ele>
        <time>2015-11-08T10:53:10Z</time>
      </trkpt>
      <trkpt lat="51.14286239258945" lon="6.118788225576282">
        <ele>38.590000000000003</ele>
        <time>2015-11-08T10:53:11Z</time>
      </trkpt>
      <trkpt lat="51.14284579642117" lon="6.118775317445397">
        <ele>38.590000000000003</ele>
        <time>2015-11-08T10:53:12Z</time>
      </trkpt>
      <trkpt lat="51.142576988786459" lon="6.118687558919191">
        <ele>38.590000000000003</ele>
        <time>2015-11-08T10:53:27Z</time>
      </trkpt>
      <trkpt lat="51.142386551946402" lon="6.118651935830712">
        <ele>38.590000000000003</ele>
        <time>2015-11-08T10:53:39Z</time>
      </trkpt>
      <trkpt lat="51.142351096495986" lon="6.118691749870777">
        <ele>38.590000000000003</ele>
        <time>2015-11-08T10:53:42Z</time>
      </trkpt>
      <trkpt lat="51.142340451478958" lon="6.118714632466435">
        <ele>38.590000000000003</ele>
        <time>2015-11-08T10:53:43Z</time>
      </trkpt>
      <trkpt lat="51.142332321032882" lon="6.118740616366267">
        <ele>38.109999999999999</ele>
        <time>2015-11-08T10:53:44Z</time>
      </trkpt>
      <trkpt lat="51.142325783148408" lon="6.118770791217685">
        <ele>38.109999999999999</ele>
        <time>2015-11-08T10:53:45Z</time>
      </trkpt>
      <trkpt lat="51.142315808683634" lon="6.118797026574612">
        <ele>38.109999999999999</ele>
        <time>2015-11-08T10:53:46Z</time>
      </trkpt>
      <trkpt lat="51.142305163666606" lon="6.118837594985962">
        <ele>38.590000000000003</ele>
        <time>2015-11-08T10:53:48Z</time>
      </trkpt>
      <trkpt lat="51.142295943573117" lon="6.118852850049734">
        <ele>38.590000000000003</ele>
        <time>2015-11-08T10:53:49Z</time>
      </trkpt>
      <trkpt lat="51.142258979380131" lon="6.118922755122185">
        <ele>38.109999999999999</ele>
        <time>2015-11-08T10:53:54Z</time>
      </trkpt>
      <trkpt lat="51.142224026843905" lon="6.118942620232701">
        <ele>38.590000000000003</ele>
        <time>2015-11-08T10:53:57Z</time>
      </trkpt>
      <trkpt lat="51.142201814800501" lon="6.118949912488461">
        <ele>38.590000000000003</ele>
        <time>2015-11-08T10:53:58Z</time>
      </trkpt>
      <trkpt lat="51.142102321609855" lon="6.118900375440717">
        <ele>38.590000000000003</ele>
        <time>2015-11-08T10:54:05Z</time>
      </trkpt>
      <trkpt lat="51.142084300518036" lon="6.118898782879114">
        <ele>38.590000000000003</ele>
        <time>2015-11-08T10:54:06Z</time>
      </trkpt>
      <trkpt lat="51.142066866159439" lon="6.118902722373605">
        <ele>38.590000000000003</ele>
        <time>2015-11-08T10:54:07Z</time>
      </trkpt>
      <trkpt lat="51.141977934166789" lon="6.118927784264088">
        <ele>38.109999999999999</ele>
        <time>2015-11-08T10:54:16Z</time>
      </trkpt>
      <trkpt lat="51.141949351876974" lon="6.118978327140212">
        <ele>38.109999999999999</ele>
        <time>2015-11-08T10:54:20Z</time>
      </trkpt>
      <trkpt lat="51.141944574192166" lon="6.118996515870094">
        <ele>38.109999999999999</ele>
        <time>2015-11-08T10:54:21Z</time>
      </trkpt>
      <trkpt lat="51.141856899484992" lon="6.119315782561898">
        <ele>38.590000000000003</ele>
        <time>2015-11-08T10:54:35Z</time>
      </trkpt>
      <trkpt lat="51.141728907823563" lon="6.119702942669392">
        <ele>37.630000000000003</ele>
        <time>2015-11-08T10:54:51Z</time>
      </trkpt>
      <trkpt lat="51.141671240329742" lon="6.120021706447005">
        <ele>38.590000000000003</ele>
        <time>2015-11-08T10:55:05Z</time>
      </trkpt>
      <trkpt lat="51.141665205359459" lon="6.120045511052012">
        <ele>38.590000000000003</ele>
        <time>2015-11-08T10:55:06Z</time>
      </trkpt>
      <trkpt lat="51.141574932262301" lon="6.120400819927454">
        <ele>37.630000000000003</ele>
        <time>2015-11-08T10:55:20Z</time>
      </trkpt>
      <trkpt lat="51.14145465195179" lon="6.12070357427001">
        <ele>38.109999999999999</ele>
        <time>2015-11-08T10:55:33Z</time>
      </trkpt>
      <trkpt lat="51.141322972252965" lon="6.120866015553474">
        <ele>38.109999999999999</ele>
        <time>2015-11-08T10:55:42Z</time>
      </trkpt>
      <trkpt lat="51.14121082238853" lon="6.120928879827261">
        <ele>37.630000000000003</ele>
        <time>2015-11-08T10:55:49Z</time>
      </trkpt>
      <trkpt lat="51.141194393858314" lon="6.120933741331101">
        <ele>37.630000000000003</ele>
        <time>2015-11-08T10:55:50Z</time>
      </trkpt>
      <trkpt lat="51.141173858195543" lon="6.120943129062653">
        <ele>37.630000000000003</ele>
        <time>2015-11-08T10:55:51Z</time>
      </trkpt>
      <trkpt lat="51.14105299115181" lon="6.120988307520747">
        <ele>37.630000000000003</ele>
        <time>2015-11-08T10:56:00Z</time>
      </trkpt>
      <trkpt lat="51.141040921211243" lon="6.120970956981182">
        <ele>37.630000000000003</ele>
        <time>2015-11-08T10:56:01Z</time>
      </trkpt>
      <trkpt lat="51.141029605641961" lon="6.120940279215574">
        <ele>37.630000000000003</ele>
        <time>2015-11-08T10:56:02Z</time>
      </trkpt>
      <trkpt lat="51.140861045569181" lon="6.120720002800226">
        <ele>37.630000000000003</ele>
        <time>2015-11-08T10:56:16Z</time>
      </trkpt>
      <trkpt lat="51.140747051686049" lon="6.120575834065676">
        <ele>38.109999999999999</ele>
        <time>2015-11-08T10:56:25Z</time>
      </trkpt>
      <trkpt lat="51.140637919306755" lon="6.12059167586267">
        <ele>38.590000000000003</ele>
        <time>2015-11-08T10:56:32Z</time>
      </trkpt>
      <trkpt lat="51.140624340623617" lon="6.120595447719097">
        <ele>39.07</ele>
        <time>2015-11-08T10:56:33Z</time>
      </trkpt>
      <trkpt lat="51.140605984255672" lon="6.120595447719097">
        <ele>39.07</ele>
        <time>2015-11-08T10:56:34Z</time>
      </trkpt>
      <trkpt lat="51.14048277027905" lon="6.120559824630618">
        <ele>39.07</ele>
        <time>2015-11-08T10:56:41Z</time>
      </trkpt>
      <trkpt lat="51.140417726710439" lon="6.120641715824604">
        <ele>39.07</ele>
        <time>2015-11-08T10:56:47Z</time>
      </trkpt>
      <trkpt lat="51.140399035066366" lon="6.120692761614919">
        <ele>38.590000000000003</ele>
        <time>2015-11-08T10:56:49Z</time>
      </trkpt>
      <trkpt lat="51.140391239896417" lon="6.120717572048307">
        <ele>38.590000000000003</ele>
        <time>2015-11-08T10:56:50Z</time>
      </trkpt>
      <trkpt lat="51.140383444726467" lon="6.120742466300726">
        <ele>40.030000000000001</ele>
        <time>2015-11-08T10:56:51Z</time>
      </trkpt>
      <trkpt lat="51.140377158299088" lon="6.120765684172511">
        <ele>39.07</ele>
        <time>2015-11-08T10:56:52Z</time>
      </trkpt>
      <trkpt lat="51.140306498855352" lon="6.120876157656312">
        <ele>39.07</ele>
        <time>2015-11-08T10:56:58Z</time>
      </trkpt>
      <trkpt lat="51.140286549925804" lon="6.120891328901053">
        <ele>39.07</ele>
        <time>2015-11-08T10:56:59Z</time>
      </trkpt>
      <trkpt lat="51.140262493863702" lon="6.120918653905392">
        <ele>39.07</ele>
        <time>2015-11-08T10:57:01Z</time>
      </trkpt>
      <trkpt lat="51.140248915180564" lon="6.120942123234272">
        <ele>39.07</ele>
        <time>2015-11-08T10:57:02Z</time>
      </trkpt>
      <trkpt lat="51.140097789466381" lon="6.121180420741439">
        <ele>39.549999999999997</ele>
        <time>2015-11-08T10:57:17Z</time>
      </trkpt>
      <trkpt lat="51.139985807240009" lon="6.121316123753786">
        <ele>39.549999999999997</ele>
        <time>2015-11-08T10:57:26Z</time>
      </trkpt>
      <trkpt lat="51.139941466972232" lon="6.121344873681665">
        <ele>38.109999999999999</ele>
        <time>2015-11-08T10:57:29Z</time>
      </trkpt>
      <trkpt lat="51.13991011865437" lon="6.121360464021564">
        <ele>39.549999999999997</ele>
        <time>2015-11-08T10:57:31Z</time>
      </trkpt>
      <trkpt lat="51.139805428683758" lon="6.121346633881331">
        <ele>40.030000000000001</ele>
        <time>2015-11-08T10:57:44Z</time>
      </trkpt>
      <trkpt lat="51.139564616605639" lon="6.121578142046928">
        <ele>39.549999999999997</ele>
        <time>2015-11-08T10:58:03Z</time>
      </trkpt>
      <trkpt lat="51.1393300909549" lon="6.121840747073293">
        <ele>40.509999999999998</ele>
        <time>2015-11-08T10:58:20Z</time>
      </trkpt>
      <trkpt lat="51.139324307441711" lon="6.121851140633225">
        <ele>40.509999999999998</ele>
        <time>2015-11-08T10:58:21Z</time>
      </trkpt>
      <trkpt lat="51.13922506570816" lon="6.121878968551755">
        <ele>40.030000000000001</ele>
        <time>2015-11-08T10:58:29Z</time>
      </trkpt>
      <trkpt lat="51.139188436791301" lon="6.121926745399833">
        <ele>40.030000000000001</ele>
        <time>2015-11-08T10:58:33Z</time>
      </trkpt>
      <trkpt lat="51.138944020494819" lon="6.122148027643561">
        <ele>39.07</ele>
        <time>2015-11-08T10:58:49Z</time>
      </trkpt>
      <trkpt lat="51.138703376054764" lon="6.122359000146389">
        <ele>38.590000000000003</ele>
        <time>2015-11-08T10:59:05Z</time>
      </trkpt>
      <trkpt lat="51.138460887596011" lon="6.122583886608481">
        <ele>38.590000000000003</ele>
        <time>2015-11-08T10:59:21Z</time>
      </trkpt>
      <trkpt lat="51.138272797688842" lon="6.122755631804466">
        <ele>39.07</ele>
        <time>2015-11-08T10:59:33Z</time>
      </trkpt>
      <trkpt lat="51.138294255360961" lon="6.122923940420151">
        <ele>38.590000000000003</ele>
        <time>2015-11-08T10:59:40Z</time>
      </trkpt>
      <trkpt lat="51.138440687209368" lon="6.123286793008447">
        <ele>39.549999999999997</ele>
        <time>2015-11-08T10:59:56Z</time>
      </trkpt>
      <trkpt lat="51.138588627800345" lon="6.123621817678213">
        <ele>40.030000000000001</ele>
        <time>2015-11-08T11:00:09Z</time>
      </trkpt>
      <trkpt lat="51.138750985264778" lon="6.124040577560663">
        <ele>40.509999999999998</ele>
        <time>2015-11-08T11:00:24Z</time>
      </trkpt>
      <trkpt lat="51.138785434886813" lon="6.124163120985031">
        <ele>40.030000000000001</ele>
        <time>2015-11-08T11:00:29Z</time>
      </trkpt>
      <trkpt lat="51.13886003382504" lon="6.124336291104555">
        <ele>40.509999999999998</ele>
        <time>2015-11-08T11:00:37Z</time>
      </trkpt>
      <trkpt lat="51.138893309980631" lon="6.124395802617073">
        <ele>40.509999999999998</ele>
        <time>2015-11-08T11:00:40Z</time>
      </trkpt>
      <trkpt lat="51.138956341892481" lon="6.124492697417736">
        <ele>40.509999999999998</ele>
        <time>2015-11-08T11:00:46Z</time>
      </trkpt>
      <trkpt lat="51.13900906406343" lon="6.124612055718899">
        <ele>40.990000000000002</ele>
        <time>2015-11-08T11:00:52Z</time>
      </trkpt>
      <trkpt lat="51.139076873660088" lon="6.124784639105201">
        <ele>40.990000000000002</ele>
        <time>2015-11-08T11:01:01Z</time>
      </trkpt>
      <trkpt lat="51.139118447899818" lon="6.124924030154944">
        <ele>41.469999999999999</ele>
        <time>2015-11-08T11:01:07Z</time>
      </trkpt>
      <trkpt lat="51.139232777059078" lon="6.125167440623045">
        <ele>42.439999999999998</ele>
        <time>2015-11-08T11:01:20Z</time>
      </trkpt>
      <trkpt lat="51.139274518936872" lon="6.125282943248749">
        <ele>42.439999999999998</ele>
        <time>2015-11-08T11:01:25Z</time>
      </trkpt>
      <trkpt lat="51.139290444552898" lon="6.125315800309181">
        <ele>42.439999999999998</ele>
        <time>2015-11-08T11:01:27Z</time>
      </trkpt>
      <trkpt lat="51.139341406524181" lon="6.125398362055421">
        <ele>42.439999999999998</ele>
        <time>2015-11-08T11:01:32Z</time>
      </trkpt>
      <trkpt lat="51.139446264132857" lon="6.125711342319846">
        <ele>43.399999999999999</ele>
        <time>2015-11-08T11:01:47Z</time>
      </trkpt>
      <trkpt lat="51.139565957710147" lon="6.125995572656393">
        <ele>43.399999999999999</ele>
        <time>2015-11-08T11:01:58Z</time>
      </trkpt>
      <trkpt lat="51.13960225135088" lon="6.126153571531177">
        <ele>43.399999999999999</ele>
        <time>2015-11-08T11:02:05Z</time>
      </trkpt>
      <trkpt lat="51.139725632965565" lon="6.126447608694434">
        <ele>43.880000000000003</ele>
        <time>2015-11-08T11:02:19Z</time>
      </trkpt>
      <trkpt lat="51.139839878305793" lon="6.126658748835325">
        <ele>44.359999999999999</ele>
        <time>2015-11-08T11:02:30Z</time>
      </trkpt>
      <trkpt lat="51.139882458373904" lon="6.126784896478057">
        <ele>44.840000000000003</ele>
        <time>2015-11-08T11:02:36Z</time>
      </trkpt>
      <trkpt lat="51.139987986534834" lon="6.127101900056005">
        <ele>45.799999999999997</ele>
        <time>2015-11-08T11:02:50Z</time>
      </trkpt>
      <trkpt lat="51.140152858570218" lon="6.127469027414918">
        <ele>47.719999999999999</ele>
        <time>2015-11-08T11:03:08Z</time>
      </trkpt>
      <trkpt lat="51.140188230201602" lon="6.127589559182525">
        <ele>48.200000000000003</ele>
        <time>2015-11-08T11:03:13Z</time>
      </trkpt>
      <trkpt lat="51.140218824148178" lon="6.127662900835276">
        <ele>48.200000000000003</ele>
        <time>2015-11-08T11:03:17Z</time>
      </trkpt>
      <trkpt lat="51.140301302075386" lon="6.127858199179173">
        <ele>48.68</ele>
        <time>2015-11-08T11:03:27Z</time>
      </trkpt>
      <trkpt lat="51.140317814424634" lon="6.127943694591522">
        <ele>49.159999999999997</ele>
        <time>2015-11-08T11:03:31Z</time>
      </trkpt>
      <trkpt lat="51.140496013686061" lon="6.128298668190837">
        <ele>49.649999999999999</ele>
        <time>2015-11-08T11:03:50Z</time>
      </trkpt>
      <trkpt lat="51.140607744455338" lon="6.12853872589767">
        <ele>48.200000000000003</ele>
        <time>2015-11-08T11:04:01Z</time>
      </trkpt>
      <trkpt lat="51.140628615394235" lon="6.128580383956432">
        <ele>47.719999999999999</ele>
        <time>2015-11-08T11:04:03Z</time>
      </trkpt>
      <trkpt lat="51.140680834650993" lon="6.128722541034222">
        <ele>48.200000000000003</ele>
        <time>2015-11-08T11:04:09Z</time>
      </trkpt>
      <trkpt lat="51.140837576240301" lon="6.129107438027859">
        <ele>48.200000000000003</ele>
        <time>2015-11-08T11:04:26Z</time>
      </trkpt>
      <trkpt lat="51.140864817425609" lon="6.129299970343709">
        <ele>48.200000000000003</ele>
        <time>2015-11-08T11:04:34Z</time>
      </trkpt>
      <trkpt lat="51.140701957046986" lon="6.129517983645201">
        <ele>47.719999999999999</ele>
        <time>2015-11-08T11:04:47Z</time>
      </trkpt>
      <trkpt lat="51.140503473579884" lon="6.129791904240847">
        <ele>47.719999999999999</ele>
        <time>2015-11-08T11:05:03Z</time>
      </trkpt>
      <trkpt lat="51.140315635129809" lon="6.129982843995094">
        <ele>47.719999999999999</ele>
        <time>2015-11-08T11:05:17Z</time>
      </trkpt>
      <trkpt lat="51.140292081981897" lon="6.130000613629818">
        <ele>47.719999999999999</ele>
        <time>2015-11-08T11:05:19Z</time>
      </trkpt>
      <trkpt lat="51.140234665945172" lon="6.130105555057526">
        <ele>47.719999999999999</ele>
        <time>2015-11-08T11:05:25Z</time>
      </trkpt>
      <trkpt lat="51.14005378447473" lon="6.130303870886564">
        <ele>47.240000000000002</ele>
        <time>2015-11-08T11:05:39Z</time>
      </trkpt>
      <trkpt lat="51.139878099784255" lon="6.130507551133633">
        <ele>46.759999999999998</ele>
        <time>2015-11-08T11:05:53Z</time>
      </trkpt>
      <trkpt lat="51.139689758419991" lon="6.130709974095225">
        <ele>45.799999999999997</ele>
        <time>2015-11-08T11:06:07Z</time>
      </trkpt>
      <trkpt lat="51.139615746214986" lon="6.130796559154987">
        <ele>45.799999999999997</ele>
        <time>2015-11-08T11:06:12Z</time>
      </trkpt>
      <trkpt lat="51.139572830870748" lon="6.13083578646183">
        <ele>45.32</ele>
        <time>2015-11-08T11:06:15Z</time>
      </trkpt>
      <trkpt lat="51.139316596090794" lon="6.131159411743283">
        <ele>44.840000000000003</ele>
        <time>2015-11-08T11:06:26Z</time>
      </trkpt>
      <trkpt lat="51.139061199501157" lon="6.13142017275095">
        <ele>44.840000000000003</ele>
        <time>2015-11-08T11:06:36Z</time>
      </trkpt>
      <trkpt lat="51.138829020783305" lon="6.131693758070469">
        <ele>46.759999999999998</ele>
        <time>2015-11-08T11:06:46Z</time>
      </trkpt>
      <trkpt lat="51.138592315837741" lon="6.13200162537396">
        <ele>47.240000000000002</ele>
        <time>2015-11-08T11:06:57Z</time>
      </trkpt>
      <trkpt lat="51.138313617557287" lon="6.132316030561924">
        <ele>47.240000000000002</ele>
        <time>2015-11-08T11:07:07Z</time>
      </trkpt>
      <trkpt lat="51.138293836265802" lon="6.132345283403993">
        <ele>47.240000000000002</ele>
        <time>2015-11-08T11:07:08Z</time>
      </trkpt>
      <trkpt lat="51.138170035555959" lon="6.132486602291465">
        <ele>47.719999999999999</ele>
        <time>2015-11-08T11:07:13Z</time>
      </trkpt>
      <trkpt lat="51.137847499921918" lon="6.132879629731178">
        <ele>47.719999999999999</ele>
        <time>2015-11-08T11:07:25Z</time>
      </trkpt>
      <trkpt lat="51.137629235163331" lon="6.133115747943521">
        <ele>48.68</ele>
        <time>2015-11-08T11:07:34Z</time>
      </trkpt>
      <trkpt lat="51.137331677600741" lon="6.133472649380565">
        <ele>48.68</ele>
        <time>2015-11-08T11:07:46Z</time>
      </trkpt>
      <trkpt lat="51.136942002922297" lon="6.133908005431294">
        <ele>49.159999999999997</ele>
        <time>2015-11-08T11:07:59Z</time>
      </trkpt>
      <trkpt lat="51.136632123962045" lon="6.134296674281359">
        <ele>48.68</ele>
        <time>2015-11-08T11:08:12Z</time>
      </trkpt>
      <trkpt lat="51.136417714878917" lon="6.13453078083694">
        <ele>49.159999999999997</ele>
        <time>2015-11-08T11:08:22Z</time>
      </trkpt>
      <trkpt lat="51.136169945821166" lon="6.134835882112384">
        <ele>49.649999999999999</ele>
        <time>2015-11-08T11:08:32Z</time>
      </trkpt>
      <trkpt lat="51.135946400463581" lon="6.13511810079217">
        <ele>49.649999999999999</ele>
        <time>2015-11-08T11:08:41Z</time>
      </trkpt>
      <trkpt lat="51.135734254494309" lon="6.135368384420872">
        <ele>49.649999999999999</ele>
        <time>2015-11-08T11:08:55Z</time>
      </trkpt>
      <trkpt lat="51.135554043576121" lon="6.135547338053584">
        <ele>50.130000000000003</ele>
        <time>2015-11-08T11:09:07Z</time>
      </trkpt>
      <trkpt lat="51.135436948388815" lon="6.135644987225533">
        <ele>49.649999999999999</ele>
        <time>2015-11-08T11:09:16Z</time>
      </trkpt>
      <trkpt lat="51.135320942848921" lon="6.135802064090967">
        <ele>49.159999999999997</ele>
        <time>2015-11-08T11:09:26Z</time>
      </trkpt>
      <trkpt lat="51.135272830724716" lon="6.135855624452233">
        <ele>49.649999999999999</ele>
        <time>2015-11-08T11:09:30Z</time>
      </trkpt>
      <trkpt lat="51.135152718052268" lon="6.136163072660565">
        <ele>49.649999999999999</ele>
        <time>2015-11-08T11:09:46Z</time>
      </trkpt>
      <trkpt lat="51.135174594819546" lon="6.136245634406805">
        <ele>49.649999999999999</ele>
        <time>2015-11-08T11:09:50Z</time>
      </trkpt>
      <trkpt lat="51.135199656710029" lon="6.136350240558386">
        <ele>50.130000000000003</ele>
        <time>2015-11-08T11:09:56Z</time>
      </trkpt>
      <trkpt lat="51.135323541238904" lon="6.136589795351028">
        <ele>49.649999999999999</ele>
        <time>2015-11-08T11:10:08Z</time>
      </trkpt>
      <trkpt lat="51.135366791859269" lon="6.136675290763378">
        <ele>49.649999999999999</ele>
        <time>2015-11-08T11:10:12Z</time>
      </trkpt>
      <trkpt lat="51.135423788800836" lon="6.136761121451855">
        <ele>48.200000000000003</ele>
        <time>2015-11-08T11:10:17Z</time>
      </trkpt>
      <trkpt lat="51.135533675551414" lon="6.137114251032472">
        <ele>49.649999999999999</ele>
        <time>2015-11-08T11:10:32Z</time>
      </trkpt>
      <trkpt lat="51.135575920343399" lon="6.137223467230797">
        <ele>50.130000000000003</ele>
        <time>2015-11-08T11:10:37Z</time>
      </trkpt>
      <trkpt lat="51.135589247569442" lon="6.137259509414434">
        <ele>49.649999999999999</ele>
        <time>2015-11-08T11:10:39Z</time>
      </trkpt>
      <trkpt lat="51.135769039392471" lon="6.13774985074997">
        <ele>50.130000000000003</ele>
        <time>2015-11-08T11:10:51Z</time>
      </trkpt>
      <trkpt lat="51.135973641648889" lon="6.138196690008044">
        <ele>49.649999999999999</ele>
        <time>2015-11-08T11:10:58Z</time>
      </trkpt>
      <trkpt lat="51.136000128462911" lon="6.138260392472148">
        <ele>49.649999999999999</ele>
        <time>2015-11-08T11:10:59Z</time>
      </trkpt>
      <trkpt lat="51.136290309950709" lon="6.139091122895479">
        <ele>50.130000000000003</ele>
        <time>2015-11-08T11:11:11Z</time>
      </trkpt>
      <trkpt lat="51.136479070410132" lon="6.139529999345541">
        <ele>50.609999999999999</ele>
        <time>2015-11-08T11:11:17Z</time>
      </trkpt>
      <trkpt lat="51.13659038208425" lon="6.139813726767898">
        <ele>49.649999999999999</ele>
        <time>2015-11-08T11:11:21Z</time>
      </trkpt>
      <trkpt lat="51.136870421469212" lon="6.140561476349831">
        <ele>51.57</ele>
        <time>2015-11-08T11:11:31Z</time>
      </trkpt>
      <trkpt lat="51.136906966567039" lon="6.140687791630626">
        <ele>51.57</ele>
        <time>2015-11-08T11:11:33Z</time>
      </trkpt>
      <trkpt lat="51.136934543028474" lon="6.140744034200907">
        <ele>51.090000000000003</ele>
        <time>2015-11-08T11:11:34Z</time>
      </trkpt>
      <trkpt lat="51.136962538585067" lon="6.140800276771188">
        <ele>51.090000000000003</ele>
        <time>2015-11-08T11:11:35Z</time>
      </trkpt>
      <trkpt lat="51.137028504163027" lon="6.140974368900061">
        <ele>50.609999999999999</ele>
        <time>2015-11-08T11:11:38Z</time>
      </trkpt>
      <trkpt lat="51.137132523581386" lon="6.141240829601884">
        <ele>51.090000000000003</ele>
        <time>2015-11-08T11:11:42Z</time>
      </trkpt>
      <trkpt lat="51.137177953496575" lon="6.14138382486999">
        <ele>52.049999999999997</ele>
        <time>2015-11-08T11:11:44Z</time>
      </trkpt>
      <trkpt lat="51.137515241280198" lon="6.142175998538733">
        <ele>51.090000000000003</ele>
        <time>2015-11-08T11:11:56Z</time>
      </trkpt>
      <trkpt lat="51.137539716437459" lon="6.142242718487978">
        <ele>51.090000000000003</ele>
        <time>2015-11-08T11:11:57Z</time>
      </trkpt>
      <trkpt lat="51.137764938175678" lon="6.142773544415832">
        <ele>52.049999999999997</ele>
        <time>2015-11-08T11:12:08Z</time>
      </trkpt>
      <trkpt lat="51.137834507972002" lon="6.142995329573751">
        <ele>51.090000000000003</ele>
        <time>2015-11-08T11:12:18Z</time>
      </trkpt>
      <trkpt lat="51.137845823541284" lon="6.143316440284252">
        <ele>52.049999999999997</ele>
        <time>2015-11-08T11:12:31Z</time>
      </trkpt>
      <trkpt lat="51.137694614008069" lon="6.14355331286788">
        <ele>52.530000000000001</ele>
        <time>2015-11-08T11:12:44Z</time>
      </trkpt>
      <trkpt lat="51.137498980388045" lon="6.143793957307935">
        <ele>52.049999999999997</ele>
        <time>2015-11-08T11:12:58Z</time>
      </trkpt>
      <trkpt lat="51.137309717014432" lon="6.144031416624785">
        <ele>52.049999999999997</ele>
        <time>2015-11-08T11:13:13Z</time>
      </trkpt>
      <trkpt lat="51.137096900492907" lon="6.144307516515255">
        <ele>52.530000000000001</ele>
        <time>2015-11-08T11:13:30Z</time>
      </trkpt>
      <trkpt lat="51.136934878304601" lon="6.144511112943292">
        <ele>52.530000000000001</ele>
        <time>2015-11-08T11:13:43Z</time>
      </trkpt>
      <trkpt lat="51.13673496991396" lon="6.144737089052796">
        <ele>52.530000000000001</ele>
        <time>2015-11-08T11:13:58Z</time>
      </trkpt>
      <trkpt lat="51.136548221111298" lon="6.144934566691518">
        <ele>53.490000000000002</ele>
        <time>2015-11-08T11:14:11Z</time>
      </trkpt>
      <trkpt lat="51.136347223073244" lon="6.145188873633742">
        <ele>54.450000000000003</ele>
        <time>2015-11-08T11:14:26Z</time>
      </trkpt>
      <trkpt lat="51.136141279712319" lon="6.145420549437404">
        <ele>54.93</ele>
        <time>2015-11-08T11:14:41Z</time>
      </trkpt>
      <trkpt lat="51.135931396856904" lon="6.145661529153585">
        <ele>54.93</ele>
        <time>2015-11-08T11:14:56Z</time>
      </trkpt>
      <trkpt lat="51.135727381333709" lon="6.145895719528198">
        <ele>55.409999999999997</ele>
        <time>2015-11-08T11:15:11Z</time>
      </trkpt>
      <trkpt lat="51.135562090203166" lon="6.146089257672429">
        <ele>55.890000000000001</ele>
        <time>2015-11-08T11:15:23Z</time>
      </trkpt>
      <trkpt lat="51.135359331965446" lon="6.146322945132852">
        <ele>55.890000000000001</ele>
        <time>2015-11-08T11:15:38Z</time>
      </trkpt>
      <trkpt lat="51.135130254551768" lon="6.14657498896122">
        <ele>56.369999999999997</ele>
        <time>2015-11-08T11:15:54Z</time>
      </trkpt>
      <trkpt lat="51.134945014491677" lon="6.146797779947519">
        <ele>56.859999999999999</ele>
        <time>2015-11-08T11:16:09Z</time>
      </trkpt>
      <trkpt lat="51.134750219061971" lon="6.147023923695087">
        <ele>56.859999999999999</ele>
        <time>2015-11-08T11:16:23Z</time>
      </trkpt>
      <trkpt lat="51.134581407532096" lon="6.147200530394912">
        <ele>56.859999999999999</ele>
        <time>2015-11-08T11:16:36Z</time>
      </trkpt>
      <trkpt lat="51.134381918236613" lon="6.147417286410928">
        <ele>55.890000000000001</ele>
        <time>2015-11-08T11:16:51Z</time>
      </trkpt>
      <trkpt lat="51.134408069774508" lon="6.14770763553679">
        <ele>56.369999999999997</ele>
        <time>2015-11-08T11:17:03Z</time>
      </trkpt>
      <trkpt lat="51.134449224919081" lon="6.147850546985865">
        <ele>56.859999999999999</ele>
        <time>2015-11-08T11:17:10Z</time>
      </trkpt>
      <trkpt lat="51.134458612650633" lon="6.147876530885696">
        <ele>56.859999999999999</ele>
        <time>2015-11-08T11:17:11Z</time>
      </trkpt>
      <trkpt lat="51.134467078372836" lon="6.147903855890036">
        <ele>56.859999999999999</ele>
        <time>2015-11-08T11:17:12Z</time>
      </trkpt>
      <trkpt lat="51.134545784443617" lon="6.148165874183178">
        <ele>57.340000000000003</ele>
        <time>2015-11-08T11:17:24Z</time>
      </trkpt>
      <trkpt lat="51.134620551019907" lon="6.148349521681666">
        <ele>57.82</ele>
        <time>2015-11-08T11:17:33Z</time>
      </trkpt>
      <trkpt lat="51.134629938751459" lon="6.148366117849946">
        <ele>57.340000000000003</ele>
        <time>2015-11-08T11:17:34Z</time>
      </trkpt>
      <trkpt lat="51.134676625952125" lon="6.148490756750107">
        <ele>57.82</ele>
        <time>2015-11-08T11:17:40Z</time>
      </trkpt>
      <trkpt lat="51.134685007855296" lon="6.148511208593845">
        <ele>57.82</ele>
        <time>2015-11-08T11:17:41Z</time>
      </trkpt>
      <trkpt lat="51.134692635387182" lon="6.148534929379821">
        <ele>57.82</ele>
        <time>2015-11-08T11:17:42Z</time>
      </trkpt>
      <trkpt lat="51.134846359491348" lon="6.148922340944409">
        <ele>58.299999999999997</ele>
        <time>2015-11-08T11:17:56Z</time>
      </trkpt>
      <trkpt lat="51.134962532669306" lon="6.149210259318352">
        <ele>58.780000000000001</ele>
        <time>2015-11-08T11:18:10Z</time>
      </trkpt>
      <trkpt lat="51.135070659220219" lon="6.149441516026855">
        <ele>58.299999999999997</ele>
        <time>2015-11-08T11:18:22Z</time>
      </trkpt>
      <trkpt lat="51.135076023638248" lon="6.149470014497638">
        <ele>58.299999999999997</ele>
        <time>2015-11-08T11:18:23Z</time>
      </trkpt>
      <trkpt lat="51.135081555694342" lon="6.149500608444214">
        <ele>58.299999999999997</ele>
        <time>2015-11-08T11:18:24Z</time>
      </trkpt>
      <trkpt lat="51.135088428854942" lon="6.149533046409488">
        <ele>58.299999999999997</ele>
        <time>2015-11-08T11:18:25Z</time>
      </trkpt>
      <trkpt lat="51.135184904560447" lon="6.149837812408805">
        <ele>59.740000000000002</ele>
        <time>2015-11-08T11:18:38Z</time>
      </trkpt>
      <trkpt lat="51.135321194306016" lon="6.150118773803115">
        <ele>60.219999999999999</ele>
        <time>2015-11-08T11:18:53Z</time>
      </trkpt>
      <trkpt lat="51.135415825992823" lon="6.150387497618794">
        <ele>61.659999999999997</ele>
        <time>2015-11-08T11:19:05Z</time>
      </trkpt>
      <trkpt lat="51.135449856519699" lon="6.150480201467872">
        <ele>61.659999999999997</ele>
        <time>2015-11-08T11:19:09Z</time>
      </trkpt>
      <trkpt lat="51.135479109361768" lon="6.15059545263648">
        <ele>62.140000000000001</ele>
        <time>2015-11-08T11:19:15Z</time>
      </trkpt>
      <trkpt lat="51.135601904243231" lon="6.150903319939971">
        <ele>64.069999999999993</ele>
        <time>2015-11-08T11:19:30Z</time>
      </trkpt>
      <trkpt lat="51.135711623355746" lon="6.151226609945297">
        <ele>62.140000000000001</ele>
        <time>2015-11-08T11:19:44Z</time>
      </trkpt>
      <trkpt lat="51.135767446830869" lon="6.151356529444456">
        <ele>62.140000000000001</ele>
        <time>2015-11-08T11:19:50Z</time>
      </trkpt>
      <trkpt lat="51.135777253657579" lon="6.151378322392702">
        <ele>62.140000000000001</ele>
        <time>2015-11-08T11:19:51Z</time>
      </trkpt>
      <trkpt lat="51.135796532034874" lon="6.151437247171998">
        <ele>62.140000000000001</ele>
        <time>2015-11-08T11:19:54Z</time>
      </trkpt>
      <trkpt lat="51.135818408802152" lon="6.151606813073158">
        <ele>62.140000000000001</ele>
        <time>2015-11-08T11:20:01Z</time>
      </trkpt>
      <trkpt lat="51.135818492621183" lon="6.151630450040102">
        <ele>62.140000000000001</ele>
        <time>2015-11-08T11:20:02Z</time>
      </trkpt>
      <trkpt lat="51.135847410187125" lon="6.151682669296861">
        <ele>62.140000000000001</ele>
        <time>2015-11-08T11:20:05Z</time>
      </trkpt>
      <trkpt lat="51.135924775153399" lon="6.151821054518223">
        <ele>62.140000000000001</ele>
        <time>2015-11-08T11:20:11Z</time>
      </trkpt>
      <trkpt lat="51.135937264189124" lon="6.151843098923564">
        <ele>62.140000000000001</ele>
        <time>2015-11-08T11:20:12Z</time>
      </trkpt>
      <trkpt lat="51.136002307757735" lon="6.151976622641087">
        <ele>62.140000000000001</ele>
        <time>2015-11-08T11:20:18Z</time>
      </trkpt>
      <trkpt lat="51.136007253080606" lon="6.152005456387997">
        <ele>62.619999999999997</ele>
        <time>2015-11-08T11:20:19Z</time>
      </trkpt>
      <trkpt lat="51.136012449860573" lon="6.15203395485878">
        <ele>61.18</ele>
        <time>2015-11-08T11:20:20Z</time>
      </trkpt>
      <trkpt lat="51.136019323021173" lon="6.15205449052155">
        <ele>63.100000000000001</ele>
        <time>2015-11-08T11:20:21Z</time>
      </trkpt>
      <trkpt lat="51.136028626933694" lon="6.152074104174972">
        <ele>63.579999999999998</ele>
        <time>2015-11-08T11:20:22Z</time>
      </trkpt>
      <trkpt lat="51.136040110141039" lon="6.152093382552266">
        <ele>62.619999999999997</ele>
        <time>2015-11-08T11:20:23Z</time>
      </trkpt>
      <trkpt lat="51.136119151487947" lon="6.152275186032057">
        <ele>63.100000000000001</ele>
        <time>2015-11-08T11:20:31Z</time>
      </trkpt>
      <trkpt lat="51.136130718514323" lon="6.15229144692421">
        <ele>63.100000000000001</ele>
        <time>2015-11-08T11:20:32Z</time>
      </trkpt>
      <trkpt lat="51.136253848671913" lon="6.152635104954243">
        <ele>63.100000000000001</ele>
        <time>2015-11-08T11:20:47Z</time>
      </trkpt>
      <trkpt lat="51.136381337419152" lon="6.152938026934862">
        <ele>64.069999999999993</ele>
        <time>2015-11-08T11:21:01Z</time>
      </trkpt>
      <trkpt lat="51.1364755500108" lon="6.153178671374917">
        <ele>64.069999999999993</ele>
        <time>2015-11-08T11:21:12Z</time>
      </trkpt>
      <trkpt lat="51.136485608294606" lon="6.153206750750542">
        <ele>64.069999999999993</ele>
        <time>2015-11-08T11:21:13Z</time>
      </trkpt>
      <trkpt lat="51.136496504768729" lon="6.153233572840691">
        <ele>64.069999999999993</ele>
        <time>2015-11-08T11:21:14Z</time>
      </trkpt>
      <trkpt lat="51.136508071795106" lon="6.153259472921491">
        <ele>64.549999999999997</ele>
        <time>2015-11-08T11:21:15Z</time>
      </trkpt>
      <trkpt lat="51.136520309373736" lon="6.153283528983593">
        <ele>64.549999999999997</ele>
        <time>2015-11-08T11:21:16Z</time>
      </trkpt>
      <trkpt lat="51.136529613286257" lon="6.15331563167274">
        <ele>64.549999999999997</ele>
        <time>2015-11-08T11:21:17Z</time>
      </trkpt>
      <trkpt lat="51.136536570265889" lon="6.153347566723824">
        <ele>64.549999999999997</ele>
        <time>2015-11-08T11:21:18Z</time>
      </trkpt>
      <trkpt lat="51.136543694883585" lon="6.153376735746861">
        <ele>64.549999999999997</ele>
        <time>2015-11-08T11:21:19Z</time>
      </trkpt>
      <trkpt lat="51.136552495881915" lon="6.153401546180248">
        <ele>64.549999999999997</ele>
        <time>2015-11-08T11:21:20Z</time>
      </trkpt>
      <trkpt lat="51.136561883613467" lon="6.153423255309463">
        <ele>64.549999999999997</ele>
        <time>2015-11-08T11:21:21Z</time>
      </trkpt>
      <trkpt lat="51.136572696268559" lon="6.153445215895772">
        <ele>65.030000000000001</ele>
        <time>2015-11-08T11:21:22Z</time>
      </trkpt>
      <trkpt lat="51.136578815057874" lon="6.153474636375904">
        <ele>65.030000000000001</ele>
        <time>2015-11-08T11:21:23Z</time>
      </trkpt>
      <trkpt lat="51.13662650808692" lon="6.153598604723811">
        <ele>65.030000000000001</ele>
        <time>2015-11-08T11:21:29Z</time>
      </trkpt>
      <trkpt lat="51.13675651140511" lon="6.153902281075716">
        <ele>65.510000000000005</ele>
        <time>2015-11-08T11:21:43Z</time>
      </trkpt>
      <trkpt lat="51.136859189718962" lon="6.15419028326869">
        <ele>65.989999999999995</ele>
        <time>2015-11-08T11:21:55Z</time>
      </trkpt>
      <trkpt lat="51.136865140870214" lon="6.15420931018889">
        <ele>65.989999999999995</ele>
        <time>2015-11-08T11:21:56Z</time>
      </trkpt>
      <trkpt lat="51.136871092021465" lon="6.154228840023279">
        <ele>65.989999999999995</ele>
        <time>2015-11-08T11:21:57Z</time>
      </trkpt>
      <trkpt lat="51.136878300458193" lon="6.154250213876367">
        <ele>65.989999999999995</ele>
        <time>2015-11-08T11:21:58Z</time>
      </trkpt>
      <trkpt lat="51.136885257437825" lon="6.154270665720105">
        <ele>65.989999999999995</ele>
        <time>2015-11-08T11:21:59Z</time>
      </trkpt>
      <trkpt lat="51.136891040951014" lon="6.154288100078702">
        <ele>65.989999999999995</ele>
        <time>2015-11-08T11:22:00Z</time>
      </trkpt>
      <trkpt lat="51.136898081749678" lon="6.154306707903743">
        <ele>65.989999999999995</ele>
        <time>2015-11-08T11:22:01Z</time>
      </trkpt>
      <trkpt lat="51.137024816125631" lon="6.154649360105395">
        <ele>66.469999999999999</ele>
        <time>2015-11-08T11:22:15Z</time>
      </trkpt>
      <trkpt lat="51.137029342353344" lon="6.154682384803891">
        <ele>65.989999999999995</ele>
        <time>2015-11-08T11:22:16Z</time>
      </trkpt>
      <trkpt lat="51.137037808075547" lon="6.154707781970501">
        <ele>65.989999999999995</ele>
        <time>2015-11-08T11:22:17Z</time>
      </trkpt>
      <trkpt lat="51.137151047587395" lon="6.155014475807548">
        <ele>66.469999999999999</ele>
        <time>2015-11-08T11:22:31Z</time>
      </trkpt>
      <trkpt lat="51.137214079499245" lon="6.155226537957788">
        <ele>66.950000000000003</ele>
        <time>2015-11-08T11:22:40Z</time>
      </trkpt>
      <trkpt lat="51.137226736173034" lon="6.155249504372478">
        <ele>66.950000000000003</ele>
        <time>2015-11-08T11:22:41Z</time>
      </trkpt>
      <trkpt lat="51.137232519686222" lon="6.155283031985164">
        <ele>66.950000000000003</ele>
        <time>2015-11-08T11:22:42Z</time>
      </trkpt>
      <trkpt lat="51.13731985911727" lon="6.15551688708365">
        <ele>67.430000000000007</ele>
        <time>2015-11-08T11:22:51Z</time>
      </trkpt>
      <trkpt lat="51.137328911572695" lon="6.155549576506019">
        <ele>67.430000000000007</ele>
        <time>2015-11-08T11:22:52Z</time>
      </trkpt>
      <trkpt lat="51.137336874380708" lon="6.155575644224882">
        <ele>67.430000000000007</ele>
        <time>2015-11-08T11:22:53Z</time>
      </trkpt>
      <trkpt lat="51.13734332844615" lon="6.155602298676968">
        <ele>67.430000000000007</ele>
        <time>2015-11-08T11:22:54Z</time>
      </trkpt>
      <trkpt lat="51.137351458892226" lon="6.155624594539404">
        <ele>67.430000000000007</ele>
        <time>2015-11-08T11:22:55Z</time>
      </trkpt>
      <trkpt lat="51.137359254062176" lon="6.155650997534394">
        <ele>67.430000000000007</ele>
        <time>2015-11-08T11:22:56Z</time>
      </trkpt>
      <trkpt lat="51.137366378679872" lon="6.155677987262607">
        <ele>67.430000000000007</ele>
        <time>2015-11-08T11:22:57Z</time>
      </trkpt>
      <trkpt lat="51.137369060888886" lon="6.155707826837897">
        <ele>67.430000000000007</ele>
        <time>2015-11-08T11:22:58Z</time>
      </trkpt>
      <trkpt lat="51.137418681755662" lon="6.155835315585136">
        <ele>67.430000000000007</ele>
        <time>2015-11-08T11:23:03Z</time>
      </trkpt>
      <trkpt lat="51.137432176619768" lon="6.155855180695653">
        <ele>67.430000000000007</ele>
        <time>2015-11-08T11:23:04Z</time>
      </trkpt>
      <trkpt lat="51.13743762485683" lon="6.155882254242897">
        <ele>67.909999999999997</ele>
        <time>2015-11-08T11:23:05Z</time>
      </trkpt>
      <trkpt lat="51.137443827465177" lon="6.155904717743397">
        <ele>67.909999999999997</ele>
        <time>2015-11-08T11:23:06Z</time>
      </trkpt>
      <trkpt lat="51.13745036534965" lon="6.155928270891309">
        <ele>67.909999999999997</ele>
        <time>2015-11-08T11:23:07Z</time>
      </trkpt>
      <trkpt lat="51.137491436675191" lon="6.156013431027532">
        <ele>67.909999999999997</ele>
        <time>2015-11-08T11:23:11Z</time>
      </trkpt>
      <trkpt lat="51.137495627626777" lon="6.156048383563757">
        <ele>67.909999999999997</ele>
        <time>2015-11-08T11:23:12Z</time>
      </trkpt>
      <trkpt lat="51.137505350634456" lon="6.156074199825525">
        <ele>67.909999999999997</ele>
        <time>2015-11-08T11:23:13Z</time>
      </trkpt>
      <trkpt lat="51.137514319270849" lon="6.156102865934372">
        <ele>67.909999999999997</ele>
        <time>2015-11-08T11:23:14Z</time>
      </trkpt>
      <trkpt lat="51.137525299564004" lon="6.156129604205489">
        <ele>67.909999999999997</ele>
        <time>2015-11-08T11:23:15Z</time>
      </trkpt>
      <trkpt lat="51.137533597648144" lon="6.156153408810496">
        <ele>67.909999999999997</ele>
        <time>2015-11-08T11:23:16Z</time>
      </trkpt>
      <trkpt lat="51.137557234615088" lon="6.156204957515001">
        <ele>67.909999999999997</ele>
        <time>2015-11-08T11:23:19Z</time>
      </trkpt>
      <trkpt lat="51.137565029785037" lon="6.156226918101311">
        <ele>67.909999999999997</ele>
        <time>2015-11-08T11:23:20Z</time>
      </trkpt>
      <trkpt lat="51.137699894607067" lon="6.156601086258888">
        <ele>68.390000000000001</ele>
        <time>2015-11-08T11:23:35Z</time>
      </trkpt>
      <trkpt lat="51.137838363647461" lon="6.15682982839644">
        <ele>68.870000000000005</ele>
        <time>2015-11-08T11:23:49Z</time>
      </trkpt>
      <trkpt lat="51.13804112188518" lon="6.156962849199772">
        <ele>70.790000000000006</ele>
        <time>2015-11-08T11:24:06Z</time>
      </trkpt>
      <trkpt lat="51.138258129358292" lon="6.157096289098263">
        <ele>72.719999999999999</ele>
        <time>2015-11-08T11:24:21Z</time>
      </trkpt>
      <trkpt lat="51.138381846249104" lon="6.15714599378407">
        <ele>73.680000000000007</ele>
        <time>2015-11-08T11:24:30Z</time>
      </trkpt>
      <trkpt lat="51.13847597502172" lon="6.157207600772381">
        <ele>74.640000000000001</ele>
        <time>2015-11-08T11:24:36Z</time>
      </trkpt>
      <trkpt lat="51.138675045222044" lon="6.157304076477885">
        <ele>77.519999999999996</ele>
        <time>2015-11-08T11:24:50Z</time>
      </trkpt>
      <trkpt lat="51.138833714649081" lon="6.157465511932969">
        <ele>78.480000000000004</ele>
        <time>2015-11-08T11:25:04Z</time>
      </trkpt>
      <trkpt lat="51.139126997441053" lon="6.157627869397402">
        <ele>78.969999999999999</ele>
        <time>2015-11-08T11:25:20Z</time>
      </trkpt>
      <trkpt lat="51.139312740415335" lon="6.157728787511587">
        <ele>78.969999999999999</ele>
        <time>2015-11-08T11:25:36Z</time>
      </trkpt>
      <trkpt lat="51.139422291889787" lon="6.157788466662169">
        <ele>78.480000000000004</ele>
        <time>2015-11-08T11:25:44Z</time>
      </trkpt>
      <trkpt lat="51.139436960220337" lon="6.157798608765006">
        <ele>78.480000000000004</ele>
        <time>2015-11-08T11:25:45Z</time>
      </trkpt>
      <trkpt lat="51.139650698751211" lon="6.157871698960662">
        <ele>78</ele>
        <time>2015-11-08T11:25:59Z</time>
      </trkpt>
      <trkpt lat="51.139845075085759" lon="6.157977310940623">
        <ele>78.480000000000004</ele>
        <time>2015-11-08T11:26:14Z</time>
      </trkpt>
      <trkpt lat="51.140052527189255" lon="6.1580631416291">
        <ele>78.480000000000004</ele>
        <time>2015-11-08T11:26:27Z</time>
      </trkpt>
      <trkpt lat="51.140065854415298" lon="6.158074289560318">
        <ele>78</ele>
        <time>2015-11-08T11:26:28Z</time>
      </trkpt>
      <trkpt lat="51.140097202733159" lon="6.158089879900217">
        <ele>78</ele>
        <time>2015-11-08T11:26:30Z</time>
      </trkpt>
      <trkpt lat="51.140114385634661" lon="6.158094238489866">
        <ele>77.519999999999996</ele>
        <time>2015-11-08T11:26:31Z</time>
      </trkpt>
      <trkpt lat="51.140288058668375" lon="6.158218206837773">
        <ele>78</ele>
        <time>2015-11-08T11:26:45Z</time>
      </trkpt>
      <trkpt lat="51.140321837738156" lon="6.158219715580344">
        <ele>78</ele>
        <time>2015-11-08T11:26:47Z</time>
      </trkpt>
      <trkpt lat="51.140336506068707" lon="6.158208400011063">
        <ele>78</ele>
        <time>2015-11-08T11:26:48Z</time>
      </trkpt>
      <trkpt lat="51.140414960682392" lon="6.158195743337274">
        <ele>77.519999999999996</ele>
        <time>2015-11-08T11:26:52Z</time>
      </trkpt>
      <trkpt lat="51.140573630109429" lon="6.158135142177343">
        <ele>77.040000000000006</ele>
        <time>2015-11-08T11:27:03Z</time>
      </trkpt>
      <trkpt lat="51.14059123210609" lon="6.158128269016743">
        <ele>77.040000000000006</ele>
        <time>2015-11-08T11:27:04Z</time>
      </trkpt>
      <trkpt lat="51.140664657577872" lon="6.158066410571337">
        <ele>77.519999999999996</ele>
        <time>2015-11-08T11:27:09Z</time>
      </trkpt>
      <trkpt lat="51.140768341720104" lon="6.157828867435455">
        <ele>77.040000000000006</ele>
        <time>2015-11-08T11:27:19Z</time>
      </trkpt>
      <trkpt lat="51.140779322013259" lon="6.157811349257827">
        <ele>77.519999999999996</ele>
        <time>2015-11-08T11:27:20Z</time>
      </trkpt>
      <trkpt lat="51.140788793563843" lon="6.157795088365674">
        <ele>77.040000000000006</ele>
        <time>2015-11-08T11:27:21Z</time>
      </trkpt>
      <trkpt lat="51.140891639515758" lon="6.157570788636804">
        <ele>77.519999999999996</ele>
        <time>2015-11-08T11:27:34Z</time>
      </trkpt>
      <trkpt lat="51.140898261219263" lon="6.157542876899242">
        <ele>77.040000000000006</ele>
        <time>2015-11-08T11:27:35Z</time>
      </trkpt>
      <trkpt lat="51.14090203307569" lon="6.157513959333301">
        <ele>77.040000000000006</ele>
        <time>2015-11-08T11:27:36Z</time>
      </trkpt>
      <trkpt lat="51.140987612307072" lon="6.157051026821137">
        <ele>77.040000000000006</ele>
        <time>2015-11-08T11:27:51Z</time>
      </trkpt>
      <trkpt lat="51.141139324754477" lon="6.156733687967062">
        <ele>77.519999999999996</ele>
        <time>2015-11-08T11:28:05Z</time>
      </trkpt>
      <trkpt lat="51.141206966713071" lon="6.156625477597117">
        <ele>77.519999999999996</ele>
        <time>2015-11-08T11:28:12Z</time>
      </trkpt>
      <trkpt lat="51.141223143786192" lon="6.156620616093278">
        <ele>77.519999999999996</ele>
        <time>2015-11-08T11:28:13Z</time>
      </trkpt>
      <trkpt lat="51.141365552321076" lon="6.15665297023952">
        <ele>77.040000000000006</ele>
        <time>2015-11-08T11:28:27Z</time>
      </trkpt>
      <trkpt lat="51.141548864543438" lon="6.156843407079577">
        <ele>77.040000000000006</ele>
        <time>2015-11-08T11:28:41Z</time>
      </trkpt>
      <trkpt lat="51.141647016629577" lon="6.156984390690923">
        <ele>77.040000000000006</ele>
        <time>2015-11-08T11:28:52Z</time>
      </trkpt>
      <trkpt lat="51.141700744628906" lon="6.157089918851852">
        <ele>76.079999999999998</ele>
        <time>2015-11-08T11:29:00Z</time>
      </trkpt>
      <trkpt lat="51.141714658588171" lon="6.15711179561913">
        <ele>76.079999999999998</ele>
        <time>2015-11-08T11:29:01Z</time>
      </trkpt>
      <trkpt lat="51.141730500385165" lon="6.157133420929313">
        <ele>76.079999999999998</ele>
        <time>2015-11-08T11:29:02Z</time>
      </trkpt>
      <trkpt lat="51.141748186200857" lon="6.157154459506273">
        <ele>76.079999999999998</ele>
        <time>2015-11-08T11:29:03Z</time>
      </trkpt>
      <trkpt lat="51.141769895330071" lon="6.157196452841163">
        <ele>75.599999999999994</ele>
        <time>2015-11-08T11:29:05Z</time>
      </trkpt>
      <trkpt lat="51.141803422942758" lon="6.157256551086903">
        <ele>75.599999999999994</ele>
        <time>2015-11-08T11:29:08Z</time>
      </trkpt>
      <trkpt lat="51.141819516196847" lon="6.157276583835483">
        <ele>75.599999999999994</ele>
        <time>2015-11-08T11:29:09Z</time>
      </trkpt>
      <trkpt lat="51.141946921125054" lon="6.157525526359677">
        <ele>74.640000000000001</ele>
        <time>2015-11-08T11:29:22Z</time>
      </trkpt>
      <trkpt lat="51.141975838690996" lon="6.157588390633464">
        <ele>74.640000000000001</ele>
        <time>2015-11-08T11:29:25Z</time>
      </trkpt>
      <trkpt lat="51.141991512849927" lon="6.15760532207787">
        <ele>74.159999999999997</ele>
        <time>2015-11-08T11:29:26Z</time>
      </trkpt>
      <trkpt lat="51.142048928886652" lon="6.157689727842808">
        <ele>74.159999999999997</ele>
        <time>2015-11-08T11:29:32Z</time>
      </trkpt>
      <trkpt lat="51.142117576673627" lon="6.157833812758327">
        <ele>73.680000000000007</ele>
        <time>2015-11-08T11:29:40Z</time>
      </trkpt>
      <trkpt lat="51.142131574451923" lon="6.157853929325938">
        <ele>73.680000000000007</ele>
        <time>2015-11-08T11:29:41Z</time>
      </trkpt>
      <trkpt lat="51.142273228615522" lon="6.158079234883189">
        <ele>73.680000000000007</ele>
        <time>2015-11-08T11:29:53Z</time>
      </trkpt>
      <trkpt lat="51.142394682392478" lon="6.1583670694381">
        <ele>73.680000000000007</ele>
        <time>2015-11-08T11:30:06Z</time>
      </trkpt>
      <trkpt lat="51.142401387915015" lon="6.158394645899534">
        <ele>73.200000000000003</ele>
        <time>2015-11-08T11:30:07Z</time>
      </trkpt>
      <trkpt lat="51.142412116751075" lon="6.158419037237763">
        <ele>73.200000000000003</ele>
        <time>2015-11-08T11:30:08Z</time>
      </trkpt>
      <trkpt lat="51.142419828101993" lon="6.158442590385675">
        <ele>73.200000000000003</ele>
        <time>2015-11-08T11:30:09Z</time>
      </trkpt>
      <trkpt lat="51.142502306029201" lon="6.158658089116216">
        <ele>70.310000000000002</ele>
        <time>2015-11-08T11:30:23Z</time>
      </trkpt>
      <trkpt lat="51.142593836411834" lon="6.158831594511867">
        <ele>67.430000000000007</ele>
        <time>2015-11-08T11:30:35Z</time>
      </trkpt>
      <trkpt lat="51.142609091475606" lon="6.158845257014036">
        <ele>66.950000000000003</ele>
        <time>2015-11-08T11:30:36Z</time>
      </trkpt>
      <trkpt lat="51.142697688192129" lon="6.158989928662777">
        <ele>65.989999999999995</ele>
        <time>2015-11-08T11:30:44Z</time>
      </trkpt>
      <trkpt lat="51.142844958230853" lon="6.159221939742565">
        <ele>64.069999999999993</ele>
        <time>2015-11-08T11:30:58Z</time>
      </trkpt>
      <trkpt lat="51.143048051744699" lon="6.15955931134522">
        <ele>62.140000000000001</ele>
        <time>2015-11-08T11:31:14Z</time>
      </trkpt>
      <trkpt lat="51.14314578473568" lon="6.159826023504138">
        <ele>59.740000000000002</ele>
        <time>2015-11-08T11:31:28Z</time>
      </trkpt>
      <trkpt lat="51.14323035813868" lon="6.159986201673746">
        <ele>58.780000000000001</ele>
        <time>2015-11-08T11:31:43Z</time>
      </trkpt>
      <trkpt lat="51.1433036159724" lon="6.160026853904128">
        <ele>56.859999999999999</ele>
        <time>2015-11-08T11:31:56Z</time>
      </trkpt>
      <trkpt lat="51.143318619579077" lon="6.160031631588936">
        <ele>56.859999999999999</ele>
        <time>2015-11-08T11:31:57Z</time>
      </trkpt>
      <trkpt lat="51.143425656482577" lon="6.160081755369902">
        <ele>56.859999999999999</ele>
        <time>2015-11-08T11:32:02Z</time>
      </trkpt>
      <trkpt lat="51.14360167644918" lon="6.160328015685082">
        <ele>55.409999999999997</ele>
        <time>2015-11-08T11:32:18Z</time>
      </trkpt>
      <trkpt lat="51.143803345039487" lon="6.160504622384906">
        <ele>54.450000000000003</ele>
        <time>2015-11-08T11:32:31Z</time>
      </trkpt>
      <trkpt lat="51.14410056732595" lon="6.160647869110107">
        <ele>52.530000000000001</ele>
        <time>2015-11-08T11:32:46Z</time>
      </trkpt>
      <trkpt lat="51.144397789612412" lon="6.160606546327472">
        <ele>51.57</ele>
        <time>2015-11-08T11:33:00Z</time>
      </trkpt>
      <trkpt lat="51.144507424905896" lon="6.160504706203938">
        <ele>51.090000000000003</ele>
        <time>2015-11-08T11:33:12Z</time>
      </trkpt>
      <trkpt lat="51.144786709919572" lon="6.160468580201268">
        <ele>52.049999999999997</ele>
        <time>2015-11-08T11:33:29Z</time>
      </trkpt>
      <trkpt lat="51.14485795609653" lon="6.160489954054356">
        <ele>51.57</ele>
        <time>2015-11-08T11:33:34Z</time>
      </trkpt>
      <trkpt lat="51.145129026845098" lon="6.160608055070043">
        <ele>51.090000000000003</ele>
        <time>2015-11-08T11:33:50Z</time>
      </trkpt>
      <trkpt lat="51.145237991586328" lon="6.160747362300754">
        <ele>50.130000000000003</ele>
        <time>2015-11-08T11:34:02Z</time>
      </trkpt>
      <trkpt lat="51.145434966310859" lon="6.160918856039643">
        <ele>49.649999999999999</ele>
        <time>2015-11-08T11:34:16Z</time>
      </trkpt>
      <trkpt lat="51.14548098295927" lon="6.16092698648572">
        <ele>49.649999999999999</ele>
        <time>2015-11-08T11:34:18Z</time>
      </trkpt>
      <trkpt lat="51.145702349022031" lon="6.16109361872077">
        <ele>49.159999999999997</ele>
        <time>2015-11-08T11:34:33Z</time>
      </trkpt>
      <trkpt lat="51.145805278792977" lon="6.161161512136459">
        <ele>48.68</ele>
        <time>2015-11-08T11:34:40Z</time>
      </trkpt>
      <trkpt lat="51.145887337625027" lon="6.161268884316087">
        <ele>48.68</ele>
        <time>2015-11-08T11:34:46Z</time>
      </trkpt>
      <trkpt lat="51.146069057285786" lon="6.161481952294707">
        <ele>49.649999999999999</ele>
        <time>2015-11-08T11:35:02Z</time>
      </trkpt>
      <trkpt lat="51.146097052842379" lon="6.161487065255642">
        <ele>49.649999999999999</ele>
        <time>2015-11-08T11:35:06Z</time>
      </trkpt>
      <trkpt lat="51.146122952923179" lon="6.161500224843621">
        <ele>49.649999999999999</ele>
        <time>2015-11-08T11:35:08Z</time>
      </trkpt>
      <trkpt lat="51.146372146904469" lon="6.161704324185848">
        <ele>49.649999999999999</ele>
        <time>2015-11-08T11:35:26Z</time>
      </trkpt>
      <trkpt lat="51.146502485498786" lon="6.161906495690346">
        <ele>49.159999999999997</ele>
        <time>2015-11-08T11:35:41Z</time>
      </trkpt>
      <trkpt lat="51.146637434139848" lon="6.16200054064393">
        <ele>48.68</ele>
        <time>2015-11-08T11:35:50Z</time>
      </trkpt>
      <trkpt lat="51.146797863766551" lon="6.162171950563788">
        <ele>48.68</ele>
        <time>2015-11-08T11:36:02Z</time>
      </trkpt>
      <trkpt lat="51.146804820746183" lon="6.162193659693003">
        <ele>48.68</ele>
        <time>2015-11-08T11:36:03Z</time>
      </trkpt>
      <trkpt lat="51.146900374442339" lon="6.162314275279641">
        <ele>49.159999999999997</ele>
        <time>2015-11-08T11:36:11Z</time>
      </trkpt>
      <trkpt lat="51.147067341953516" lon="6.162476548925042">
        <ele>49.159999999999997</ele>
        <time>2015-11-08T11:36:25Z</time>
      </trkpt>
      <trkpt lat="51.147122075781226" lon="6.16253949701786">
        <ele>48.68</ele>
        <time>2015-11-08T11:36:30Z</time>
      </trkpt>
      <trkpt lat="51.147309243679047" lon="6.162801431491971">
        <ele>49.159999999999997</ele>
        <time>2015-11-08T11:36:46Z</time>
      </trkpt>
      <trkpt lat="51.147318631410599" lon="6.16286194883287">
        <ele>48.68</ele>
        <time>2015-11-08T11:36:59Z</time>
      </trkpt>
      <trkpt lat="51.147367246448994" lon="6.162901427596808">
        <ele>48.200000000000003</ele>
        <time>2015-11-08T11:37:18Z</time>
      </trkpt>
      <trkpt lat="51.147498590871692" lon="6.163038471713662">
        <ele>46.759999999999998</ele>
        <time>2015-11-08T11:37:32Z</time>
      </trkpt>
      <trkpt lat="51.147609148174524" lon="6.163149112835527">
        <ele>46.280000000000001</ele>
        <time>2015-11-08T11:37:38Z</time>
      </trkpt>
      <trkpt lat="51.147881476208568" lon="6.163449436426163">
        <ele>45.799999999999997</ele>
        <time>2015-11-08T11:37:53Z</time>
      </trkpt>
      <trkpt lat="51.147877955809236" lon="6.163718746975064">
        <ele>45.799999999999997</ele>
        <time>2015-11-08T11:38:08Z</time>
      </trkpt>
      <trkpt lat="51.147820791229606" lon="6.163756800815463">
        <ele>46.759999999999998</ele>
        <time>2015-11-08T11:38:21Z</time>
      </trkpt>
      <trkpt lat="51.147791454568505" lon="6.163775995373726">
        <ele>46.280000000000001</ele>
        <time>2015-11-08T11:38:33Z</time>
      </trkpt>
      <trkpt lat="51.147793969139457" lon="6.163794687017798">
        <ele>46.280000000000001</ele>
        <time>2015-11-08T11:38:46Z</time>
      </trkpt>
      <trkpt lat="51.147793885320425" lon="6.163808600977063">
        <ele>46.280000000000001</ele>
        <time>2015-11-08T11:39:08Z</time>
      </trkpt>
      <trkpt lat="51.147792795673013" lon="6.163820000365377">
        <ele>46.280000000000001</ele>
        <time>2015-11-08T11:39:26Z</time>
      </trkpt>
      <trkpt lat="51.147791789844632" lon="6.163827963173389">
        <ele>46.280000000000001</ele>
        <time>2015-11-08T11:39:45Z</time>
      </trkpt>
      <trkpt lat="51.147795142605901" lon="6.163829974830151">
        <ele>46.280000000000001</ele>
        <time>2015-11-08T11:40:01Z</time>
      </trkpt>
      <trkpt lat="51.147814001888037" lon="6.163815641775727">
        <ele>46.280000000000001</ele>
        <time>2015-11-08T11:40:17Z</time>
      </trkpt>
      <trkpt lat="51.147809056565166" lon="6.163811115548015">
        <ele>46.280000000000001</ele>
        <time>2015-11-08T11:40:34Z</time>
      </trkpt>
      <trkpt lat="51.147806709632277" lon="6.163817318156362">
        <ele>46.280000000000001</ele>
        <time>2015-11-08T11:40:48Z</time>
      </trkpt>
      <trkpt lat="51.147809056565166" lon="6.163815641775727">
        <ele>46.280000000000001</ele>
        <time>2015-11-08T11:41:06Z</time>
      </trkpt>
      <trkpt lat="51.147808972746134" lon="6.163819245994091">
        <ele>46.280000000000001</ele>
        <time>2015-11-08T11:41:28Z</time>
      </trkpt>
      <trkpt lat="51.147783072665334" lon="6.163800805807114">
        <ele>46.280000000000001</ele>
        <time>2015-11-08T11:41:42Z</time>
      </trkpt>
      <trkpt lat="51.147786593064666" lon="6.163804326206446">
        <ele>46.280000000000001</ele>
        <time>2015-11-08T11:41:59Z</time>
      </trkpt>
      <trkpt lat="51.147793214768171" lon="6.163824191316962">
        <ele>46.280000000000001</ele>
        <time>2015-11-08T11:42:14Z</time>
      </trkpt>
      <trkpt lat="51.147775612771511" lon="6.163766775280237">
        <ele>46.280000000000001</ele>
        <time>2015-11-08T11:42:25Z</time>
      </trkpt>
      <trkpt lat="51.147780977189541" lon="6.163752526044846">
        <ele>46.280000000000001</ele>
        <time>2015-11-08T11:42:41Z</time>
      </trkpt>
      <trkpt lat="51.147802267223597" lon="6.163763841614127">
        <ele>46.280000000000001</ele>
        <time>2015-11-08T11:43:02Z</time>
      </trkpt>
      <trkpt lat="51.147818528115749" lon="6.163772642612457">
        <ele>45.799999999999997</ele>
        <time>2015-11-08T11:43:17Z</time>
      </trkpt>
      <trkpt lat="51.147815762087703" lon="6.163754956796765">
        <ele>46.280000000000001</ele>
        <time>2015-11-08T11:43:32Z</time>
      </trkpt>
      <trkpt lat="51.147825988009572" lon="6.16375076584518">
        <ele>46.280000000000001</ele>
        <time>2015-11-08T11:43:52Z</time>
      </trkpt>
      <trkpt lat="51.147827915847301" lon="6.163741713389754">
        <ele>46.759999999999998</ele>
        <time>2015-11-08T11:44:10Z</time>
      </trkpt>
      <trkpt lat="51.147828418761492" lon="6.163749592378736">
        <ele>46.759999999999998</ele>
        <time>2015-11-08T11:44:34Z</time>
      </trkpt>
      <trkpt lat="51.147819198668003" lon="6.163761410862207">
        <ele>46.759999999999998</ele>
        <time>2015-11-08T11:44:53Z</time>
      </trkpt>
      <trkpt lat="51.147817187011242" lon="6.163773313164711">
        <ele>46.759999999999998</ele>
        <time>2015-11-08T11:45:11Z</time>
      </trkpt>
      <trkpt lat="51.1478176061064" lon="6.163813713937998">
        <ele>46.759999999999998</ele>
        <time>2015-11-08T11:45:28Z</time>
      </trkpt>
      <trkpt lat="51.147808553650975" lon="6.163837937638164">
        <ele>46.280000000000001</ele>
        <time>2015-11-08T11:45:42Z</time>
      </trkpt>
      <trkpt lat="51.14779899828136" lon="6.163841877132654">
        <ele>46.280000000000001</ele>
        <time>2015-11-08T11:45:59Z</time>
      </trkpt>
      <trkpt lat="51.147792376577854" lon="6.163806421682239">
        <ele>46.759999999999998</ele>
        <time>2015-11-08T11:46:09Z</time>
      </trkpt>
      <trkpt lat="51.147807464003563" lon="6.16378789767623">
        <ele>46.280000000000001</ele>
        <time>2015-11-08T11:46:23Z</time>
      </trkpt>
      <trkpt lat="51.147808469831944" lon="6.163791920989752">
        <ele>46.280000000000001</ele>
        <time>2015-11-08T11:46:43Z</time>
      </trkpt>
      <trkpt lat="51.147817187011242" lon="6.163784125819802">
        <ele>45.799999999999997</ele>
        <time>2015-11-08T11:47:09Z</time>
      </trkpt>
      <trkpt lat="51.147815091535449" lon="6.163786808028817">
        <ele>45.799999999999997</ele>
        <time>2015-11-08T11:47:29Z</time>
      </trkpt>
      <trkpt lat="51.147814337164164" lon="6.163783874362707">
        <ele>45.799999999999997</ele>
        <time>2015-11-08T11:47:51Z</time>
      </trkpt>
      <trkpt lat="51.147813582792878" lon="6.163787646219134">
        <ele>45.799999999999997</ele>
        <time>2015-11-08T11:48:21Z</time>
      </trkpt>
      <trkpt lat="51.147816851735115" lon="6.16378789767623">
        <ele>45.799999999999997</ele>
        <time>2015-11-08T11:48:53Z</time>
      </trkpt>
      <trkpt lat="51.147823473438621" lon="6.163795609027147">
        <ele>45.799999999999997</ele>
        <time>2015-11-08T11:49:20Z</time>
      </trkpt>
      <trkpt lat="51.147822719067335" lon="6.163797788321972">
        <ele>45.799999999999997</ele>
        <time>2015-11-08T11:49:43Z</time>
      </trkpt>
      <trkpt lat="51.147796902805567" lon="6.16380650550127">
        <ele>46.280000000000001</ele>
        <time>2015-11-08T11:49:50Z</time>
      </trkpt>
      <trkpt lat="51.147716855630279" lon="6.163831232115626">
        <ele>46.759999999999998</ele>
        <time>2015-11-08T11:50:05Z</time>
      </trkpt>
      <trkpt lat="51.14771987311542" lon="6.163833495229483">
        <ele>46.280000000000001</ele>
        <time>2015-11-08T11:50:31Z</time>
      </trkpt>
      <trkpt lat="51.147738061845303" lon="6.163812205195427">
        <ele>45.799999999999997</ele>
        <time>2015-11-08T11:50:47Z</time>
      </trkpt>
      <trkpt lat="51.147755160927773" lon="6.163782197982073">
        <ele>45.32</ele>
        <time>2015-11-08T11:50:58Z</time>
      </trkpt>
      <trkpt lat="51.147850044071674" lon="6.163701731711626">
        <ele>44.359999999999999</ele>
        <time>2015-11-08T11:51:09Z</time>
      </trkpt>
      <trkpt lat="51.147863622754812" lon="6.163695612922311">
        <ele>43.880000000000003</ele>
        <time>2015-11-08T11:51:40Z</time>
      </trkpt>
      <trkpt lat="51.147875525057316" lon="6.163683962076902">
        <ele>43.880000000000003</ele>
        <time>2015-11-08T11:52:05Z</time>
      </trkpt>
      <trkpt lat="51.147880889475346" lon="6.163671724498272">
        <ele>43.880000000000003</ele>
        <time>2015-11-08T11:52:27Z</time>
      </trkpt>
      <trkpt lat="51.147878710180521" lon="6.163665186613798">
        <ele>43.880000000000003</ele>
        <time>2015-11-08T11:52:54Z</time>
      </trkpt>
      <trkpt lat="51.147886170074344" lon="6.163667868822813">
        <ele>43.880000000000003</ele>
        <time>2015-11-08T11:53:20Z</time>
      </trkpt>
      <trkpt lat="51.14788600243628" lon="6.163664264604449">
        <ele>44.359999999999999</ele>
        <time>2015-11-08T11:53:49Z</time>
      </trkpt>
      <trkpt lat="51.147875441238284" lon="6.163669293746352">
        <ele>44.840000000000003</ele>
        <time>2015-11-08T11:54:07Z</time>
      </trkpt>
      <trkpt lat="51.147908717393875" lon="6.163665354251862">
        <ele>44.359999999999999</ele>
        <time>2015-11-08T11:54:24Z</time>
      </trkpt>
      <trkpt lat="51.147879716008902" lon="6.163644315674901">
        <ele>44.359999999999999</ele>
        <time>2015-11-08T11:54:38Z</time>
      </trkpt>
      <trkpt lat="51.147881392389536" lon="6.163645070046186">
        <ele>44.840000000000003</ele>
        <time>2015-11-08T11:54:58Z</time>
      </trkpt>
      <trkpt lat="51.147879716008902" lon="6.163642220199108">
        <ele>44.359999999999999</ele>
        <time>2015-11-08T11:55:20Z</time>
      </trkpt>
      <trkpt lat="51.147878291085362" lon="6.163640208542347">
        <ele>44.840000000000003</ele>
        <time>2015-11-08T11:55:35Z</time>
      </trkpt>
      <trkpt lat="51.1478849966079" lon="6.163645992055535">
        <ele>44.840000000000003</ele>
        <time>2015-11-08T11:56:00Z</time>
      </trkpt>
      <trkpt lat="51.147887092083693" lon="6.163655044510961">
        <ele>44.359999999999999</ele>
        <time>2015-11-08T11:56:21Z</time>
      </trkpt>
      <trkpt lat="51.147885918617249" lon="6.16365403868258">
        <ele>44.359999999999999</ele>
        <time>2015-11-08T11:56:47Z</time>
      </trkpt>
      <trkpt lat="51.147883571684361" lon="6.163648338988423">
        <ele>44.359999999999999</ele>
        <time>2015-11-08T11:57:05Z</time>
      </trkpt>
      <trkpt lat="51.147884745150805" lon="6.163636688143015">
        <ele>44.359999999999999</ele>
        <time>2015-11-08T11:57:32Z</time>
      </trkpt>
      <trkpt lat="51.147886589169502" lon="6.163640459999442">
        <ele>44.840000000000003</ele>
        <time>2015-11-08T11:57:55Z</time>
      </trkpt>
      <trkpt lat="51.147884661331773" lon="6.16363987326622">
        <ele>44.840000000000003</ele>
        <time>2015-11-08T11:58:07Z</time>
      </trkpt>
      <trkpt lat="51.147881476208568" lon="6.163639705628157">
        <ele>44.359999999999999</ele>
        <time>2015-11-08T11:58:27Z</time>
      </trkpt>
      <trkpt lat="51.147884409874678" lon="6.163647919893265">
        <ele>44.359999999999999</ele>
        <time>2015-11-08T11:58:57Z</time>
      </trkpt>
      <trkpt lat="51.147887678816915" lon="6.16363937035203">
        <ele>44.359999999999999</ele>
        <time>2015-11-08T11:59:29Z</time>
      </trkpt>
      <trkpt lat="51.147885750979185" lon="6.163646914064884">
        <ele>44.359999999999999</ele>
        <time>2015-11-08T11:59:58Z</time>
      </trkpt>
      <trkpt lat="51.14787133410573" lon="6.163648506626487">
        <ele>43.880000000000003</ele>
        <time>2015-11-08T12:00:22Z</time>
      </trkpt>
      <trkpt lat="51.147872759029269" lon="6.163652529940009">
        <ele>43.880000000000003</ele>
        <time>2015-11-08T12:00:51Z</time>
      </trkpt>
      <trkpt lat="51.147875189781189" lon="6.163655882701278">
        <ele>43.880000000000003</ele>
        <time>2015-11-08T12:01:14Z</time>
      </trkpt>
      <trkpt lat="51.147878374904394" lon="6.163666360080242">
        <ele>43.880000000000003</ele>
        <time>2015-11-08T12:01:41Z</time>
      </trkpt>
      <trkpt lat="51.147873848676682" lon="6.1636823695153">
        <ele>43.880000000000003</ele>
        <time>2015-11-08T12:02:03Z</time>
      </trkpt>
      <trkpt lat="51.147864209488034" lon="6.163676669821143">
        <ele>44.359999999999999</ele>
        <time>2015-11-08T12:02:39Z</time>
      </trkpt>
      <trkpt lat="51.147863371297717" lon="6.16368480026722">
        <ele>44.359999999999999</ele>
        <time>2015-11-08T12:03:03Z</time>
      </trkpt>
      <trkpt lat="51.147871753200889" lon="6.163672981783748">
        <ele>44.840000000000003</ele>
        <time>2015-11-08T12:03:32Z</time>
      </trkpt>
      <trkpt lat="51.147888517007232" lon="6.163735678419471">
        <ele>44.840000000000003</ele>
        <time>2015-11-08T12:03:46Z</time>
      </trkpt>
      <trkpt lat="51.147890444844961" lon="6.16374489851296">
        <ele>44.840000000000003</ele>
        <time>2015-11-08T12:03:51Z</time>
      </trkpt>
      <trkpt lat="51.147893629968166" lon="6.163708940148354">
        <ele>45.32</ele>
        <time>2015-11-08T12:04:02Z</time>
      </trkpt>
      <trkpt lat="51.147888600826263" lon="6.16367650218308">
        <ele>44.840000000000003</ele>
        <time>2015-11-08T12:04:11Z</time>
      </trkpt>
      <trkpt lat="51.147885834798217" lon="6.163656804710627">
        <ele>44.840000000000003</ele>
        <time>2015-11-08T12:04:33Z</time>
      </trkpt>
      <trkpt lat="51.147874519228935" lon="6.163642555475235">
        <ele>44.840000000000003</ele>
        <time>2015-11-08T12:05:08Z</time>
      </trkpt>
      <trkpt lat="51.147856498137116" lon="6.163628473877907">
        <ele>44.840000000000003</ele>
        <time>2015-11-08T12:05:43Z</time>
      </trkpt>
      <trkpt lat="51.147854402661324" lon="6.16361933760345">
        <ele>44.840000000000003</ele>
        <time>2015-11-08T12:06:19Z</time>
      </trkpt>
      <trkpt lat="51.147845601662993" lon="6.163609027862549">
        <ele>45.32</ele>
        <time>2015-11-08T12:06:51Z</time>
      </trkpt>
      <trkpt lat="51.147840991616249" lon="6.163602909073234">
        <ele>45.32</ele>
        <time>2015-11-08T12:07:18Z</time>
      </trkpt>
      <trkpt lat="51.147840404883027" lon="6.163607183843851">
        <ele>45.799999999999997</ele>
        <time>2015-11-08T12:07:45Z</time>
      </trkpt>
      <trkpt lat="51.147845182567835" lon="6.163609866052866">
        <ele>46.280000000000001</ele>
        <time>2015-11-08T12:08:06Z</time>
      </trkpt>
      <trkpt lat="51.147841159254313" lon="6.163650518283248">
        <ele>45.799999999999997</ele>
        <time>2015-11-08T12:08:31Z</time>
      </trkpt>
      <trkpt lat="51.147830933332443" lon="6.163750682026148">
        <ele>46.759999999999998</ele>
        <time>2015-11-08T12:08:43Z</time>
      </trkpt>
      <trkpt lat="51.147830681875348" lon="6.163751520216465">
        <ele>46.759999999999998</ele>
        <time>2015-11-08T12:09:06Z</time>
      </trkpt>
      <trkpt lat="51.147818528115749" lon="6.163735426962376">
        <ele>47.240000000000002</ele>
        <time>2015-11-08T12:09:15Z</time>
      </trkpt>
      <trkpt lat="51.147816851735115" lon="6.163801811635494">
        <ele>47.719999999999999</ele>
        <time>2015-11-08T12:09:27Z</time>
      </trkpt>
      <trkpt lat="51.147793382406235" lon="6.163794016465545">
        <ele>47.719999999999999</ele>
        <time>2015-11-08T12:09:45Z</time>
      </trkpt>
      <trkpt lat="51.147764883935452" lon="6.163757555186749">
        <ele>48.200000000000003</ele>
        <time>2015-11-08T12:10:03Z</time>
      </trkpt>
      <trkpt lat="51.147764548659325" lon="6.163710951805115">
        <ele>48.200000000000003</ele>
        <time>2015-11-08T12:10:19Z</time>
      </trkpt>
      <trkpt lat="51.147784246131778" lon="6.163706677034497">
        <ele>47.240000000000002</ele>
        <time>2015-11-08T12:10:33Z</time>
      </trkpt>
      <trkpt lat="51.147820120677352" lon="6.163657726719976">
        <ele>46.280000000000001</ele>
        <time>2015-11-08T12:10:45Z</time>
      </trkpt>
      <trkpt lat="51.147782234475017" lon="6.163650518283248">
        <ele>47.719999999999999</ele>
        <time>2015-11-08T12:10:58Z</time>
      </trkpt>
      <trkpt lat="51.147795561701059" lon="6.163624450564385">
        <ele>46.280000000000001</ele>
        <time>2015-11-08T12:11:21Z</time>
      </trkpt>
      <trkpt lat="51.147821377962828" lon="6.163571393117309">
        <ele>46.759999999999998</ele>
        <time>2015-11-08T12:11:39Z</time>
      </trkpt>
      <trkpt lat="51.147864544764161" lon="6.163631994277239">
        <ele>46.759999999999998</ele>
        <time>2015-11-08T12:11:56Z</time>
      </trkpt>
      <trkpt lat="51.147860437631607" lon="6.163667030632496">
        <ele>47.240000000000002</ele>
        <time>2015-11-08T12:12:18Z</time>
      </trkpt>
      <trkpt lat="51.147859850898385" lon="6.163682034239173">
        <ele>47.719999999999999</ele>
        <time>2015-11-08T12:12:37Z</time>
      </trkpt>
      <trkpt lat="51.14785666577518" lon="6.163690416142345">
        <ele>47.719999999999999</ele>
        <time>2015-11-08T12:12:57Z</time>
      </trkpt>
      <trkpt lat="51.14785079844296" lon="6.163689913228154">
        <ele>47.240000000000002</ele>
        <time>2015-11-08T12:13:22Z</time>
      </trkpt>
      <trkpt lat="51.147855157032609" lon="6.163688823580742">
        <ele>47.719999999999999</ele>
        <time>2015-11-08T12:13:46Z</time>
      </trkpt>
      <trkpt lat="51.147849541157484" lon="6.163696870207787">
        <ele>47.719999999999999</ele>
        <time>2015-11-08T12:14:05Z</time>
      </trkpt>
      <trkpt lat="51.147847445681691" lon="6.163682956248522">
        <ele>47.719999999999999</ele>
        <time>2015-11-08T12:14:26Z</time>
      </trkpt>
      <trkpt lat="51.14784887060523" lon="6.16368823684752">
        <ele>47.719999999999999</ele>
        <time>2015-11-08T12:14:45Z</time>
      </trkpt>
      <trkpt lat="51.147858845070004" lon="6.163653954863548">
        <ele>46.759999999999998</ele>
        <time>2015-11-08T12:15:01Z</time>
      </trkpt>
      <trkpt lat="51.147894049063325" lon="6.163665605708957">
        <ele>46.759999999999998</ele>
        <time>2015-11-08T12:15:14Z</time>
      </trkpt>
      <trkpt lat="51.147937634959817" lon="6.163640711456537">
        <ele>46.759999999999998</ele>
        <time>2015-11-08T12:15:26Z</time>
      </trkpt>
      <trkpt lat="51.14794802851975" lon="6.163643896579742">
        <ele>46.759999999999998</ele>
        <time>2015-11-08T12:15:27Z</time>
      </trkpt>
      <trkpt lat="51.147989267483354" lon="6.163681279867888">
        <ele>46.280000000000001</ele>
        <time>2015-11-08T12:15:32Z</time>
      </trkpt>
      <trkpt lat="51.148011982440948" lon="6.163672814145684">
        <ele>46.759999999999998</ele>
        <time>2015-11-08T12:15:34Z</time>
      </trkpt>
      <trkpt lat="51.148037798702717" lon="6.163626043125987">
        <ele>46.280000000000001</ele>
        <time>2015-11-08T12:15:37Z</time>
      </trkpt>
      <trkpt lat="51.148118013516068" lon="6.163490759208798">
        <ele>46.280000000000001</ele>
        <time>2015-11-08T12:15:46Z</time>
      </trkpt>
      <trkpt lat="51.148162437602878" lon="6.163383889943361">
        <ele>46.280000000000001</ele>
        <time>2015-11-08T12:15:53Z</time>
      </trkpt>
      <trkpt lat="51.148253213614225" lon="6.163308201357722">
        <ele>46.280000000000001</ele>
        <time>2015-11-08T12:16:02Z</time>
      </trkpt>
      <trkpt lat="51.148431496694684" lon="6.16343317553401">
        <ele>45.32</ele>
        <time>2015-11-08T12:16:18Z</time>
      </trkpt>
      <trkpt lat="51.148439710959792" lon="6.163430660963059">
        <ele>45.32</ele>
        <time>2015-11-08T12:16:19Z</time>
      </trkpt>
      <trkpt lat="51.148426802828908" lon="6.163375088945031">
        <ele>45.799999999999997</ele>
        <time>2015-11-08T12:16:34Z</time>
      </trkpt>
      <trkpt lat="51.148392353206873" lon="6.163365785032511">
        <ele>45.32</ele>
        <time>2015-11-08T12:16:51Z</time>
      </trkpt>
      <trkpt lat="51.148366453126073" lon="6.163354218006134">
        <ele>45.799999999999997</ele>
        <time>2015-11-08T12:17:13Z</time>
      </trkpt>
      <trkpt lat="51.148362010717392" lon="6.163351871073246">
        <ele>45.32</ele>
        <time>2015-11-08T12:17:16Z</time>
      </trkpt>
      <trkpt lat="51.14830618724227" lon="6.16332421079278">
        <ele>45.32</ele>
        <time>2015-11-08T12:17:19Z</time>
      </trkpt>
      <trkpt lat="51.148276347666979" lon="6.163316834717989">
        <ele>46.280000000000001</ele>
        <time>2015-11-08T12:17:21Z</time>
      </trkpt>
      <trkpt lat="51.148235611617565" lon="6.163388667628169">
        <ele>46.280000000000001</ele>
        <time>2015-11-08T12:17:26Z</time>
      </trkpt>
      <trkpt lat="51.148027153685689" lon="6.163374921306968">
        <ele>46.280000000000001</ele>
        <time>2015-11-08T12:17:40Z</time>
      </trkpt>
      <trkpt lat="51.147915842011571" lon="6.163477348163724">
        <ele>47.240000000000002</ele>
        <time>2015-11-08T12:17:53Z</time>
      </trkpt>
      <trkpt lat="51.147897904738784" lon="6.163544738665223">
        <ele>47.240000000000002</ele>
        <time>2015-11-08T12:18:09Z</time>
      </trkpt>
      <trkpt lat="51.1478590965271" lon="6.16358757019043">
        <ele>46.759999999999998</ele>
        <time>2015-11-08T12:18:34Z</time>
      </trkpt>
      <trkpt lat="51.147868568077683" lon="6.1636115424335">
        <ele>46.759999999999998</ele>
        <time>2015-11-08T12:19:06Z</time>
      </trkpt>
      <trkpt lat="51.147872339934111" lon="6.163616990670562">
        <ele>46.280000000000001</ele>
        <time>2015-11-08T12:19:28Z</time>
      </trkpt>
      <trkpt lat="51.147879883646965" lon="6.163625037297607">
        <ele>46.280000000000001</ele>
        <time>2015-11-08T12:19:53Z</time>
      </trkpt>
      <trkpt lat="51.147876111790538" lon="6.163621852174401">
        <ele>46.280000000000001</ele>
        <time>2015-11-08T12:20:20Z</time>
      </trkpt>
      <trkpt lat="51.147872256115079" lon="6.163629982620478">
        <ele>45.799999999999997</ele>
        <time>2015-11-08T12:20:46Z</time>
      </trkpt>
      <trkpt lat="51.147877369076014" lon="6.16365160793066">
        <ele>45.799999999999997</ele>
        <time>2015-11-08T12:21:21Z</time>
      </trkpt>
      <trkpt lat="51.147879380732775" lon="6.163658564910293">
        <ele>45.799999999999997</ele>
        <time>2015-11-08T12:21:51Z</time>
      </trkpt>
      <trkpt lat="51.147889271378517" lon="6.163679854944348">
        <ele>46.280000000000001</ele>
        <time>2015-11-08T12:22:30Z</time>
      </trkpt>
      <trkpt lat="51.147887594997883" lon="6.163698546588421">
        <ele>46.280000000000001</ele>
        <time>2015-11-08T12:22:57Z</time>
      </trkpt>
      <trkpt lat="51.14789673127234" lon="6.163692930713296">
        <ele>46.280000000000001</ele>
        <time>2015-11-08T12:23:29Z</time>
      </trkpt>
      <trkpt lat="51.147896395996213" lon="6.16370340809226">
        <ele>46.280000000000001</ele>
        <time>2015-11-08T12:23:54Z</time>
      </trkpt>
      <trkpt lat="51.147896898910403" lon="6.163691924884915">
        <ele>46.280000000000001</ele>
        <time>2015-11-08T12:24:16Z</time>
      </trkpt>
      <trkpt lat="51.14789723418653" lon="6.163681447505951">
        <ele>46.280000000000001</ele>
        <time>2015-11-08T12:24:37Z</time>
      </trkpt>
      <trkpt lat="51.14789723418653" lon="6.163679771125317">
        <ele>46.280000000000001</ele>
        <time>2015-11-08T12:24:59Z</time>
      </trkpt>
      <trkpt lat="51.147901341319084" lon="6.163682034239173">
        <ele>45.799999999999997</ele>
        <time>2015-11-08T12:25:20Z</time>
      </trkpt>
      <trkpt lat="51.147911986336112" lon="6.163677340373397">
        <ele>45.799999999999997</ele>
        <time>2015-11-08T12:25:51Z</time>
      </trkpt>
      <trkpt lat="51.147903017699718" lon="6.163678094744682">
        <ele>45.799999999999997</ele>
        <time>2015-11-08T12:26:21Z</time>
      </trkpt>
      <trkpt lat="51.147896060720086" lon="6.16366627626121">
        <ele>46.280000000000001</ele>
        <time>2015-11-08T12:26:55Z</time>
      </trkpt>
      <trkpt lat="51.147882482036948" lon="6.163672143593431">
        <ele>45.799999999999997</ele>
        <time>2015-11-08T12:27:09Z</time>
      </trkpt>
      <trkpt lat="51.147884661331773" lon="6.163687482476234">
        <ele>45.799999999999997</ele>
        <time>2015-11-08T12:27:36Z</time>
      </trkpt>
      <trkpt lat="51.147893043234944" lon="6.163684464991093">
        <ele>45.32</ele>
        <time>2015-11-08T12:28:11Z</time>
      </trkpt>
      <trkpt lat="51.147896647453308" lon="6.163678010925651">
        <ele>45.799999999999997</ele>
        <time>2015-11-08T12:28:47Z</time>
      </trkpt>
      <trkpt lat="51.14789430052042" lon="6.16367750801146">
        <ele>45.799999999999997</ele>
        <time>2015-11-08T12:29:20Z</time>
      </trkpt>
      <trkpt lat="51.147894049063325" lon="6.163675915449858">
        <ele>45.799999999999997</ele>
        <time>2015-11-08T12:29:52Z</time>
      </trkpt>
      <trkpt lat="51.147900000214577" lon="6.163657139986754">
        <ele>45.799999999999997</ele>
        <time>2015-11-08T12:30:10Z</time>
      </trkpt>
      <trkpt lat="51.147907124832273" lon="6.163646914064884">
        <ele>45.799999999999997</ele>
        <time>2015-11-08T12:30:40Z</time>
      </trkpt>
      <trkpt lat="51.147907376289368" lon="6.16364230401814">
        <ele>45.799999999999997</ele>
        <time>2015-11-08T12:31:10Z</time>
      </trkpt>
      <trkpt lat="51.147907627746463" lon="6.163646830245853">
        <ele>45.799999999999997</ele>
        <time>2015-11-08T12:31:33Z</time>
      </trkpt>
      <trkpt lat="51.147902347147465" lon="6.163634089753032">
        <ele>45.32</ele>
        <time>2015-11-08T12:32:12Z</time>
      </trkpt>
      <trkpt lat="51.147909807041287" lon="6.163619253784418">
        <ele>45.799999999999997</ele>
        <time>2015-11-08T12:32:44Z</time>
      </trkpt>
      <trkpt lat="51.14791139960289" lon="6.163616320118308">
        <ele>45.799999999999997</ele>
        <time>2015-11-08T12:33:06Z</time>
      </trkpt>
      <trkpt lat="51.147910058498383" lon="6.16362034343183">
        <ele>45.799999999999997</ele>
        <time>2015-11-08T12:33:22Z</time>
      </trkpt>
      <trkpt lat="51.147921625524759" lon="6.163636771962047">
        <ele>45.32</ele>
        <time>2015-11-08T12:33:51Z</time>
      </trkpt>
      <trkpt lat="51.147930342704058" lon="6.163642220199108">
        <ele>45.799999999999997</ele>
        <time>2015-11-08T12:34:19Z</time>
      </trkpt>
      <trkpt lat="51.147931599989533" lon="6.163640962913632">
        <ele>45.32</ele>
        <time>2015-11-08T12:34:41Z</time>
      </trkpt>
      <trkpt lat="51.147928414866328" lon="6.16364280693233">
        <ele>45.32</ele>
        <time>2015-11-08T12:34:58Z</time>
      </trkpt>
      <trkpt lat="51.14792799577117" lon="6.163640208542347">
        <ele>44.840000000000003</ele>
        <time>2015-11-08T12:35:28Z</time>
      </trkpt>
      <trkpt lat="51.147926989942789" lon="6.16364037618041">
        <ele>44.840000000000003</ele>
        <time>2015-11-08T12:35:54Z</time>
      </trkpt>
      <trkpt lat="51.147922715172172" lon="6.163641130551696">
        <ele>44.840000000000003</ele>
        <time>2015-11-08T12:36:19Z</time>
      </trkpt>
      <trkpt lat="51.14792212843895" lon="6.163639286532998">
        <ele>44.359999999999999</ele>
        <time>2015-11-08T12:36:53Z</time>
      </trkpt>
      <trkpt lat="51.147939311340451" lon="6.163642974570394">
        <ele>44.359999999999999</ele>
        <time>2015-11-08T12:37:25Z</time>
      </trkpt>
      <trkpt lat="51.147928666323423" lon="6.163638699799776">
        <ele>44.359999999999999</ele>
        <time>2015-11-08T12:37:57Z</time>
      </trkpt>
      <trkpt lat="51.147916093468666" lon="6.163632329553366">
        <ele>44.359999999999999</ele>
        <time>2015-11-08T12:38:28Z</time>
      </trkpt>
      <trkpt lat="51.147918608039618" lon="6.163627132773399">
        <ele>44.359999999999999</ele>
        <time>2015-11-08T12:38:58Z</time>
      </trkpt>
      <trkpt lat="51.147921709343791" lon="6.163616655394435">
        <ele>44.359999999999999</ele>
        <time>2015-11-08T12:39:32Z</time>
      </trkpt>
      <trkpt lat="51.147922966629267" lon="6.163600645959377">
        <ele>43.880000000000003</ele>
        <time>2015-11-08T12:40:07Z</time>
      </trkpt>
      <trkpt lat="51.147916428744793" lon="6.163608776405454">
        <ele>43.880000000000003</ele>
        <time>2015-11-08T12:40:31Z</time>
      </trkpt>
      <trkpt lat="51.147924223914742" lon="6.163602154701948">
        <ele>43.880000000000003</ele>
        <time>2015-11-08T12:40:59Z</time>
      </trkpt>
      <trkpt lat="51.147928079590201" lon="6.163606597110629">
        <ele>43.880000000000003</ele>
        <time>2015-11-08T12:41:30Z</time>
      </trkpt>
      <trkpt lat="51.147940903902054" lon="6.163590839132667">
        <ele>43.880000000000003</ele>
        <time>2015-11-08T12:42:04Z</time>
      </trkpt>
      <trkpt lat="51.147937048226595" lon="6.163582457229495">
        <ele>43.880000000000003</ele>
        <time>2015-11-08T12:42:27Z</time>
      </trkpt>
      <trkpt lat="51.147937467321754" lon="6.163581870496273">
        <ele>43.880000000000003</ele>
        <time>2015-11-08T12:42:54Z</time>
      </trkpt>
      <trkpt lat="51.147931348532438" lon="6.163580864667893">
        <ele>44.359999999999999</ele>
        <time>2015-11-08T12:43:18Z</time>
      </trkpt>
      <trkpt lat="51.14792900159955" lon="6.163583043962717">
        <ele>44.359999999999999</ele>
        <time>2015-11-08T12:43:37Z</time>
      </trkpt>
      <trkpt lat="51.147928414866328" lon="6.163585726171732">
        <ele>44.840000000000003</ele>
        <time>2015-11-08T12:43:59Z</time>
      </trkpt>
      <trkpt lat="51.147929839789867" lon="6.163590084761381">
        <ele>44.840000000000003</ele>
        <time>2015-11-08T12:44:22Z</time>
      </trkpt>
      <trkpt lat="51.147930007427931" lon="6.163590168580413">
        <ele>45.32</ele>
        <time>2015-11-08T12:44:47Z</time>
      </trkpt>
      <trkpt lat="51.147928331047297" lon="6.163576506078243">
        <ele>45.32</ele>
        <time>2015-11-08T12:45:16Z</time>
      </trkpt>
      <trkpt lat="51.147932354360819" lon="6.163580780848861">
        <ele>45.32</ele>
        <time>2015-11-08T12:45:40Z</time>
      </trkpt>
      <trkpt lat="51.147930091246963" lon="6.163581954315305">
        <ele>46.280000000000001</ele>
        <time>2015-11-08T12:45:51Z</time>
      </trkpt>
      <trkpt lat="51.147898323833942" lon="6.163671221584082">
        <ele>46.759999999999998</ele>
        <time>2015-11-08T12:46:04Z</time>
      </trkpt>
      <trkpt lat="51.147886086255312" lon="6.163682453334332">
        <ele>47.240000000000002</ele>
        <time>2015-11-08T12:46:19Z</time>
      </trkpt>
      <trkpt lat="51.14787376485765" lon="6.163677843287587">
        <ele>47.240000000000002</ele>
        <time>2015-11-08T12:46:43Z</time>
      </trkpt>
      <trkpt lat="51.147864209488034" lon="6.163668539375067">
        <ele>46.759999999999998</ele>
        <time>2015-11-08T12:46:59Z</time>
      </trkpt>
      <trkpt lat="51.147884493693709" lon="6.163684716448188">
        <ele>46.280000000000001</ele>
        <time>2015-11-08T12:47:15Z</time>
      </trkpt>
      <trkpt lat="51.147894468158484" lon="6.163697624579072">
        <ele>46.759999999999998</ele>
        <time>2015-11-08T12:47:39Z</time>
      </trkpt>
      <trkpt lat="51.147892791777849" lon="6.163704330101609">
        <ele>46.280000000000001</ele>
        <time>2015-11-08T12:47:51Z</time>
      </trkpt>
      <trkpt lat="51.14787963218987" lon="6.163704749196768">
        <ele>46.759999999999998</ele>
        <time>2015-11-08T12:48:06Z</time>
      </trkpt>
      <trkpt lat="51.147867394611239" lon="6.163705084472895">
        <ele>47.719999999999999</ele>
        <time>2015-11-08T12:48:20Z</time>
      </trkpt>
      <trkpt lat="51.147848116233945" lon="6.163716483861208">
        <ele>47.240000000000002</ele>
        <time>2015-11-08T12:48:37Z</time>
      </trkpt>
      <trkpt lat="51.147837471216917" lon="6.163719752803445">
        <ele>47.240000000000002</ele>
        <time>2015-11-08T12:48:57Z</time>
      </trkpt>
      <trkpt lat="51.147839818149805" lon="6.16371413692832">
        <ele>47.240000000000002</ele>
        <time>2015-11-08T12:49:23Z</time>
      </trkpt>
      <trkpt lat="51.147848786786199" lon="6.163698798045516">
        <ele>46.759999999999998</ele>
        <time>2015-11-08T12:49:29Z</time>
      </trkpt>
      <trkpt lat="51.147872591391206" lon="6.163682620972395">
        <ele>46.280000000000001</ele>
        <time>2015-11-08T12:49:39Z</time>
      </trkpt>
      <trkpt lat="51.147874100133777" lon="6.163688153028488">
        <ele>47.240000000000002</ele>
        <time>2015-11-08T12:49:53Z</time>
      </trkpt>
      <trkpt lat="51.147868484258652" lon="6.163688488304615">
        <ele>47.719999999999999</ele>
        <time>2015-11-08T12:50:11Z</time>
      </trkpt>
      <trkpt lat="51.147864293307066" lon="6.163691254332662">
        <ele>47.240000000000002</ele>
        <time>2015-11-08T12:50:27Z</time>
      </trkpt>
      <trkpt lat="51.147857336327434" lon="6.163698378950357">
        <ele>47.240000000000002</ele>
        <time>2015-11-08T12:50:42Z</time>
      </trkpt>
      <trkpt lat="51.147855659946799" lon="6.163702066987753">
        <ele>47.240000000000002</ele>
        <time>2015-11-08T12:50:56Z</time>
      </trkpt>
      <trkpt lat="51.14785079844296" lon="6.163711454719305">
        <ele>47.240000000000002</ele>
        <time>2015-11-08T12:51:11Z</time>
      </trkpt>
      <trkpt lat="51.147836968302727" lon="6.163727883249521">
        <ele>47.240000000000002</ele>
        <time>2015-11-08T12:51:33Z</time>
      </trkpt>
      <trkpt lat="51.147832609713078" lon="6.163726458325982">
        <ele>47.240000000000002</ele>
        <time>2015-11-08T12:51:48Z</time>
      </trkpt>
      <trkpt lat="51.147842584177852" lon="6.163734756410122">
        <ele>47.240000000000002</ele>
        <time>2015-11-08T12:52:13Z</time>
      </trkpt>
      <trkpt lat="51.147842667996883" lon="6.163735510781407">
        <ele>46.759999999999998</ele>
        <time>2015-11-08T12:52:34Z</time>
      </trkpt>
      <trkpt lat="51.147830849513412" lon="6.163752106949687">
        <ele>47.240000000000002</ele>
        <time>2015-11-08T12:52:54Z</time>
      </trkpt>
      <trkpt lat="51.147830681875348" lon="6.163758980110288">
        <ele>46.759999999999998</ele>
        <time>2015-11-08T12:53:08Z</time>
      </trkpt>
      <trkpt lat="51.147825568914413" lon="6.163764595985413">
        <ele>47.240000000000002</ele>
        <time>2015-11-08T12:53:29Z</time>
      </trkpt>
      <trkpt lat="51.147820958867669" lon="6.16377473808825">
        <ele>47.240000000000002</ele>
        <time>2015-11-08T12:53:49Z</time>
      </trkpt>
      <trkpt lat="51.147819701582193" lon="6.163781778886914">
        <ele>47.240000000000002</ele>
        <time>2015-11-08T12:54:08Z</time>
      </trkpt>
      <trkpt lat="51.147816432639956" lon="6.163788987323642">
        <ele>47.240000000000002</ele>
        <time>2015-11-08T12:54:28Z</time>
      </trkpt>
      <trkpt lat="51.147814001888037" lon="6.16379183717072">
        <ele>47.240000000000002</ele>
        <time>2015-11-08T12:54:49Z</time>
      </trkpt>
      <trkpt lat="51.147810649126768" lon="6.163796111941338">
        <ele>47.240000000000002</ele>
        <time>2015-11-08T12:55:13Z</time>
      </trkpt>
      <trkpt lat="51.147811152040958" lon="6.163796111941338">
        <ele>47.719999999999999</ele>
        <time>2015-11-08T12:55:30Z</time>
      </trkpt>
      <trkpt lat="51.147814504802227" lon="6.163790496066213">
        <ele>47.719999999999999</ele>
        <time>2015-11-08T12:55:49Z</time>
      </trkpt>
      <trkpt lat="51.147825317457318" lon="6.163785802200437">
        <ele>47.719999999999999</ele>
        <time>2015-11-08T12:56:17Z</time>
      </trkpt>
      <trkpt lat="51.147856330499053" lon="6.163723273202777">
        <ele>46.759999999999998</ele>
        <time>2015-11-08T12:56:31Z</time>
      </trkpt>
      <trkpt lat="51.147869909182191" lon="6.163644986227155">
        <ele>46.759999999999998</ele>
        <time>2015-11-08T12:56:36Z</time>
      </trkpt>
      <trkpt lat="51.147937467321754" lon="6.163334269076586">
        <ele>46.759999999999998</ele>
        <time>2015-11-08T12:56:52Z</time>
      </trkpt>
      <trkpt lat="51.147981220856309" lon="6.163279619067907">
        <ele>46.280000000000001</ele>
        <time>2015-11-08T12:57:00Z</time>
      </trkpt>
      <trkpt lat="51.148035451769829" lon="6.163342902436853">
        <ele>46.280000000000001</ele>
        <time>2015-11-08T12:57:05Z</time>
      </trkpt>
      <trkpt lat="51.148076774552464" lon="6.163390092551708">
        <ele>45.799999999999997</ele>
        <time>2015-11-08T12:57:09Z</time>
      </trkpt>
      <trkpt lat="51.14821289665997" lon="6.163544654846191">
        <ele>45.799999999999997</ele>
        <time>2015-11-08T12:57:24Z</time>
      </trkpt>
      <trkpt lat="51.148371230810881" lon="6.163638196885586">
        <ele>44.359999999999999</ele>
        <time>2015-11-08T12:57:40Z</time>
      </trkpt>
      <trkpt lat="51.148436106741428" lon="6.163636771962047">
        <ele>45.799999999999997</ele>
        <time>2015-11-08T12:57:47Z</time>
      </trkpt>
      <trkpt lat="51.148471059277654" lon="6.163625624030829">
        <ele>45.32</ele>
        <time>2015-11-08T12:57:50Z</time>
      </trkpt>
      <trkpt lat="51.148531828075647" lon="6.163586061447859">
        <ele>45.32</ele>
        <time>2015-11-08T12:57:55Z</time>
      </trkpt>
      <trkpt lat="51.148609779775143" lon="6.163598131388426">
        <ele>45.32</ele>
        <time>2015-11-08T12:58:05Z</time>
      </trkpt>
      <trkpt lat="51.148735508322716" lon="6.163649428635836">
        <ele>45.32</ele>
        <time>2015-11-08T12:58:20Z</time>
      </trkpt>
      <trkpt lat="51.148884035646915" lon="6.163709945976734">
        <ele>45.32</ele>
        <time>2015-11-08T12:58:34Z</time>
      </trkpt>
      <trkpt lat="51.149088554084301" lon="6.163897784426808">
        <ele>45.32</ele>
        <time>2015-11-08T12:58:49Z</time>
      </trkpt>
      <trkpt lat="51.149232136085629" lon="6.164065422490239">
        <ele>45.32</ele>
        <time>2015-11-08T12:59:02Z</time>
      </trkpt>
      <trkpt lat="51.149413269013166" lon="6.164220906794071">
        <ele>45.32</ele>
        <time>2015-11-08T12:59:16Z</time>
      </trkpt>
      <trkpt lat="51.14957956597209" lon="6.16447102278471">
        <ele>45.32</ele>
        <time>2015-11-08T12:59:29Z</time>
      </trkpt>
      <trkpt lat="51.149666486307979" lon="6.164650898426771">
        <ele>44.840000000000003</ele>
        <time>2015-11-08T12:59:43Z</time>
      </trkpt>
      <trkpt lat="51.149696577340364" lon="6.164704374969006">
        <ele>45.32</ele>
        <time>2015-11-08T12:59:48Z</time>
      </trkpt>
      <trkpt lat="51.149788107722998" lon="6.164930267259479">
        <ele>45.799999999999997</ele>
        <time>2015-11-08T13:00:02Z</time>
      </trkpt>
      <trkpt lat="51.14986983127892" lon="6.164969159290195">
        <ele>45.799999999999997</ele>
        <time>2015-11-08T13:00:07Z</time>
      </trkpt>
      <trkpt lat="51.14992456510663" lon="6.165337041020393">
        <ele>46.759999999999998</ele>
        <time>2015-11-08T13:00:22Z</time>
      </trkpt>
      <trkpt lat="51.150105530396104" lon="6.165488921105862">
        <ele>48.200000000000003</ele>
        <time>2015-11-08T13:00:35Z</time>
      </trkpt>
      <trkpt lat="51.150147775188088" lon="6.165495458990336">
        <ele>48.68</ele>
        <time>2015-11-08T13:00:37Z</time>
      </trkpt>
      <trkpt lat="51.150461509823799" lon="6.165698133409023">
        <ele>50.609999999999999</ele>
        <time>2015-11-08T13:00:52Z</time>
      </trkpt>
      <trkpt lat="51.150614395737648" lon="6.165759908035398">
        <ele>52.049999999999997</ele>
        <time>2015-11-08T13:01:07Z</time>
      </trkpt>
      <trkpt lat="51.150699807330966" lon="6.165767787024379">
        <ele>52.530000000000001</ele>
        <time>2015-11-08T13:01:13Z</time>
      </trkpt>
      <trkpt lat="51.15092477761209" lon="6.165962414816022">
        <ele>53.009999999999998</ele>
        <time>2015-11-08T13:01:30Z</time>
      </trkpt>
      <trkpt lat="51.151039861142635" lon="6.166025279089809">
        <ele>53.969999999999999</ele>
        <time>2015-11-08T13:01:42Z</time>
      </trkpt>
      <trkpt lat="51.151236332952976" lon="6.165990326553583">
        <ele>54.450000000000003</ele>
        <time>2015-11-08T13:01:56Z</time>
      </trkpt>
      <trkpt lat="51.151250079274178" lon="6.165990578010678">
        <ele>54.450000000000003</ele>
        <time>2015-11-08T13:01:57Z</time>
      </trkpt>
      <trkpt lat="51.151390811428428" lon="6.165933748707175">
        <ele>54.450000000000003</ele>
        <time>2015-11-08T13:02:11Z</time>
      </trkpt>
      <trkpt lat="51.151525340974331" lon="6.16585629992187">
        <ele>53.969999999999999</ele>
        <time>2015-11-08T13:02:24Z</time>
      </trkpt>
      <trkpt lat="51.151616284623742" lon="6.165844397619367">
        <ele>53.969999999999999</ele>
        <time>2015-11-08T13:02:36Z</time>
      </trkpt>
      <trkpt lat="51.151751903817058" lon="6.165788406506181">
        <ele>53.490000000000002</ele>
        <time>2015-11-08T13:02:46Z</time>
      </trkpt>
      <trkpt lat="51.151900431141257" lon="6.165732080116868">
        <ele>53.009999999999998</ele>
        <time>2015-11-08T13:02:59Z</time>
      </trkpt>
      <trkpt lat="51.151992380619049" lon="6.165712215006352">
        <ele>52.530000000000001</ele>
        <time>2015-11-08T13:03:14Z</time>
      </trkpt>
      <trkpt lat="51.152049209922552" lon="6.165652116760612">
        <ele>53.009999999999998</ele>
        <time>2015-11-08T13:03:29Z</time>
      </trkpt>
      <trkpt lat="51.152231767773628" lon="6.165589587762952">
        <ele>53.490000000000002</ele>
        <time>2015-11-08T13:03:46Z</time>
      </trkpt>
      <trkpt lat="51.152318771928549" lon="6.165605764836073">
        <ele>53.490000000000002</ele>
        <time>2015-11-08T13:04:00Z</time>
      </trkpt>
      <trkpt lat="51.152363028377295" lon="6.165633928030729">
        <ele>53.969999999999999</ele>
        <time>2015-11-08T13:04:03Z</time>
      </trkpt>
      <trkpt lat="51.152659580111504" lon="6.16576099768281">
        <ele>53.969999999999999</ele>
        <time>2015-11-08T13:04:18Z</time>
      </trkpt>
      <trkpt lat="51.152898129075766" lon="6.165954535827041">
        <ele>53.969999999999999</ele>
        <time>2015-11-08T13:04:32Z</time>
      </trkpt>
      <trkpt lat="51.153068281710148" lon="6.16605905815959">
        <ele>53.969999999999999</ele>
        <time>2015-11-08T13:04:38Z</time>
      </trkpt>
      <trkpt lat="51.153352428227663" lon="6.166248489171267">
        <ele>53.490000000000002</ele>
        <time>2015-11-08T13:04:51Z</time>
      </trkpt>
      <trkpt lat="51.153544876724482" lon="6.166489887982607">
        <ele>53.009999999999998</ele>
        <time>2015-11-08T13:05:04Z</time>
      </trkpt>
      <trkpt lat="51.153715364634991" lon="6.166724413633347">
        <ele>52.530000000000001</ele>
        <time>2015-11-08T13:05:18Z</time>
      </trkpt>
      <trkpt lat="51.153807314112782" lon="6.166900936514139">
        <ele>53.009999999999998</ele>
        <time>2015-11-08T13:05:27Z</time>
      </trkpt>
      <trkpt lat="51.15385215729475" lon="6.166968997567892">
        <ele>53.490000000000002</ele>
        <time>2015-11-08T13:05:31Z</time>
      </trkpt>
      <trkpt lat="51.153876632452011" lon="6.167104030027986">
        <ele>53.490000000000002</ele>
        <time>2015-11-08T13:05:36Z</time>
      </trkpt>
      <trkpt lat="51.153968749567866" lon="6.167391864582896">
        <ele>53.490000000000002</ele>
        <time>2015-11-08T13:05:51Z</time>
      </trkpt>
      <trkpt lat="51.154106631875038" lon="6.167730744928122">
        <ele>53.490000000000002</ele>
        <time>2015-11-08T13:06:06Z</time>
      </trkpt>
      <trkpt lat="51.154216937720776" lon="6.168022016063333">
        <ele>52.530000000000001</ele>
        <time>2015-11-08T13:06:22Z</time>
      </trkpt>
      <trkpt lat="51.154342917725444" lon="6.168213123455644">
        <ele>53.009999999999998</ele>
        <time>2015-11-08T13:06:32Z</time>
      </trkpt>
      <trkpt lat="51.154378121718764" lon="6.168264085426927">
        <ele>52.530000000000001</ele>
        <time>2015-11-08T13:06:36Z</time>
      </trkpt>
      <trkpt lat="51.154441824182868" lon="6.168370954692364">
        <ele>52.530000000000001</ele>
        <time>2015-11-08T13:06:43Z</time>
      </trkpt>
      <trkpt lat="51.154454983770847" lon="6.168405655771494">
        <ele>52.530000000000001</ele>
        <time>2015-11-08T13:06:45Z</time>
      </trkpt>
      <trkpt lat="51.154542323201895" lon="6.168490312993527">
        <ele>53.009999999999998</ele>
        <time>2015-11-08T13:06:53Z</time>
      </trkpt>
      <trkpt lat="51.154570486396551" lon="6.168500958010554">
        <ele>52.530000000000001</ele>
        <time>2015-11-08T13:06:56Z</time>
      </trkpt>
      <trkpt lat="51.15460803732276" lon="6.168526271358132">
        <ele>52.530000000000001</ele>
        <time>2015-11-08T13:07:01Z</time>
      </trkpt>
      <trkpt lat="51.154677774757147" lon="6.168704135343432">
        <ele>52.530000000000001</ele>
        <time>2015-11-08T13:07:08Z</time>
      </trkpt>
      <trkpt lat="51.154701663181186" lon="6.168736321851611">
        <ele>52.530000000000001</ele>
        <time>2015-11-08T13:07:10Z</time>
      </trkpt>
      <trkpt lat="51.154734520241618" lon="6.16874797269702">
        <ele>52.530000000000001</ele>
        <time>2015-11-08T13:07:14Z</time>
      </trkpt>
      <trkpt lat="51.154757654294372" lon="6.16884671151638">
        <ele>52.530000000000001</ele>
        <time>2015-11-08T13:07:17Z</time>
      </trkpt>
      <trkpt lat="51.154787326231599" lon="6.169318445026875">
        <ele>53.490000000000002</ele>
        <time>2015-11-08T13:07:31Z</time>
      </trkpt>
      <trkpt lat="51.15482940338552" lon="6.169499577954412">
        <ele>53.490000000000002</ele>
        <time>2015-11-08T13:07:38Z</time>
      </trkpt>
      <trkpt lat="51.154901152476668" lon="6.16967735812068">
        <ele>53.490000000000002</ele>
        <time>2015-11-08T13:07:47Z</time>
      </trkpt>
      <trkpt lat="51.154924621805549" lon="6.169753298163414">
        <ele>53.490000000000002</ele>
        <time>2015-11-08T13:07:51Z</time>
      </trkpt>
      <trkpt lat="51.155011374503374" lon="6.170011041685939">
        <ele>53.490000000000002</ele>
        <time>2015-11-08T13:08:05Z</time>
      </trkpt>
      <trkpt lat="51.155153447762132" lon="6.170245483517647">
        <ele>53.969999999999999</ele>
        <time>2015-11-08T13:08:19Z</time>
      </trkpt>
      <trkpt lat="51.155213713645935" lon="6.170384204015136">
        <ele>53.969999999999999</ele>
        <time>2015-11-08T13:08:31Z</time>
      </trkpt>
      <trkpt lat="51.155209103599191" lon="6.170468106865883">
        <ele>53.969999999999999</ele>
        <time>2015-11-08T13:08:33Z</time>
      </trkpt>
      <trkpt lat="51.15522469393909" lon="6.170577742159367">
        <ele>53.969999999999999</ele>
        <time>2015-11-08T13:08:37Z</time>
      </trkpt>
      <trkpt lat="51.155373221263289" lon="6.170916119590402">
        <ele>54.450000000000003</ele>
        <time>2015-11-08T13:08:52Z</time>
      </trkpt>
      <trkpt lat="51.155432397499681" lon="6.171000944450498">
        <ele>54.450000000000003</ele>
        <time>2015-11-08T13:08:56Z</time>
      </trkpt>
      <trkpt lat="51.15560045465827" lon="6.17125709541142">
        <ele>54.93</ele>
        <time>2015-11-08T13:09:09Z</time>
      </trkpt>
      <trkpt lat="51.155723668634892" lon="6.171431438997388">
        <ele>54.93</ele>
        <time>2015-11-08T13:09:20Z</time>
      </trkpt>
      <trkpt lat="51.155766081064939" lon="6.17157518863678">
        <ele>55.409999999999997</ele>
        <time>2015-11-08T13:09:29Z</time>
      </trkpt>
      <trkpt lat="51.155859539285302" lon="6.171774845570326">
        <ele>55.890000000000001</ele>
        <time>2015-11-08T13:09:44Z</time>
      </trkpt>
      <trkpt lat="51.155990799888968" lon="6.172044575214386">
        <ele>56.369999999999997</ele>
        <time>2015-11-08T13:09:58Z</time>
      </trkpt>
      <trkpt lat="51.156063470989466" lon="6.172157563269138">
        <ele>56.859999999999999</ele>
        <time>2015-11-08T13:10:05Z</time>
      </trkpt>
      <trkpt lat="51.156121892854571" lon="6.17224657908082">
        <ele>56.859999999999999</ele>
        <time>2015-11-08T13:10:10Z</time>
      </trkpt>
      <trkpt lat="51.156269917264581" lon="6.172551428899169">
        <ele>56.859999999999999</ele>
        <time>2015-11-08T13:10:25Z</time>
      </trkpt>
      <trkpt lat="51.156320963054895" lon="6.172615718096495">
        <ele>57.340000000000003</ele>
        <time>2015-11-08T13:10:29Z</time>
      </trkpt>
      <trkpt lat="51.156551884487271" lon="6.172769526019692">
        <ele>57.340000000000003</ele>
        <time>2015-11-08T13:10:45Z</time>
      </trkpt>
      <trkpt lat="51.156592285260558" lon="6.172885950654745">
        <ele>57.82</ele>
        <time>2015-11-08T13:10:57Z</time>
      </trkpt>
      <trkpt lat="51.156629752367735" lon="6.172986198216677">
        <ele>57.340000000000003</ele>
        <time>2015-11-08T13:11:01Z</time>
      </trkpt>
      <trkpt lat="51.156768137589097" lon="6.173423063009977">
        <ele>57.82</ele>
        <time>2015-11-08T13:11:17Z</time>
      </trkpt>
      <trkpt lat="51.156782973557711" lon="6.173488358035684">
        <ele>57.82</ele>
        <time>2015-11-08T13:11:19Z</time>
      </trkpt>
      <trkpt lat="51.156829241663218" lon="6.174023542553186">
        <ele>58.780000000000001</ele>
        <time>2015-11-08T13:11:34Z</time>
      </trkpt>
      <trkpt lat="51.156868971884251" lon="6.174327386543155">
        <ele>58.780000000000001</ele>
        <time>2015-11-08T13:11:48Z</time>
      </trkpt>
      <trkpt lat="51.156866457313299" lon="6.174363428726792">
        <ele>59.259999999999998</ele>
        <time>2015-11-08T13:11:50Z</time>
      </trkpt>
      <trkpt lat="51.156958993524313" lon="6.174607342109084">
        <ele>59.259999999999998</ele>
        <time>2015-11-08T13:12:04Z</time>
      </trkpt>
      <trkpt lat="51.157041052356362" lon="6.174746649339795">
        <ele>59.740000000000002</ele>
        <time>2015-11-08T13:12:16Z</time>
      </trkpt>
      <trkpt lat="51.15705169737339" lon="6.17475419305265">
        <ele>59.740000000000002</ele>
        <time>2015-11-08T13:12:17Z</time>
      </trkpt>
      <trkpt lat="51.157194692641497" lon="6.174879418686032">
        <ele>60.219999999999999</ele>
        <time>2015-11-08T13:12:28Z</time>
      </trkpt>
      <trkpt lat="51.157385548576713" lon="6.175060886889696">
        <ele>61.18</ele>
        <time>2015-11-08T13:12:42Z</time>
      </trkpt>
      <trkpt lat="51.157537847757339" lon="6.17519591934979">
        <ele>62.140000000000001</ele>
        <time>2015-11-08T13:12:55Z</time>
      </trkpt>
      <trkpt lat="51.157709006220102" lon="6.175308572128415">
        <ele>63.100000000000001</ele>
        <time>2015-11-08T13:13:08Z</time>
      </trkpt>
      <trkpt lat="51.157743874937296" lon="6.175354840233922">
        <ele>63.579999999999998</ele>
        <time>2015-11-08T13:13:12Z</time>
      </trkpt>
      <trkpt lat="51.157921822741628" lon="6.17552625015378">
        <ele>64.069999999999993</ele>
        <time>2015-11-08T13:13:29Z</time>
      </trkpt>
      <trkpt lat="51.158135980367661" lon="6.175664383918047">
        <ele>64.549999999999997</ele>
        <time>2015-11-08T13:13:43Z</time>
      </trkpt>
      <trkpt lat="51.158337397500873" lon="6.175767062231898">
        <ele>65.030000000000001</ele>
        <time>2015-11-08T13:13:59Z</time>
      </trkpt>
      <trkpt lat="51.158421048894525" lon="6.175779383629561">
        <ele>66.469999999999999</ele>
        <time>2015-11-08T13:14:11Z</time>
      </trkpt>
      <trkpt lat="51.158515512943268" lon="6.175744011998177">
        <ele>67.909999999999997</ele>
        <time>2015-11-08T13:14:23Z</time>
      </trkpt>
      <trkpt lat="51.158551638945937" lon="6.175721045583487">
        <ele>67.909999999999997</ele>
        <time>2015-11-08T13:14:34Z</time>
      </trkpt>
      <trkpt lat="51.158707709982991" lon="6.175553826615214">
        <ele>68.870000000000005</ele>
        <time>2015-11-08T13:14:49Z</time>
      </trkpt>
      <trkpt lat="51.158860847353935" lon="6.175326760858297">
        <ele>69.829999999999998</ele>
        <time>2015-11-08T13:15:04Z</time>
      </trkpt>
      <trkpt lat="51.158872246742249" lon="6.175276301801205">
        <ele>69.829999999999998</ele>
        <time>2015-11-08T13:15:07Z</time>
      </trkpt>
      <trkpt lat="51.15889529697597" lon="6.175168761983514">
        <ele>69.829999999999998</ele>
        <time>2015-11-08T13:15:12Z</time>
      </trkpt>
      <trkpt lat="51.158931339159608" lon="6.174805155023933">
        <ele>70.310000000000002</ele>
        <time>2015-11-08T13:15:30Z</time>
      </trkpt>
      <trkpt lat="51.158965118229389" lon="6.174601055681706">
        <ele>69.829999999999998</ele>
        <time>2015-11-08T13:15:41Z</time>
      </trkpt>
      <trkpt lat="51.158992946147919" lon="6.174429478123784">
        <ele>69.829999999999998</ele>
        <time>2015-11-08T13:15:50Z</time>
      </trkpt>
      <trkpt lat="51.15901499055326" lon="6.174325877800584">
        <ele>69.829999999999998</ele>
        <time>2015-11-08T13:15:55Z</time>
      </trkpt>
      <trkpt lat="51.159027144312859" lon="6.174177266657352">
        <ele>70.310000000000002</ele>
        <time>2015-11-08T13:16:02Z</time>
      </trkpt>
      <trkpt lat="51.159143820405006" lon="6.173891527578235">
        <ele>71.269999999999996</ele>
        <time>2015-11-08T13:16:18Z</time>
      </trkpt>
      <trkpt lat="51.159244067966938" lon="6.173669490963221">
        <ele>71.269999999999996</ele>
        <time>2015-11-08T13:16:32Z</time>
      </trkpt>
      <trkpt lat="51.159325540065765" lon="6.173437647521496">
        <ele>70.790000000000006</ele>
        <time>2015-11-08T13:16:45Z</time>
      </trkpt>
      <trkpt lat="51.159417741000652" lon="6.173218544572592">
        <ele>70.790000000000006</ele>
        <time>2015-11-08T13:16:58Z</time>
      </trkpt>
      <trkpt lat="51.159511785954237" lon="6.172912186011672">
        <ele>71.269999999999996</ele>
        <time>2015-11-08T13:17:09Z</time>
      </trkpt>
      <trkpt lat="51.159591330215335" lon="6.172572216019034">
        <ele>70.310000000000002</ele>
        <time>2015-11-08T13:17:18Z</time>
      </trkpt>
      <trkpt lat="51.159721668809652" lon="6.17221187800169">
        <ele>69.829999999999998</ele>
        <time>2015-11-08T13:17:28Z</time>
      </trkpt>
      <trkpt lat="51.159860473126173" lon="6.171702593564987">
        <ele>69.829999999999998</ele>
        <time>2015-11-08T13:17:38Z</time>
      </trkpt>
      <trkpt lat="51.1600680090487" lon="6.171141425147653">
        <ele>69.349999999999994</ele>
        <time>2015-11-08T13:17:49Z</time>
      </trkpt>
      <trkpt lat="51.160276047885418" lon="6.170807154849172">
        <ele>69.349999999999994</ele>
        <time>2015-11-08T13:17:59Z</time>
      </trkpt>
      <trkpt lat="51.160282334312797" lon="6.170781506225467">
        <ele>69.349999999999994</ele>
        <time>2015-11-08T13:18:00Z</time>
      </trkpt>
      <trkpt lat="51.16029130294919" lon="6.170628285035491">
        <ele>69.349999999999994</ele>
        <time>2015-11-08T13:18:04Z</time>
      </trkpt>
      <trkpt lat="51.160439494997263" lon="6.170132998377085">
        <ele>69.349999999999994</ele>
        <time>2015-11-08T13:18:15Z</time>
      </trkpt>
      <trkpt lat="51.160645103082061" lon="6.16978875361383">
        <ele>68.870000000000005</ele>
        <time>2015-11-08T13:18:25Z</time>
      </trkpt>
      <trkpt lat="51.160774100571871" lon="6.169357001781464">
        <ele>68.870000000000005</ele>
        <time>2015-11-08T13:18:34Z</time>
      </trkpt>
      <trkpt lat="51.160943750292063" lon="6.16883983835578">
        <ele>68.390000000000001</ele>
        <time>2015-11-08T13:18:45Z</time>
      </trkpt>
      <trkpt lat="51.161162769421935" lon="6.16833608597517">
        <ele>68.390000000000001</ele>
        <time>2015-11-08T13:18:56Z</time>
      </trkpt>
      <trkpt lat="51.16130081936717" lon="6.16787969134748">
        <ele>68.390000000000001</ele>
        <time>2015-11-08T13:19:06Z</time>
      </trkpt>
      <trkpt lat="51.161495698615909" lon="6.167384488508105">
        <ele>68.390000000000001</ele>
        <time>2015-11-08T13:19:18Z</time>
      </trkpt>
      <trkpt lat="51.161650847643614" lon="6.167131690308452">
        <ele>67.909999999999997</ele>
        <time>2015-11-08T13:19:26Z</time>
      </trkpt>
      <trkpt lat="51.161792501807213" lon="6.166503299027681">
        <ele>68.390000000000001</ele>
        <time>2015-11-08T13:19:36Z</time>
      </trkpt>
      <trkpt lat="51.161826029419899" lon="6.166279837489128">
        <ele>67.909999999999997</ele>
        <time>2015-11-08T13:19:39Z</time>
      </trkpt>
      <trkpt lat="51.161938263103366" lon="6.16578932851553">
        <ele>68.390000000000001</ele>
        <time>2015-11-08T13:19:47Z</time>
      </trkpt>
      <trkpt lat="51.162054603919387" lon="6.16525431163609">
        <ele>68.390000000000001</ele>
        <time>2015-11-08T13:19:55Z</time>
      </trkpt>
      <trkpt lat="51.162135237827897" lon="6.164849046617746">
        <ele>68.870000000000005</ele>
        <time>2015-11-08T13:20:06Z</time>
      </trkpt>
      <trkpt lat="51.162537401542068" lon="6.164709320291877">
        <ele>68.870000000000005</ele>
        <time>2015-11-08T13:20:19Z</time>
      </trkpt>
      <trkpt lat="51.162551566958427" lon="6.164665902033448">
        <ele>68.870000000000005</ele>
        <time>2015-11-08T13:20:21Z</time>
      </trkpt>
      <trkpt lat="51.162561289966106" lon="6.164645869284868">
        <ele>68.870000000000005</ele>
        <time>2015-11-08T13:20:22Z</time>
      </trkpt>
      <trkpt lat="51.162601606920362" lon="6.164526008069515">
        <ele>69.349999999999994</ele>
        <time>2015-11-08T13:20:28Z</time>
      </trkpt>
      <trkpt lat="51.162668578326702" lon="6.164442859590054">
        <ele>69.349999999999994</ele>
        <time>2015-11-08T13:20:34Z</time>
      </trkpt>
      <trkpt lat="51.162680396810174" lon="6.164424084126949">
        <ele>69.349999999999994</ele>
        <time>2015-11-08T13:20:35Z</time>
      </trkpt>
      <trkpt lat="51.162802772596478" lon="6.164216380566359">
        <ele>69.349999999999994</ele>
        <time>2015-11-08T13:20:48Z</time>
      </trkpt>
      <trkpt lat="51.162840407341719" lon="6.164141446352005">
        <ele>69.349999999999994</ele>
        <time>2015-11-08T13:20:53Z</time>
      </trkpt>
      <trkpt lat="51.162958592176437" lon="6.163936927914619">
        <ele>70.310000000000002</ele>
        <time>2015-11-08T13:21:07Z</time>
      </trkpt>
      <trkpt lat="51.163040064275265" lon="6.163643142208457">
        <ele>69.829999999999998</ele>
        <time>2015-11-08T13:21:21Z</time>
      </trkpt>
      <trkpt lat="51.163121368736029" lon="6.163485981523991">
        <ele>69.829999999999998</ele>
        <time>2015-11-08T13:21:30Z</time>
      </trkpt>
      <trkpt lat="51.163229662925005" lon="6.163266962394118">
        <ele>69.349999999999994</ele>
        <time>2015-11-08T13:21:43Z</time>
      </trkpt>
      <trkpt lat="51.163242738693953" lon="6.163234943524003">
        <ele>69.349999999999994</ele>
        <time>2015-11-08T13:21:45Z</time>
      </trkpt>
      <trkpt lat="51.163249025121331" lon="6.163178700953722">
        <ele>69.349999999999994</ele>
        <time>2015-11-08T13:21:47Z</time>
      </trkpt>
      <trkpt lat="51.163255060091615" lon="6.163118435069919">
        <ele>69.349999999999994</ele>
        <time>2015-11-08T13:21:50Z</time>
      </trkpt>
      <trkpt lat="51.163377687335014" lon="6.162894470617175">
        <ele>69.349999999999994</ele>
        <time>2015-11-08T13:22:03Z</time>
      </trkpt>
      <trkpt lat="51.16348740644753" lon="6.162579981610179">
        <ele>70.310000000000002</ele>
        <time>2015-11-08T13:22:16Z</time>
      </trkpt>
      <trkpt lat="51.163594359531999" lon="6.16226096637547">
        <ele>68.870000000000005</ele>
        <time>2015-11-08T13:22:31Z</time>
      </trkpt>
      <trkpt lat="51.163607938215137" lon="6.162224169820547">
        <ele>68.870000000000005</ele>
        <time>2015-11-08T13:22:33Z</time>
      </trkpt>
      <trkpt lat="51.163739114999771" lon="6.161867938935757">
        <ele>68.390000000000001</ele>
        <time>2015-11-08T13:22:49Z</time>
      </trkpt>
      <trkpt lat="51.163779264315963" lon="6.16174204275012">
        <ele>68.390000000000001</ele>
        <time>2015-11-08T13:22:55Z</time>
      </trkpt>
      <trkpt lat="51.163822431117296" lon="6.161585049703717">
        <ele>68.390000000000001</ele>
        <time>2015-11-08T13:23:02Z</time>
      </trkpt>
      <trkpt lat="51.163956290110946" lon="6.161288665607572">
        <ele>68.390000000000001</ele>
        <time>2015-11-08T13:23:17Z</time>
      </trkpt>
      <trkpt lat="51.164043042808771" lon="6.161123877391219">
        <ele>67.909999999999997</ele>
        <time>2015-11-08T13:23:25Z</time>
      </trkpt>
      <trkpt lat="51.164048658683896" lon="6.161094037815929">
        <ele>67.909999999999997</ele>
        <time>2015-11-08T13:23:26Z</time>
      </trkpt>
      <trkpt lat="51.164164328947663" lon="6.160866972059012">
        <ele>68.390000000000001</ele>
        <time>2015-11-08T13:23:40Z</time>
      </trkpt>
      <trkpt lat="51.164167514070868" lon="6.160839311778545">
        <ele>67.909999999999997</ele>
        <time>2015-11-08T13:23:41Z</time>
      </trkpt>
      <trkpt lat="51.16417002864182" lon="6.160807376727462">
        <ele>67.430000000000007</ele>
        <time>2015-11-08T13:23:42Z</time>
      </trkpt>
      <trkpt lat="51.16417346522212" lon="6.160775944590569">
        <ele>68.870000000000005</ele>
        <time>2015-11-08T13:23:43Z</time>
      </trkpt>
      <trkpt lat="51.164186038076878" lon="6.160748954862356">
        <ele>68.390000000000001</ele>
        <time>2015-11-08T13:23:44Z</time>
      </trkpt>
      <trkpt lat="51.164199868217111" lon="6.160729425027967">
        <ele>68.390000000000001</ele>
        <time>2015-11-08T13:23:45Z</time>
      </trkpt>
      <trkpt lat="51.16421109996736" lon="6.16070318967104">
        <ele>68.390000000000001</ele>
        <time>2015-11-08T13:23:46Z</time>
      </trkpt>
      <trkpt lat="51.164237586781383" lon="6.160583747550845">
        <ele>68.390000000000001</ele>
        <time>2015-11-08T13:23:51Z</time>
      </trkpt>
      <trkpt lat="51.164314700290561" lon="6.160446787253022">
        <ele>68.390000000000001</ele>
        <time>2015-11-08T13:24:00Z</time>
      </trkpt>
      <trkpt lat="51.164439423009753" lon="6.160206310451031">
        <ele>68.390000000000001</ele>
        <time>2015-11-08T13:24:15Z</time>
      </trkpt>
      <trkpt lat="51.164510333910584" lon="6.159934150055051">
        <ele>68.390000000000001</ele>
        <time>2015-11-08T13:24:28Z</time>
      </trkpt>
      <trkpt lat="51.164519721642137" lon="6.159909004345536">
        <ele>68.390000000000001</ele>
        <time>2015-11-08T13:24:29Z</time>
      </trkpt>
      <trkpt lat="51.164532462134957" lon="6.159883690997958">
        <ele>67.909999999999997</ele>
        <time>2015-11-08T13:24:30Z</time>
      </trkpt>
      <trkpt lat="51.164547801017761" lon="6.159833064302802">
        <ele>68.390000000000001</ele>
        <time>2015-11-08T13:24:33Z</time>
      </trkpt>
      <trkpt lat="51.16454872302711" lon="6.159804901108146">
        <ele>68.390000000000001</ele>
        <time>2015-11-08T13:24:34Z</time>
      </trkpt>
      <trkpt lat="51.164553500711918" lon="6.159772044047713">
        <ele>67.909999999999997</ele>
        <time>2015-11-08T13:24:35Z</time>
      </trkpt>
      <trkpt lat="51.164590129628778" lon="6.159641370177269">
        <ele>67.909999999999997</ele>
        <time>2015-11-08T13:24:41Z</time>
      </trkpt>
      <trkpt lat="51.164602618664503" lon="6.159507092088461">
        <ele>67.909999999999997</ele>
        <time>2015-11-08T13:24:46Z</time>
      </trkpt>
      <trkpt lat="51.164601026102901" lon="6.159392679110169">
        <ele>67.909999999999997</ele>
        <time>2015-11-08T13:24:51Z</time>
      </trkpt>
      <trkpt lat="51.164622148498893" lon="6.159172905609012">
        <ele>67.430000000000007</ele>
        <time>2015-11-08T13:25:01Z</time>
      </trkpt>
      <trkpt lat="51.164673361927271" lon="6.159131666645408">
        <ele>67.909999999999997</ele>
        <time>2015-11-08T13:25:04Z</time>
      </trkpt>
      <trkpt lat="51.164704710245132" lon="6.159105598926544">
        <ele>67.430000000000007</ele>
        <time>2015-11-08T13:25:06Z</time>
      </trkpt>
      <trkpt lat="51.164853824302554" lon="6.158945253118873">
        <ele>67.430000000000007</ele>
        <time>2015-11-08T13:25:18Z</time>
      </trkpt>
      <trkpt lat="51.164989192038774" lon="6.158676194027066">
        <ele>67.430000000000007</ele>
        <time>2015-11-08T13:25:33Z</time>
      </trkpt>
      <trkpt lat="51.165004363283515" lon="6.158638307824731">
        <ele>67.430000000000007</ele>
        <time>2015-11-08T13:25:35Z</time>
      </trkpt>
      <trkpt lat="51.165014756843448" lon="6.158617185428739">
        <ele>67.430000000000007</ele>
        <time>2015-11-08T13:25:36Z</time>
      </trkpt>
      <trkpt lat="51.165024731308222" lon="6.158596063032746">
        <ele>67.430000000000007</ele>
        <time>2015-11-08T13:25:37Z</time>
      </trkpt>
      <trkpt lat="51.165109053254128" lon="6.15838710218668">
        <ele>66.950000000000003</ele>
        <time>2015-11-08T13:25:51Z</time>
      </trkpt>
      <trkpt lat="51.165077537298203" lon="6.158320717513561">
        <ele>66.950000000000003</ele>
        <time>2015-11-08T13:25:56Z</time>
      </trkpt>
      <trkpt lat="51.165065551176667" lon="6.158308312296867">
        <ele>66.950000000000003</ele>
        <time>2015-11-08T13:25:57Z</time>
      </trkpt>
      <trkpt lat="51.165050296112895" lon="6.158291297033429">
        <ele>66.950000000000003</ele>
        <time>2015-11-08T13:25:58Z</time>
      </trkpt>
      <trkpt lat="51.165033616125584" lon="6.158270006999373">
        <ele>66.950000000000003</ele>
        <time>2015-11-08T13:25:59Z</time>
      </trkpt>
      <trkpt lat="51.16502364166081" lon="6.158246453851461">
        <ele>66.950000000000003</ele>
        <time>2015-11-08T13:26:00Z</time>
      </trkpt>
      <trkpt lat="51.165000256150961" lon="6.158218290656805">
        <ele>66.469999999999999</ele>
        <time>2015-11-08T13:26:01Z</time>
      </trkpt>
      <trkpt lat="51.164973936975002" lon="6.15818040445447">
        <ele>66.950000000000003</ele>
        <time>2015-11-08T13:26:02Z</time>
      </trkpt>
      <trkpt lat="51.164790960028768" lon="6.157979909330607">
        <ele>66.469999999999999</ele>
        <time>2015-11-08T13:26:16Z</time>
      </trkpt>
      <trkpt lat="51.164592979475856" lon="6.157781174406409">
        <ele>66.469999999999999</ele>
        <time>2015-11-08T13:26:31Z</time>
      </trkpt>
      <trkpt lat="51.164444452151656" lon="6.157631892710924">
        <ele>66.469999999999999</ele>
        <time>2015-11-08T13:26:44Z</time>
      </trkpt>
      <trkpt lat="51.164310509338975" lon="6.157463248819113">
        <ele>66.469999999999999</ele>
        <time>2015-11-08T13:26:56Z</time>
      </trkpt>
      <trkpt lat="51.164295757189393" lon="6.157447574660182">
        <ele>66.469999999999999</ele>
        <time>2015-11-08T13:26:57Z</time>
      </trkpt>
      <trkpt lat="51.164279244840145" lon="6.157435001805425">
        <ele>66.469999999999999</ele>
        <time>2015-11-08T13:26:58Z</time>
      </trkpt>
      <trkpt lat="51.164265163242817" lon="6.157423602417111">
        <ele>66.469999999999999</ele>
        <time>2015-11-08T13:26:59Z</time>
      </trkpt>
      <trkpt lat="51.164252422749996" lon="6.157410694286227">
        <ele>66.469999999999999</ele>
        <time>2015-11-08T13:27:00Z</time>
      </trkpt>
      <trkpt lat="51.164239011704922" lon="6.157399211078882">
        <ele>66.469999999999999</ele>
        <time>2015-11-08T13:27:01Z</time>
      </trkpt>
      <trkpt lat="51.16422476246953" lon="6.157387644052506">
        <ele>66.469999999999999</ele>
        <time>2015-11-08T13:27:02Z</time>
      </trkpt>
      <trkpt lat="51.164210513234138" lon="6.157372891902924">
        <ele>66.469999999999999</ele>
        <time>2015-11-08T13:27:03Z</time>
      </trkpt>
      <trkpt lat="51.164197688922286" lon="6.157361408695579">
        <ele>66.469999999999999</ele>
        <time>2015-11-08T13:27:04Z</time>
      </trkpt>
      <trkpt lat="51.164016891270876" lon="6.157224113121629">
        <ele>66.950000000000003</ele>
        <time>2015-11-08T13:27:17Z</time>
      </trkpt>
      <trkpt lat="51.163817653432488" lon="6.157020097598434">
        <ele>66.950000000000003</ele>
        <time>2015-11-08T13:27:31Z</time>
      </trkpt>
      <trkpt lat="51.163643226027489" lon="6.156837623566389">
        <ele>66.469999999999999</ele>
        <time>2015-11-08T13:27:44Z</time>
      </trkpt>
      <trkpt lat="51.163485897704959" lon="6.15667937323451">
        <ele>66.950000000000003</ele>
        <time>2015-11-08T13:27:56Z</time>
      </trkpt>
      <trkpt lat="51.163469636812806" lon="6.156649282202125">
        <ele>66.950000000000003</ele>
        <time>2015-11-08T13:27:57Z</time>
      </trkpt>
      <trkpt lat="51.163342986255884" lon="6.156475860625505">
        <ele>66.950000000000003</ele>
        <time>2015-11-08T13:28:07Z</time>
      </trkpt>
      <trkpt lat="51.163328317925334" lon="6.156463287770748">
        <ele>66.950000000000003</ele>
        <time>2015-11-08T13:28:08Z</time>
      </trkpt>
      <trkpt lat="51.163316667079926" lon="6.156447781249881">
        <ele>66.950000000000003</ele>
        <time>2015-11-08T13:28:09Z</time>
      </trkpt>
      <trkpt lat="51.163305938243866" lon="6.156433112919331">
        <ele>66.950000000000003</ele>
        <time>2015-11-08T13:28:10Z</time>
      </trkpt>
      <trkpt lat="51.16329537704587" lon="6.156419450417161">
        <ele>66.950000000000003</ele>
        <time>2015-11-08T13:28:11Z</time>
      </trkpt>
      <trkpt lat="51.163119776174426" lon="6.156247034668922">
        <ele>67.430000000000007</ele>
        <time>2015-11-08T13:28:23Z</time>
      </trkpt>
      <trkpt lat="51.162970494478941" lon="6.156084928661585">
        <ele>67.430000000000007</ele>
        <time>2015-11-08T13:28:37Z</time>
      </trkpt>
      <trkpt lat="51.162852561101317" lon="6.155916033312678">
        <ele>67.430000000000007</ele>
        <time>2015-11-08T13:28:49Z</time>
      </trkpt>
      <trkpt lat="51.162687102332711" lon="6.155826933681965">
        <ele>67.430000000000007</ele>
        <time>2015-11-08T13:29:03Z</time>
      </trkpt>
      <trkpt lat="51.162493228912354" lon="6.155632389709353">
        <ele>67.430000000000007</ele>
        <time>2015-11-08T13:29:17Z</time>
      </trkpt>
      <trkpt lat="51.162409828975797" lon="6.155533147975802">
        <ele>67.430000000000007</ele>
        <time>2015-11-08T13:29:24Z</time>
      </trkpt>
      <trkpt lat="51.162400525063276" lon="6.155516048893333">
        <ele>67.430000000000007</ele>
        <time>2015-11-08T13:29:25Z</time>
      </trkpt>
      <trkpt lat="51.162389377132058" lon="6.155499871820211">
        <ele>67.430000000000007</ele>
        <time>2015-11-08T13:29:26Z</time>
      </trkpt>
      <trkpt lat="51.162378396838903" lon="6.155480509623885">
        <ele>67.430000000000007</ele>
        <time>2015-11-08T13:29:27Z</time>
      </trkpt>
      <trkpt lat="51.162369260564446" lon="6.155462237074971">
        <ele>67.430000000000007</ele>
        <time>2015-11-08T13:29:28Z</time>
      </trkpt>
      <trkpt lat="51.162358950823545" lon="6.155443964526057">
        <ele>67.430000000000007</ele>
        <time>2015-11-08T13:29:29Z</time>
      </trkpt>
      <trkpt lat="51.162146888673306" lon="6.155226454138756">
        <ele>67.909999999999997</ele>
        <time>2015-11-08T13:29:46Z</time>
      </trkpt>
      <trkpt lat="51.162132304161787" lon="6.155212875455618">
        <ele>67.909999999999997</ele>
        <time>2015-11-08T13:29:47Z</time>
      </trkpt>
      <trkpt lat="51.161924265325069" lon="6.155000394210219">
        <ele>67.909999999999997</ele>
        <time>2015-11-08T13:30:02Z</time>
      </trkpt>
      <trkpt lat="51.161912279203534" lon="6.15498622879386">
        <ele>67.909999999999997</ele>
        <time>2015-11-08T13:30:03Z</time>
      </trkpt>
      <trkpt lat="51.161826951429248" lon="6.154894363135099">
        <ele>67.909999999999997</ele>
        <time>2015-11-08T13:30:12Z</time>
      </trkpt>
      <trkpt lat="51.161689655855298" lon="6.154764024540782">
        <ele>68.390000000000001</ele>
        <time>2015-11-08T13:30:24Z</time>
      </trkpt>
      <trkpt lat="51.161632323637605" lon="6.154701244086027">
        <ele>68.390000000000001</ele>
        <time>2015-11-08T13:30:28Z</time>
      </trkpt>
      <trkpt lat="51.161614805459976" lon="6.154686324298382">
        <ele>68.390000000000001</ele>
        <time>2015-11-08T13:30:29Z</time>
      </trkpt>
      <trkpt lat="51.161471391096711" lon="6.154560931026936">
        <ele>68.870000000000005</ele>
        <time>2015-11-08T13:30:40Z</time>
      </trkpt>
      <trkpt lat="51.161457477137446" lon="6.15454844199121">
        <ele>68.870000000000005</ele>
        <time>2015-11-08T13:30:41Z</time>
      </trkpt>
      <trkpt lat="51.16144297644496" lon="6.15453477948904">
        <ele>68.870000000000005</ele>
        <time>2015-11-08T13:30:42Z</time>
      </trkpt>
      <trkpt lat="51.161428978666663" lon="6.154516926035285">
        <ele>68.870000000000005</ele>
        <time>2015-11-08T13:30:43Z</time>
      </trkpt>
      <trkpt lat="51.161414561793208" lon="6.154502928256989">
        <ele>68.870000000000005</ele>
        <time>2015-11-08T13:30:44Z</time>
      </trkpt>
      <trkpt lat="51.161400396376848" lon="6.154492199420929">
        <ele>68.870000000000005</ele>
        <time>2015-11-08T13:30:45Z</time>
      </trkpt>
      <trkpt lat="51.161305345594883" lon="6.154414918273687">
        <ele>68.870000000000005</ele>
        <time>2015-11-08T13:30:52Z</time>
      </trkpt>
      <trkpt lat="51.161292437463999" lon="6.154402261599898">
        <ele>69.349999999999994</ele>
        <time>2015-11-08T13:30:53Z</time>
      </trkpt>
      <trkpt lat="51.161206187680364" lon="6.154304025694728">
        <ele>68.870000000000005</ele>
        <time>2015-11-08T13:30:59Z</time>
      </trkpt>
      <trkpt lat="51.161192189902067" lon="6.154282819479704">
        <ele>68.870000000000005</ele>
        <time>2015-11-08T13:31:00Z</time>
      </trkpt>
      <trkpt lat="51.161177102476358" lon="6.154262619093061">
        <ele>68.870000000000005</ele>
        <time>2015-11-08T13:31:01Z</time>
      </trkpt>
      <trkpt lat="51.160993538796902" lon="6.154078636318445">
        <ele>69.829999999999998</ele>
        <time>2015-11-08T13:31:16Z</time>
      </trkpt>
      <trkpt lat="51.160983229056001" lon="6.154063129797578">
        <ele>69.829999999999998</ele>
        <time>2015-11-08T13:31:17Z</time>
      </trkpt>
      <trkpt lat="51.160971410572529" lon="6.154048712924123">
        <ele>69.829999999999998</ele>
        <time>2015-11-08T13:31:18Z</time>
      </trkpt>
      <trkpt lat="51.160955652594566" lon="6.154033374041319">
        <ele>69.829999999999998</ele>
        <time>2015-11-08T13:31:19Z</time>
      </trkpt>
      <trkpt lat="51.160936458036304" lon="6.154015436768532">
        <ele>69.829999999999998</ele>
        <time>2015-11-08T13:31:20Z</time>
      </trkpt>
      <trkpt lat="51.160761946812272" lon="6.153838746249676">
        <ele>70.310000000000002</ele>
        <time>2015-11-08T13:31:34Z</time>
      </trkpt>
      <trkpt lat="51.160745853558183" lon="6.153832208365202">
        <ele>69.829999999999998</ele>
        <time>2015-11-08T13:31:35Z</time>
      </trkpt>
      <trkpt lat="51.160729257389903" lon="6.153828017413616">
        <ele>70.310000000000002</ele>
        <time>2015-11-08T13:31:36Z</time>
      </trkpt>
      <trkpt lat="51.160699333995581" lon="6.153847547248006">
        <ele>70.310000000000002</ele>
        <time>2015-11-08T13:31:39Z</time>
      </trkpt>
      <trkpt lat="51.160636972635984" lon="6.153955506160855">
        <ele>70.310000000000002</ele>
        <time>2015-11-08T13:31:49Z</time>
      </trkpt>
      <trkpt lat="51.160552147775888" lon="6.154178464785218">
        <ele>70.310000000000002</ele>
        <time>2015-11-08T13:32:04Z</time>
      </trkpt>
      <trkpt lat="51.160493809729815" lon="6.154319196939468">
        <ele>70.310000000000002</ele>
        <time>2015-11-08T13:32:16Z</time>
      </trkpt>
      <trkpt lat="51.160481655970216" lon="6.154344426468015">
        <ele>70.310000000000002</ele>
        <time>2015-11-08T13:32:17Z</time>
      </trkpt>
      <trkpt lat="51.160469921305776" lon="6.154377870261669">
        <ele>70.310000000000002</ele>
        <time>2015-11-08T13:32:18Z</time>
      </trkpt>
      <trkpt lat="51.160456258803606" lon="6.154413493350148">
        <ele>70.310000000000002</ele>
        <time>2015-11-08T13:32:19Z</time>
      </trkpt>
      <trkpt lat="51.160345114767551" lon="6.154666040092707">
        <ele>69.829999999999998</ele>
        <time>2015-11-08T13:32:30Z</time>
      </trkpt>
      <trkpt lat="51.160226259380579" lon="6.155009781941772">
        <ele>70.310000000000002</ele>
        <time>2015-11-08T13:32:47Z</time>
      </trkpt>
      <trkpt lat="51.160143278539181" lon="6.155221173539758">
        <ele>70.310000000000002</ele>
        <time>2015-11-08T13:32:57Z</time>
      </trkpt>
      <trkpt lat="51.160135064274073" lon="6.155245564877987">
        <ele>70.310000000000002</ele>
        <time>2015-11-08T13:32:58Z</time>
      </trkpt>
      <trkpt lat="51.160125760361552" lon="6.155269788578153">
        <ele>70.310000000000002</ele>
        <time>2015-11-08T13:32:59Z</time>
      </trkpt>
      <trkpt lat="51.15999810397625" lon="6.155607998371124">
        <ele>70.310000000000002</ele>
        <time>2015-11-08T13:33:14Z</time>
      </trkpt>
      <trkpt lat="51.159862233325839" lon="6.155992643907666">
        <ele>70.790000000000006</ele>
        <time>2015-11-08T13:33:31Z</time>
      </trkpt>
      <trkpt lat="51.159714628010988" lon="6.156254578381777">
        <ele>70.790000000000006</ele>
        <time>2015-11-08T13:33:44Z</time>
      </trkpt>
      <trkpt lat="51.159691493958235" lon="6.156309898942709">
        <ele>70.790000000000006</ele>
        <time>2015-11-08T13:33:45Z</time>
      </trkpt>
      <trkpt lat="51.159675316885114" lon="6.156375780701637">
        <ele>70.790000000000006</ele>
        <time>2015-11-08T13:33:46Z</time>
      </trkpt>
      <trkpt lat="51.159661822021008" lon="6.156416432932019">
        <ele>70.790000000000006</ele>
        <time>2015-11-08T13:33:47Z</time>
      </trkpt>
      <trkpt lat="51.15953492000699" lon="6.156799234449863">
        <ele>70.310000000000002</ele>
        <time>2015-11-08T13:34:00Z</time>
      </trkpt>
      <trkpt lat="51.159460907801986" lon="6.157002244144678">
        <ele>69.829999999999998</ele>
        <time>2015-11-08T13:34:13Z</time>
      </trkpt>
      <trkpt lat="51.159433079883456" lon="6.157108107581735">
        <ele>69.829999999999998</ele>
        <time>2015-11-08T13:34:26Z</time>
      </trkpt>
      <trkpt lat="51.159330233931541" lon="6.157403821125627">
        <ele>69.349999999999994</ele>
        <time>2015-11-08T13:34:41Z</time>
      </trkpt>
      <trkpt lat="51.159246750175953" lon="6.157638179138303">
        <ele>69.349999999999994</ele>
        <time>2015-11-08T13:34:55Z</time>
      </trkpt>
      <trkpt lat="51.159185143187642" lon="6.157787041738629">
        <ele>68.870000000000005</ele>
        <time>2015-11-08T13:35:10Z</time>
      </trkpt>
      <trkpt lat="51.159053631126881" lon="6.158098597079516">
        <ele>68.390000000000001</ele>
        <time>2015-11-08T13:35:23Z</time>
      </trkpt>
      <trkpt lat="51.158920442685485" lon="6.158441500738263">
        <ele>67.909999999999997</ele>
        <time>2015-11-08T13:35:35Z</time>
      </trkpt>
      <trkpt lat="51.158785913139582" lon="6.15883519873023">
        <ele>66.469999999999999</ele>
        <time>2015-11-08T13:35:49Z</time>
      </trkpt>
      <trkpt lat="51.158710476011038" lon="6.159117668867111">
        <ele>67.909999999999997</ele>
        <time>2015-11-08T13:36:02Z</time>
      </trkpt>
      <trkpt lat="51.158656748011708" lon="6.159183047711849">
        <ele>67.909999999999997</ele>
        <time>2015-11-08T13:36:14Z</time>
      </trkpt>
      <trkpt lat="51.15858600474894" lon="6.159177515655756">
        <ele>68.390000000000001</ele>
        <time>2015-11-08T13:36:19Z</time>
      </trkpt>
      <trkpt lat="51.158571420237422" lon="6.159172067418695">
        <ele>68.390000000000001</ele>
        <time>2015-11-08T13:36:20Z</time>
      </trkpt>
      <trkpt lat="51.158377462998033" lon="6.159054720774293">
        <ele>68.870000000000005</ele>
        <time>2015-11-08T13:36:35Z</time>
      </trkpt>
      <trkpt lat="51.158174620941281" lon="6.158896218985319">
        <ele>69.349999999999994</ele>
        <time>2015-11-08T13:36:50Z</time>
      </trkpt>
      <trkpt lat="51.158147044479847" lon="6.158867133781314">
        <ele>69.349999999999994</ele>
        <time>2015-11-08T13:36:52Z</time>
      </trkpt>
      <trkpt lat="51.157940430566669" lon="6.15867979824543">
        <ele>69.349999999999994</ele>
        <time>2015-11-08T13:37:06Z</time>
      </trkpt>
      <trkpt lat="51.157829705625772" lon="6.158551219850779">
        <ele>68.870000000000005</ele>
        <time>2015-11-08T13:37:21Z</time>
      </trkpt>
      <trkpt lat="51.15779047831893" lon="6.15856253542006">
        <ele>68.870000000000005</ele>
        <time>2015-11-08T13:37:25Z</time>
      </trkpt>
      <trkpt lat="51.157614961266518" lon="6.158559015020728">
        <ele>67.430000000000007</ele>
        <time>2015-11-08T13:37:37Z</time>
      </trkpt>
      <trkpt lat="51.157484706491232" lon="6.158414008095861">
        <ele>66.950000000000003</ele>
        <time>2015-11-08T13:37:51Z</time>
      </trkpt>
      <trkpt lat="51.157447071745992" lon="6.158416606485844">
        <ele>66.469999999999999</ele>
        <time>2015-11-08T13:38:09Z</time>
      </trkpt>
      <trkpt lat="51.157432235777378" lon="6.158412750810385">
        <ele>66.469999999999999</ele>
        <time>2015-11-08T13:38:30Z</time>
      </trkpt>
      <trkpt lat="51.157264010980725" lon="6.158278305083513">
        <ele>65.989999999999995</ele>
        <time>2015-11-08T13:38:46Z</time>
      </trkpt>
      <trkpt lat="51.157064773142338" lon="6.158202448859811">
        <ele>65.030000000000001</ele>
        <time>2015-11-08T13:38:59Z</time>
      </trkpt>
      <trkpt lat="51.157013308256865" lon="6.158209573477507">
        <ele>65.030000000000001</ele>
        <time>2015-11-08T13:39:03Z</time>
      </trkpt>
      <trkpt lat="51.156935524195433" lon="6.158138746395707">
        <ele>65.030000000000001</ele>
        <time>2015-11-08T13:39:11Z</time>
      </trkpt>
      <trkpt lat="51.156821865588427" lon="6.157873207703233">
        <ele>65.510000000000005</ele>
        <time>2015-11-08T13:39:26Z</time>
      </trkpt>
      <trkpt lat="51.156768808141351" lon="6.157800871878862">
        <ele>65.510000000000005</ele>
        <time>2015-11-08T13:39:32Z</time>
      </trkpt>
      <trkpt lat="51.156657245010138" lon="6.157700037583709">
        <ele>65.030000000000001</ele>
        <time>2015-11-08T13:39:40Z</time>
      </trkpt>
      <trkpt lat="51.156502766534686" lon="6.157574309036136">
        <ele>64.549999999999997</ele>
        <time>2015-11-08T13:39:57Z</time>
      </trkpt>
      <trkpt lat="51.156313084065914" lon="6.157464841380715">
        <ele>64.069999999999993</ele>
        <time>2015-11-08T13:40:11Z</time>
      </trkpt>
      <trkpt lat="51.156198838725686" lon="6.15742645226419">
        <ele>64.069999999999993</ele>
        <time>2015-11-08T13:40:25Z</time>
      </trkpt>
      <trkpt lat="51.156123988330364" lon="6.157555701211095">
        <ele>63.579999999999998</ele>
        <time>2015-11-08T13:40:32Z</time>
      </trkpt>
      <trkpt lat="51.156045785173774" lon="6.157726356759667">
        <ele>62.140000000000001</ele>
        <time>2015-11-08T13:40:45Z</time>
      </trkpt>
      <trkpt lat="51.1560685839504" lon="6.15764438174665">
        <ele>62.619999999999997</ele>
        <time>2015-11-08T13:40:58Z</time>
      </trkpt>
      <trkpt lat="51.155914189293981" lon="6.157479844987392">
        <ele>62.619999999999997</ele>
        <time>2015-11-08T13:41:12Z</time>
      </trkpt>
      <trkpt lat="51.155854593962431" lon="6.157321762293577">
        <ele>63.100000000000001</ele>
        <time>2015-11-08T13:41:22Z</time>
      </trkpt>
      <trkpt lat="51.15584185346961" lon="6.157086566090584">
        <ele>64.549999999999997</ele>
        <time>2015-11-08T13:41:35Z</time>
      </trkpt>
      <trkpt lat="51.155763817951083" lon="6.156912054866552">
        <ele>65.030000000000001</ele>
        <time>2015-11-08T13:41:49Z</time>
      </trkpt>
      <trkpt lat="51.155752837657928" lon="6.156915072351694">
        <ele>64.549999999999997</ele>
        <time>2015-11-08T13:41:50Z</time>
      </trkpt>
      <trkpt lat="51.155453436076641" lon="6.156785739585757">
        <ele>63.579999999999998</ele>
        <time>2015-11-08T13:42:07Z</time>
      </trkpt>
      <trkpt lat="51.155268950387836" lon="6.156794708222151">
        <ele>63.579999999999998</ele>
        <time>2015-11-08T13:42:22Z</time>
      </trkpt>
      <trkpt lat="51.155210444703698" lon="6.156825302168727">
        <ele>62.619999999999997</ele>
        <time>2015-11-08T13:42:37Z</time>
      </trkpt>
      <trkpt lat="51.155175659805536" lon="6.156909121200442">
        <ele>62.140000000000001</ele>
        <time>2015-11-08T13:42:43Z</time>
      </trkpt>
      <trkpt lat="51.155094606801867" lon="6.157103581354022">
        <ele>61.659999999999997</ele>
        <time>2015-11-08T13:42:54Z</time>
      </trkpt>
      <trkpt lat="51.155002154409885" lon="6.157307680696249">
        <ele>60.700000000000003</ele>
        <time>2015-11-08T13:43:08Z</time>
      </trkpt>
      <trkpt lat="51.154982624575496" lon="6.157364509999752">
        <ele>60.700000000000003</ele>
        <time>2015-11-08T13:43:11Z</time>
      </trkpt>
      <trkpt lat="51.15490903146565" lon="6.157536506652832">
        <ele>59.740000000000002</ele>
        <time>2015-11-08T13:43:18Z</time>
      </trkpt>
      <trkpt lat="51.154853710904717" lon="6.157786706462503">
        <ele>58.780000000000001</ele>
        <time>2015-11-08T13:43:30Z</time>
      </trkpt>
      <trkpt lat="51.154790930449963" lon="6.158022154122591">
        <ele>58.780000000000001</ele>
        <time>2015-11-08T13:43:39Z</time>
      </trkpt>
      <trkpt lat="51.154758241027594" lon="6.158197335898876">
        <ele>58.299999999999997</ele>
        <time>2015-11-08T13:43:47Z</time>
      </trkpt>
      <trkpt lat="51.154658077284694" lon="6.158509477972984">
        <ele>56.859999999999999</ele>
        <time>2015-11-08T13:44:00Z</time>
      </trkpt>
      <trkpt lat="51.154593452811241" lon="6.158760515972972">
        <ele>55.890000000000001</ele>
        <time>2015-11-08T13:44:15Z</time>
      </trkpt>
      <trkpt lat="51.154579538851976" lon="6.158801503479481">
        <ele>55.890000000000001</ele>
        <time>2015-11-08T13:44:17Z</time>
      </trkpt>
      <trkpt lat="51.154457330703735" lon="6.159099480137229">
        <ele>54.93</ele>
        <time>2015-11-08T13:44:31Z</time>
      </trkpt>
      <trkpt lat="51.154361944645643" lon="6.159392427653074">
        <ele>53.490000000000002</ele>
        <time>2015-11-08T13:44:44Z</time>
      </trkpt>
      <trkpt lat="51.154319699853659" lon="6.159604992717505">
        <ele>53.490000000000002</ele>
        <time>2015-11-08T13:44:54Z</time>
      </trkpt>
      <trkpt lat="51.154231019318104" lon="6.15986617282033">
        <ele>52.049999999999997</ele>
        <time>2015-11-08T13:45:08Z</time>
      </trkpt>
      <trkpt lat="51.154166646301746" lon="6.1601198092103">
        <ele>51.57</ele>
        <time>2015-11-08T13:45:19Z</time>
      </trkpt>
      <trkpt lat="51.154056005179882" lon="6.160402782261372">
        <ele>51.090000000000003</ele>
        <time>2015-11-08T13:45:33Z</time>
      </trkpt>
      <trkpt lat="51.154025327414274" lon="6.160491965711117">
        <ele>50.609999999999999</ele>
        <time>2015-11-08T13:45:38Z</time>
      </trkpt>
      <trkpt lat="51.153988530859351" lon="6.160366907715797">
        <ele>50.609999999999999</ele>
        <time>2015-11-08T13:45:52Z</time>
      </trkpt>
      <trkpt lat="51.153998337686062" lon="6.160299265757203">
        <ele>51.090000000000003</ele>
        <time>2015-11-08T13:45:55Z</time>
      </trkpt>
      <trkpt lat="51.15403588861227" lon="6.159963486716151">
        <ele>50.609999999999999</ele>
        <time>2015-11-08T13:46:10Z</time>
      </trkpt>
      <trkpt lat="51.154098501428962" lon="6.159825185313821">
        <ele>50.609999999999999</ele>
        <time>2015-11-08T13:46:20Z</time>
      </trkpt>
      <trkpt lat="51.1541414167732" lon="6.15943668410182">
        <ele>53.009999999999998</ele>
        <time>2015-11-08T13:46:35Z</time>
      </trkpt>
      <trkpt lat="51.154074780642986" lon="6.159210205078125">
        <ele>53.490000000000002</ele>
        <time>2015-11-08T13:46:48Z</time>
      </trkpt>
      <trkpt lat="51.154051814228296" lon="6.159182209521532">
        <ele>53.490000000000002</ele>
        <time>2015-11-08T13:46:50Z</time>
      </trkpt>
      <trkpt lat="51.1538081523031" lon="6.15894709713757">
        <ele>54.450000000000003</ele>
        <time>2015-11-08T13:47:06Z</time>
      </trkpt>
      <trkpt lat="51.15361075848341" lon="6.158716175705195">
        <ele>55.409999999999997</ele>
        <time>2015-11-08T13:47:20Z</time>
      </trkpt>
      <trkpt lat="51.153594832867384" lon="6.158591285347939">
        <ele>56.369999999999997</ele>
        <time>2015-11-08T13:47:32Z</time>
      </trkpt>
      <trkpt lat="51.153442533686757" lon="6.15838416852057">
        <ele>56.369999999999997</ele>
        <time>2015-11-08T13:47:45Z</time>
      </trkpt>
      <trkpt lat="51.153316805139184" lon="6.158304959535599">
        <ele>53.969999999999999</ele>
        <time>2015-11-08T13:47:57Z</time>
      </trkpt>
      <trkpt lat="51.153270117938519" lon="6.158260954543948">
        <ele>52.049999999999997</ele>
        <time>2015-11-08T13:48:02Z</time>
      </trkpt>
      <trkpt lat="51.153076915070415" lon="6.158152744174004">
        <ele>51.090000000000003</ele>
        <time>2015-11-08T13:48:16Z</time>
      </trkpt>
      <trkpt lat="51.153030311688781" lon="6.158059118315578">
        <ele>51.090000000000003</ele>
        <time>2015-11-08T13:48:32Z</time>
      </trkpt>
      <trkpt lat="51.152818500995636" lon="6.158074541017413">
        <ele>50.609999999999999</ele>
        <time>2015-11-08T13:48:47Z</time>
      </trkpt>
      <trkpt lat="51.152799390256405" lon="6.15828450769186">
        <ele>50.609999999999999</ele>
        <time>2015-11-08T13:49:01Z</time>
      </trkpt>
      <trkpt lat="51.152830654755235" lon="6.158401016145945">
        <ele>50.609999999999999</ele>
        <time>2015-11-08T13:49:09Z</time>
      </trkpt>
      <trkpt lat="51.152844903990626" lon="6.158453989773989">
        <ele>50.609999999999999</ele>
        <time>2015-11-08T13:49:12Z</time>
      </trkpt>
      <trkpt lat="51.152832163497806" lon="6.158786248415709">
        <ele>49.159999999999997</ele>
        <time>2015-11-08T13:49:26Z</time>
      </trkpt>
      <trkpt lat="51.152835851535201" lon="6.158832097426057">
        <ele>49.159999999999997</ele>
        <time>2015-11-08T13:49:28Z</time>
      </trkpt>
      <trkpt lat="51.152794612571597" lon="6.159114819020033">
        <ele>48.200000000000003</ele>
        <time>2015-11-08T13:49:40Z</time>
      </trkpt>
      <trkpt lat="51.152783380821347" lon="6.159366024658084">
        <ele>48.200000000000003</ele>
        <time>2015-11-08T13:49:52Z</time>
      </trkpt>
      <trkpt lat="51.152773573994637" lon="6.159435426816344">
        <ele>48.200000000000003</ele>
        <time>2015-11-08T13:49:56Z</time>
      </trkpt>
      <trkpt lat="51.152786063030362" lon="6.159527711570263">
        <ele>48.200000000000003</ele>
        <time>2015-11-08T13:50:00Z</time>
      </trkpt>
      <trkpt lat="51.152775250375271" lon="6.159776318818331">
        <ele>48.68</ele>
        <time>2015-11-08T13:50:12Z</time>
      </trkpt>
      <trkpt lat="51.152730323374271" lon="6.160125089809299">
        <ele>48.68</ele>
        <time>2015-11-08T13:50:27Z</time>
      </trkpt>
      <trkpt lat="51.152677098289132" lon="6.160418707877398">
        <ele>49.159999999999997</ele>
        <time>2015-11-08T13:50:39Z</time>
      </trkpt>
      <trkpt lat="51.152616832405329" lon="6.160672847181559">
        <ele>48.68</ele>
        <time>2015-11-08T13:50:50Z</time>
      </trkpt>
      <trkpt lat="51.152565535157919" lon="6.160815255716443">
        <ele>48.200000000000003</ele>
        <time>2015-11-08T13:50:58Z</time>
      </trkpt>
      <trkpt lat="51.152480039745569" lon="6.160756582394242">
        <ele>47.719999999999999</ele>
        <time>2015-11-08T13:51:11Z</time>
      </trkpt>
      <trkpt lat="51.152372248470783" lon="6.160565223544836">
        <ele>48.200000000000003</ele>
        <time>2015-11-08T13:51:24Z</time>
      </trkpt>
      <trkpt lat="51.152313407510519" lon="6.160456761717796">
        <ele>48.200000000000003</ele>
        <time>2015-11-08T13:51:33Z</time>
      </trkpt>
      <trkpt lat="51.152266468852758" lon="6.160384342074394">
        <ele>48.200000000000003</ele>
        <time>2015-11-08T13:51:37Z</time>
      </trkpt>
      <trkpt lat="51.152187427505851" lon="6.160222990438342">
        <ele>48.200000000000003</ele>
        <time>2015-11-08T13:51:45Z</time>
      </trkpt>
      <trkpt lat="51.152099166065454" lon="6.159860892221332">
        <ele>49.159999999999997</ele>
        <time>2015-11-08T13:52:03Z</time>
      </trkpt>
      <trkpt lat="51.152023058384657" lon="6.159516982734203">
        <ele>50.130000000000003</ele>
        <time>2015-11-08T13:52:18Z</time>
      </trkpt>
      <trkpt lat="51.151941083371639" lon="6.159210624173284">
        <ele>50.130000000000003</ele>
        <time>2015-11-08T13:52:32Z</time>
      </trkpt>
      <trkpt lat="51.151824491098523" lon="6.158939469605684">
        <ele>49.159999999999997</ele>
        <time>2015-11-08T13:52:47Z</time>
      </trkpt>
      <trkpt lat="51.151804206892848" lon="6.158846011385322">
        <ele>48.68</ele>
        <time>2015-11-08T13:52:53Z</time>
      </trkpt>
      <trkpt lat="51.151683172211051" lon="6.158640151843429">
        <ele>48.68</ele>
        <time>2015-11-08T13:53:07Z</time>
      </trkpt>
      <trkpt lat="51.151662552729249" lon="6.158617604523897">
        <ele>49.159999999999997</ele>
        <time>2015-11-08T13:53:09Z</time>
      </trkpt>
      <trkpt lat="51.151499189436436" lon="6.158432364463806">
        <ele>48.200000000000003</ele>
        <time>2015-11-08T13:53:23Z</time>
      </trkpt>
      <trkpt lat="51.151475803926587" lon="6.158371847122908">
        <ele>48.200000000000003</ele>
        <time>2015-11-08T13:53:27Z</time>
      </trkpt>
      <trkpt lat="51.151348734274507" lon="6.158110499382019">
        <ele>47.719999999999999</ele>
        <time>2015-11-08T13:53:41Z</time>
      </trkpt>
      <trkpt lat="51.151244547218084" lon="6.157827274873853">
        <ele>47.240000000000002</ele>
        <time>2015-11-08T13:53:55Z</time>
      </trkpt>
      <trkpt lat="51.151209929957986" lon="6.157662821933627">
        <ele>47.240000000000002</ele>
        <time>2015-11-08T13:54:03Z</time>
      </trkpt>
      <trkpt lat="51.151160560548306" lon="6.157368365675211">
        <ele>47.240000000000002</ele>
        <time>2015-11-08T13:54:16Z</time>
      </trkpt>
      <trkpt lat="51.151131559163332" lon="6.157116238027811">
        <ele>46.759999999999998</ele>
        <time>2015-11-08T13:54:32Z</time>
      </trkpt>
      <trkpt lat="51.151130888611078" lon="6.156748356297612">
        <ele>46.280000000000001</ele>
        <time>2015-11-08T13:54:46Z</time>
      </trkpt>
      <trkpt lat="51.151072718203068" lon="6.156545095145702">
        <ele>46.280000000000001</ele>
        <time>2015-11-08T13:54:54Z</time>
      </trkpt>
      <trkpt lat="51.151014463976026" lon="6.156211160123348">
        <ele>46.280000000000001</ele>
        <time>2015-11-08T13:55:08Z</time>
      </trkpt>
      <trkpt lat="51.150957802310586" lon="6.155872195959091">
        <ele>46.759999999999998</ele>
        <time>2015-11-08T13:55:22Z</time>
      </trkpt>
      <trkpt lat="51.150942044332623" lon="6.155739175155759">
        <ele>47.240000000000002</ele>
        <time>2015-11-08T13:55:27Z</time>
      </trkpt>
      <trkpt lat="51.1510244384408" lon="6.155662816017866">
        <ele>47.719999999999999</ele>
        <time>2015-11-08T13:55:40Z</time>
      </trkpt>
      <trkpt lat="51.151044135913253" lon="6.1556610558182">
        <ele>47.719999999999999</ele>
        <time>2015-11-08T13:55:42Z</time>
      </trkpt>
      <trkpt lat="51.151191992685199" lon="6.155630713328719">
        <ele>48.200000000000003</ele>
        <time>2015-11-08T13:55:55Z</time>
      </trkpt>
      <trkpt lat="51.151280673220754" lon="6.155588049441576">
        <ele>47.719999999999999</ele>
        <time>2015-11-08T13:56:13Z</time>
      </trkpt>
      <trkpt lat="51.151315458118916" lon="6.155570112168789">
        <ele>47.240000000000002</ele>
        <time>2015-11-08T13:56:31Z</time>
      </trkpt>
      <trkpt lat="51.151329455897212" lon="6.155569609254599">
        <ele>47.240000000000002</ele>
        <time>2015-11-08T13:56:46Z</time>
      </trkpt>
      <trkpt lat="51.151326270774007" lon="6.155568854883313">
        <ele>47.719999999999999</ele>
        <time>2015-11-08T13:57:11Z</time>
      </trkpt>
      <trkpt lat="51.151329874992371" lon="6.155604142695665">
        <ele>47.719999999999999</ele>
        <time>2015-11-08T13:57:24Z</time>
      </trkpt>
      <trkpt lat="51.151341358199716" lon="6.155560808256269">
        <ele>48.200000000000003</ele>
        <time>2015-11-08T13:57:39Z</time>
      </trkpt>
      <trkpt lat="51.151382261887193" lon="6.155565083026886">
        <ele>47.719999999999999</ele>
        <time>2015-11-08T13:57:52Z</time>
      </trkpt>
      <trkpt lat="51.151393158361316" lon="6.155593078583479">
        <ele>48.200000000000003</ele>
        <time>2015-11-08T13:58:00Z</time>
      </trkpt>
      <trkpt lat="51.151293748989701" lon="6.155627360567451">
        <ele>47.719999999999999</ele>
        <time>2015-11-08T13:58:15Z</time>
      </trkpt>
      <trkpt lat="51.151312440633774" lon="6.155630964785814">
        <ele>47.719999999999999</ele>
        <time>2015-11-08T13:58:29Z</time>
      </trkpt>
      <trkpt lat="51.151315290480852" lon="6.155634233728051">
        <ele>47.719999999999999</ele>
        <time>2015-11-08T13:58:41Z</time>
      </trkpt>
      <trkpt lat="51.151296012103558" lon="6.155620571225882">
        <ele>47.719999999999999</ele>
        <time>2015-11-08T13:58:54Z</time>
      </trkpt>
      <trkpt lat="51.151307579129934" lon="6.155618475750089">
        <ele>47.719999999999999</ele>
        <time>2015-11-08T13:59:12Z</time>
      </trkpt>
      <trkpt lat="51.151312608271837" lon="6.155617469921708">
        <ele>47.719999999999999</ele>
        <time>2015-11-08T13:59:27Z</time>
      </trkpt>
      <trkpt lat="51.151313446462154" lon="6.155615542083979">
        <ele>42.920000000000002</ele>
        <time>2015-11-08T13:59:31Z</time>
      </trkpt>
      <trkpt lat="51.151312608271837" lon="6.155615961179137">
        <ele>52.530000000000001</ele>
        <time>2015-11-08T13:59:32Z</time>
      </trkpt>
      <trkpt lat="51.15131126716733" lon="6.155616631731391">
        <ele>48.200000000000003</ele>
        <time>2015-11-08T13:59:33Z</time>
      </trkpt>
      <trkpt lat="51.15130883641541" lon="6.155614536255598">
        <ele>47.719999999999999</ele>
        <time>2015-11-08T13:59:35Z</time>
      </trkpt>
      <trkpt lat="51.151304226368666" lon="6.155608585104346">
        <ele>48.200000000000003</ele>
        <time>2015-11-08T13:59:54Z</time>
      </trkpt>
      <trkpt lat="51.151301711797714" lon="6.155602801591158">
        <ele>48.200000000000003</ele>
        <time>2015-11-08T14:00:10Z</time>
      </trkpt>
      <trkpt lat="51.151322582736611" lon="6.155610345304012">
        <ele>48.68</ele>
        <time>2015-11-08T14:00:23Z</time>
      </trkpt>
      <trkpt lat="51.151324426755309" lon="6.155616967007518">
        <ele>48.200000000000003</ele>
        <time>2015-11-08T14:00:37Z</time>
      </trkpt>
      <trkpt lat="51.15129659883678" lon="6.155607160180807">
        <ele>48.68</ele>
        <time>2015-11-08T14:00:49Z</time>
      </trkpt>
      <trkpt lat="51.151301376521587" lon="6.155613781884313">
        <ele>46.759999999999998</ele>
        <time>2015-11-08T14:01:06Z</time>
      </trkpt>
      <trkpt lat="51.151314871385694" lon="6.155609926208854">
        <ele>48.200000000000003</ele>
        <time>2015-11-08T14:01:25Z</time>
      </trkpt>
      <trkpt lat="51.151325600221753" lon="6.15561562590301">
        <ele>48.68</ele>
        <time>2015-11-08T14:01:46Z</time>
      </trkpt>
      <trkpt lat="51.151313278824091" lon="6.155587378889322">
        <ele>48.200000000000003</ele>
        <time>2015-11-08T14:02:00Z</time>
      </trkpt>
      <trkpt lat="51.1513093393296" lon="6.155746718868613">
        <ele>48.200000000000003</ele>
        <time>2015-11-08T14:02:11Z</time>
      </trkpt>
      <trkpt lat="51.151317888870835" lon="6.155825508758426">
        <ele>48.200000000000003</ele>
        <time>2015-11-08T14:02:15Z</time>
      </trkpt>
      <trkpt lat="51.151323169469833" lon="6.155967246741056">
        <ele>48.200000000000003</ele>
        <time>2015-11-08T14:02:28Z</time>
      </trkpt>
      <trkpt lat="51.151319481432438" lon="6.155960038304329">
        <ele>48.68</ele>
        <time>2015-11-08T14:02:56Z</time>
      </trkpt>
      <trkpt lat="51.151322834193707" lon="6.155961295589805">
        <ele>47.240000000000002</ele>
        <time>2015-11-08T14:03:09Z</time>
      </trkpt>
      <trkpt lat="51.151458621025085" lon="6.155710928142071">
        <ele>54.93</ele>
        <time>2015-11-08T14:18:23Z</time>
      </trkpt>
      <trkpt lat="51.151487538591027" lon="6.155676646158099">
        <ele>54.93</ele>
        <time>2015-11-08T14:18:24Z</time>
      </trkpt>
      <trkpt lat="51.151449233293533" lon="6.155706234276295">
        <ele>57.340000000000003</ele>
        <time>2015-11-08T14:18:40Z</time>
      </trkpt>
      <trkpt lat="51.151619637385011" lon="6.155583690851927">
        <ele>75.599999999999994</ele>
        <time>2015-11-08T16:31:24Z</time>
      </trkpt>
      <trkpt lat="51.15160153247416" lon="6.155538428574801">
        <ele>74.159999999999997</ele>
        <time>2015-11-08T16:31:29Z</time>
      </trkpt>
    </trkseg>
  </trk>

</gpx>